[[{"header":{"parameterUnit":"m.s-1","parameterCategory":1,"la1":30.6,"la2":28.766,"lo1":-90.7593,"lo2":-88.6598,"dy":0.0162,"dx":0.0183,"nx":116,"ny":114,"refTime":"2024-06-26T12:00:00:Z","depth":0,"parameterNumber":2,"parameterNumberName":"U-component_of_WINDS"},"data":[0.0,0.0,0.0,0.0,0.0,0.0,0.0,0.0,0.0,0.0,0.0,0.0,0.0,0.0,0.0,0.0,0.0,0.0,0.0,0.0,0.0,0.0,0.0,0.0,0.0,0.0,0.0,0.0,0.0,0.0,0.0,0.0,0.0,0.0,0.0,0.0,0.0,0.0,0.0,0.0,0.0,0.0,0.0,0.0,0.0,0.0,0.0,0.0,0.0,0.0,0.0,0.0,0.0,0.0,0.0,0.0,0.0,0.0,0.0,0.0,0.0,0.0,0.0,0.0,0.0,0.0,0.0,0.0,0.0,0.0,0.0,0.0,0.0,0.0,0.0,0.0,0.0,0.0,0.0,0.0,0.0,0.0,0.0,0.0,0.0,0.0,0.0,0.0,0.0,0.0,0.0,0.0,0.0,0.0,0.0,0.0,0.0,0.0,0.0,0.0,0.0,0.0,0.0,0.0,0.0,0.0,0.0,0.0,0.0,0.0,0.0,0.0,0.0,0.0,0.0,0.0,0.0,0.0,0.0,0.0,0.0,0.0,0.0,0.0,0.0,0.0,0.0,0.0,0.0,0.0,0.0,0.0,0.0,0.0,0.0,0.0,0.0,0.0,0.0,0.0,0.0,0.0,0.0,0.0,0.0,0.0,0.0,0.0,0.0,0.0,0.0,0.0,0.0,0.0,0.0,0.0,0.0,0.0,0.0,0.0,0.0,0.0,0.0,0.0,0.0,0.0,0.0,0.0,0.0,0.0,0.0,0.0,0.0,0.0,0.0,0.0,0.0,0.0,0.0,0.0,0.0,0.0,0.0,0.0,0.0,0.0,0.0,0.0,0.0,0.0,0.0,0.0,0.0,0.0,0.0,0.0,0.0,0.0,0.0,0.0,0.0,0.0,0.0,0.0,0.0,0.0,0.0,0.0,0.0,0.0,0.0,0.0,0.0,0.0,0.0,0.0,0.0,0.0,0.0,0.0,0.0,0.0,0.0,0.0,0.0,0.0,0.0,0.0,0.0,0.0,0.0,0.0,0.0,0.0,0.0,0.0,0.0,0.0,0.0,0.0,0.0,0.0,0.0,0.0,0.0,0.0,0.0,0.0,0.0,0.0,0.0,0.0,0.0,0.0,0.0,0.0,0.0,0.0,0.0,0.0,0.0,0.0,0.0,0.0,0.0,0.0,0.0,0.0,0.0,0.0,0.0,0.0,0.0,0.0,0.0,0.0,0.0,0.0,0.0,0.0,0.0,0.0,0.0,0.0,0.0,0.0,0.0,0.0,0.0,0.0,0.0,0.0,0.0,0.0,0.0,0.0,0.0,0.0,0.0,0.0,0.0,0.0,0.0,0.0,0.0,0.0,0.0,0.0,0.0,0.0,0.0,0.0,0.0,0.0,0.0,0.0,0.0,0.0,0.0,0.0,0.0,0.0,0.0,0.0,0.0,0.0,0.0,0.0,0.0,0.0,0.0,0.0,0.0,0.0,0.0,0.0,0.0,0.0,0.0,0.0,0.0,0.0,0.0,0.0,0.0,0.0,0.0,0.0,0.0,0.0,0.0,0.0,0.0,0.0,0.0,0.0,0.0,0.0,0.0,0.0,0.0,0.0,0.0,0.0,0.0,0.0,0.0,0.0,0.0,0.0,0.0,0.0,0.0,0.0,0.0,0.0,0.0,0.0,0.0,0.0,0.0,0.0,0.0,0.0,0.0,0.0,0.0,0.0,0.0,0.0,0.0,0.0,0.0,0.0,0.0,0.0,0.0,0.0,0.0,0.0,0.0,0.0,0.0,0.0,0.0,0.0,0.0,0.0,0.0,0.0,0.0,0.0,0.0,0.0,0.0,0.0,0.0,0.0,0.0,0.0,0.0,0.0,0.0,0.0,0.0,0.0,0.0,0.0,0.0,0.0,0.0,0.0,0.0,0.0,0.0,0.0,0.0,0.0,0.0,0.0,0.0,0.0,0.0,0.0,0.0,0.0,0.0,0.0,0.0,0.0,0.0,0.0,0.0,0.0,0.0,0.0,0.0,0.0,0.0,0.0,0.0,0.0,0.0,0.0,0.0,0.0,0.0,0.0,0.0,0.0,0.0,0.0,0.0,0.0,0.0,0.0,0.0,0.0,0.0,0.0,0.0,0.0,0.0,0.0,0.0,0.0,0.0,0.0,0.0,0.0,0.0,0.0,0.0,0.0,0.0,0.0,0.0,0.0,0.0,0.0,0.0,0.0,0.0,0.0,0.0,0.0,0.0,0.0,0.0,0.0,0.0,0.0,0.0,0.0,0.0,0.0,0.0,0.0,0.0,0.0,0.0,0.0,0.0,0.0,0.0,0.0,0.0,0.0,0.0,0.0,0.0,0.0,0.0,0.0,0.0,0.0,0.0,0.0,0.0,0.0,0.0,0.0,0.0,0.0,0.0,0.0,0.0,0.0,0.0,0.0,0.0,0.0,0.0,0.0,0.0,0.0,0.0,0.0,0.0,0.0,0.0,0.0,0.0,0.0,0.0,0.0,0.0,0.0,0.0,0.0,0.0,0.0,0.0,0.0,0.0,0.0,0.0,0.0,0.0,0.0,0.0,0.0,0.0,0.0,0.0,0.0,0.0,0.0,0.0,0.0,0.0,0.0,0.0,0.0,0.0,0.0,0.0,0.0,0.0,0.0,0.0,0.0,0.0,0.0,0.0,0.0,0.0,0.0,0.0,0.0,0.0,0.0,0.0,0.0,0.0,0.0,0.0,0.0,0.0,0.0,0.0,0.0,0.0,0.0,0.0,0.0,0.0,0.0,0.0,0.0,0.0,0.0,0.0,0.0,0.0,0.0,0.0,0.0,0.0,0.0,0.0,0.0,0.0,0.0,0.0,0.0,0.0,0.0,0.0,0.0,0.0,0.0,0.0,0.0,0.0,0.0,0.0,0.0,0.0,0.0,0.0,0.0,0.0,0.0,0.0,0.0,0.0,0.0,0.0,0.0,0.0,0.0,0.0,0.0,0.0,0.0,0.0,0.0,0.0,0.0,0.0,0.0,0.0,0.0,0.0,0.0,0.0,0.0,0.0,0.0,0.0,0.0,0.0,0.0,0.0,0.0,0.0,0.0,0.0,0.0,0.0,0.0,0.0,0.0,0.0,0.0,0.0,0.0,0.0,0.0,0.0,0.0,0.0,0.0,0.0,0.0,0.0,0.0,0.0,0.0,0.0,0.0,0.0,0.0,0.0,0.0,0.0,0.0,0.0,0.0,0.0,0.0,0.0,0.0,0.0,0.0,0.0,0.0,0.0,0.0,0.0,0.0,0.0,0.0,0.0,0.0,0.0,0.0,0.0,0.0,0.0,0.0,0.0,0.0,0.0,0.0,0.0,0.0,0.0,0.0,0.0,0.0,0.0,0.0,0.0,0.0,0.0,0.0,0.0,0.0,0.0,0.0,0.0,0.0,0.0,0.0,0.0,0.0,0.0,0.0,0.0,0.0,0.0,0.0,0.0,0.0,0.0,0.0,0.0,0.0,0.0,0.0,0.0,0.0,0.0,0.0,0.0,0.0,0.0,0.0,0.0,0.0,0.0,0.0,0.0,0.0,0.0,0.0,0.0,0.0,0.0,0.0,0.0,0.0,0.0,0.0,0.0,0.0,0.0,0.0,0.0,0.0,0.0,0.0,0.0,0.0,0.0,0.0,0.0,0.0,0.0,0.0,0.0,0.0,0.0,0.0,0.0,0.0,0.0,0.0,0.0,0.0,0.0,0.0,0.0,0.0,0.0,0.0,0.0,0.0,0.0,0.0,0.0,0.0,0.0,0.0,0.0,0.0,0.0,0.0,0.0,0.0,0.0,0.0,0.0,0.0,0.0,0.0,0.0,0.0,0.0,0.0,0.0,0.0,0.0,0.0,0.0,0.0,0.0,0.0,0.0,0.0,0.0,0.0,0.0,0.0,0.0,0.0,0.0,0.0,0.0,0.0,0.0,0.0,0.0,0.0,0.0,0.0,0.0,0.0,0.0,0.0,0.0,0.0,0.0,0.0,0.0,0.0,0.0,0.0,0.0,0.0,0.0,0.0,0.0,0.0,0.0,0.0,0.0,0.0,0.0,0.0,0.0,0.0,0.0,0.0,0.0,0.0,0.0,0.0,0.0,0.0,0.0,0.0,0.0,0.0,0.0,0.0,0.0,0.0,0.0,0.0,0.0,0.0,0.0,0.0,0.0,0.0,0.0,0.0,0.0,0.0,0.0,0.0,0.0,0.0,0.0,0.0,0.0,0.0,0.0,0.0,0.0,0.0,0.0,0.0,0.0,0.0,0.0,0.0,0.0,0.0,0.0,0.0,0.0,0.0,0.0,0.0,0.0,0.0,0.0,0.0,0.0,0.0,0.0,0.0,0.0,0.0,0.0,0.0,0.0,0.0,0.0,0.0,0.0,0.0,0.0,0.0,0.0,0.0,0.0,0.0,0.0,0.0,0.0,0.0,0.0,0.0,0.0,0.0,0.0,0.0,0.0,0.0,0.0,0.0,0.0,0.0,0.0,0.0,0.0,0.0,0.0,0.0,0.0,0.0,0.0,0.0,0.0,0.0,0.0,0.0,0.0,0.0,0.0,0.0,0.0,0.0,0.0,0.0,0.0,0.0,0.0,0.0,0.0,0.0,0.0,0.0,0.0,0.0,0.0,0.0,0.0,0.0,0.0,0.0,0.0,0.0,0.0,0.0,0.0,0.0,0.0,0.0,0.0,0.0,0.0,0.0,0.0,0.0,0.0,0.0,0.0,0.0,0.0,0.0,0.0,0.0,0.0,0.0,0.0,0.0,0.0,0.0,0.0,0.0,0.0,0.0,0.0,0.0,0.0,0.0,0.0,0.0,0.0,0.0,0.0,0.0,0.0,0.0,0.0,0.0,0.0,0.0,0.0,0.0,0.0,0.0,0.0,0.0,0.0,0.0,0.0,0.0,0.0,0.0,0.0,0.0,0.0,0.0,0.0,0.0,0.0,0.0,0.0,0.0,0.0,0.0,0.0,0.0,0.0,0.0,0.0,0.0,0.0,0.0,0.0,0.0,0.0,0.0,0.0,0.0,0.0,0.0,0.0,0.0,0.0,0.0,0.0,0.0,0.0,0.0,0.0,0.0,0.0,0.0,0.0,0.0,0.0,0.0,0.0,0.0,0.0,0.0,0.0,0.0,0.0,0.0,0.0,0.0,0.0,0.0,0.0,0.0,0.0,0.0,0.0,0.0,0.0,0.0,0.0,0.0,0.0,0.0,0.0,0.0,0.0,0.0,0.0,0.0,0.0,0.0,0.0,0.0,0.0,0.0,0.0,0.0,0.0,0.0,0.0,0.0,0.0,0.0,0.0,0.0,0.0,0.0,0.0,0.0,0.0,0.0,0.0,0.0,0.0,0.0,0.0,0.0,0.0,0.0,0.0,0.0,0.0,0.0,0.0,0.0,0.0,0.0,0.0,0.0,0.0,0.0,0.0,0.0,0.0,0.0,0.0,0.0,0.0,0.0,0.0,0.0,0.0,0.0,0.0,0.0,0.0,0.0,0.0,0.0,0.0,0.0,0.0,0.0,0.0,0.0,0.0,0.0,0.0,0.0,0.0,0.0,0.0,0.0,0.0,0.0,0.0,0.0,0.0,0.0,0.0,0.0,0.0,0.0,0.0,0.0,0.0,0.0,0.0,0.0,0.0,0.0,0.0,0.0,0.0,0.0,0.0,0.0,0.0,0.0,0.0,0.0,0.0,0.0,0.0,0.0,0.0,0.0,0.0,0.0,0.0,0.0,0.0,0.0,0.0,0.0,0.0,0.0,0.0,0.0,0.0,0.0,0.0,0.0,0.0,0.0,0.0,0.0,0.0,0.0,0.0,0.0,0.0,0.0,0.0,0.0,0.0,0.0,0.0,0.0,0.0,0.0,0.0,0.0,0.0,0.0,0.0,0.0,0.0,0.0,0.0,0.0,0.0,0.0,0.0,0.0,0.0,0.0,0.0,0.0,0.0,0.0,0.0,0.0,0.0,0.0,0.0,0.0,0.0,0.0,0.0,0.0,0.0,0.0,0.0,0.0,0.0,0.0,0.0,0.0,0.0,0.0,0.0,0.0,0.0,0.0,0.0,0.0,0.0,0.0,-4.3252,0.0,0.0,0.0,0.0,0.0,0.0,0.0,0.0,0.0,0.0,0.0,0.0,0.0,0.0,0.0,0.0,0.0,0.0,0.0,0.0,0.0,0.0,0.0,0.0,-2.4762,-2.4842,-2.4946,-2.5224,-2.5549,-2.5936,0.0,0.0,0.0,0.0,0.0,-2.7299,-2.7299,-2.7299,-2.7299,-2.7233,-2.7185,-2.7154,-2.7154,-2.7202,-2.7299,0.0,0.0,0.0,0.0,0.0,0.0,0.0,0.0,0.0,0.0,0.0,0.0,0.0,0.0,0.0,0.0,0.0,0.0,0.0,0.0,0.0,0.0,0.0,0.0,0.0,0.0,0.0,0.0,0.0,0.0,0.0,0.0,0.0,0.0,0.0,0.0,0.0,0.0,0.0,0.0,0.0,0.0,0.0,0.0,0.0,0.0,0.0,0.0,0.0,0.0,0.0,0.0,0.0,0.0,0.0,0.0,0.0,0.0,0.0,0.0,0.0,0.0,0.0,0.0,0.0,0.0,0.0,0.0,0.0,0.0,0.0,-4.4516,0.0,0.0,0.0,0.0,0.0,0.0,0.0,0.0,0.0,0.0,0.0,0.0,0.0,0.0,0.0,0.0,0.0,0.0,0.0,0.0,0.0,-2.3082,-2.4449,-2.4686,-2.4782,-2.4802,-2.5182,-2.553,-2.5879,0.0,0.0,0.0,0.0,-2.7251,-2.7251,-2.7251,-2.7303,-2.7441,-2.7462,-2.7432,-2.7384,-2.7384,0.0,0.0,-2.7355,0.0,0.0,0.0,0.0,0.0,0.0,0.0,0.0,0.0,0.0,0.0,0.0,0.0,0.0,0.0,0.0,0.0,0.0,0.0,0.0,0.0,0.0,0.0,0.0,0.0,0.0,0.0,0.0,0.0,0.0,0.0,0.0,0.0,0.0,0.0,0.0,0.0,0.0,0.0,0.0,0.0,0.0,0.0,0.0,0.0,0.0,0.0,0.0,0.0,0.0,0.0,0.0,0.0,0.0,0.0,0.0,0.0,0.0,0.0,0.0,0.0,0.0,0.0,-4.8752,-4.8889,-4.9171,-4.9111,-4.8846,-4.8402,-4.7434,-4.6106,-4.4609,-4.4732,0.0,0.0,0.0,0.0,0.0,0.0,0.0,0.0,0.0,0.0,0.0,0.0,0.0,0.0,0.0,0.0,0.0,0.0,0.0,-2.2968,-2.4363,-2.4584,-2.4666,-2.4782,-2.5182,-2.553,-2.5879,0.0,0.0,0.0,-2.6975,-2.704,-2.704,-2.704,-2.7348,-2.7981,-2.8613,-2.892,-2.892,0.0,0.0,0.0,-2.7605,-2.7072,0.0,0.0,0.0,0.0,0.0,0.0,0.0,0.0,0.0,0.0,0.0,0.0,0.0,0.0,0.0,0.0,0.0,0.0,0.0,0.0,0.0,0.0,0.0,0.0,0.0,0.0,0.0,0.0,0.0,0.0,0.0,0.0,0.0,0.0,0.0,0.0,0.0,0.0,0.0,0.0,0.0,0.0,-3.6716,-3.7855,0.0,0.0,0.0,0.0,0.0,0.0,0.0,0.0,0.0,0.0,0.0,0.0,0.0,-4.8459,-4.9737,-4.9825,-4.9825,-4.9731,-5.0297,-5.0462,-5.0296,-5.0444,-5.027,-4.9825,-4.9325,0.0,-4.6837,-4.5391,0.0,0.0,0.0,0.0,0.0,0.0,0.0,0.0,0.0,0.0,0.0,0.0,0.0,0.0,0.0,0.0,0.0,0.0,0.0,0.0,0.0,-2.4508,-2.4609,-2.4686,-2.5127,-2.5511,0.0,0.0,0.0,-2.6775,-2.6925,-2.6991,-2.6991,-2.7401,-2.7964,-2.8662,-2.8986,-2.9121,0.0,0.0,0.0,0.0,0.0,0.0,0.0,0.0,0.0,0.0,0.0,0.0,0.0,0.0,0.0,0.0,0.0,0.0,0.0,0.0,0.0,0.0,0.0,0.0,0.0,0.0,0.0,0.0,0.0,0.0,0.0,0.0,0.0,0.0,0.0,0.0,0.0,0.0,0.0,0.0,0.0,0.0,0.0,0.0,0.0,0.0,0.0,-3.6305,-3.8101,-3.9471,-3.9961,-4.0522,0.0,0.0,0.0,0.0,0.0,0.0,0.0,0.0,0.0,-4.8525,-4.9846,-5.0834,-5.1479,-5.2299,-5.2682,-5.2605,-5.2822,-5.277,-5.2457,-5.1918,-5.1425,-5.0875,-4.9997,-4.9154,-4.8306,-4.7046,-4.6309,-4.5869,0.0,0.0,0.0,0.0,-4.4823,-4.4823,0.0,0.0,0.0,0.0,0.0,0.0,0.0,0.0,0.0,0.0,0.0,0.0,-2.4241,-2.4467,-2.4569,-2.4569,0.0,0.0,0.0,0.0,0.0,-2.6657,-2.6825,-2.6908,-2.6908,-2.7862,-2.8661,0.0,0.0,0.0,0.0,0.0,0.0,0.0,0.0,0.0,0.0,0.0,0.0,0.0,0.0,0.0,0.0,0.0,0.0,0.0,0.0,0.0,0.0,0.0,0.0,0.0,0.0,0.0,0.0,0.0,0.0,0.0,0.0,0.0,0.0,0.0,0.0,0.0,0.0,0.0,0.0,0.0,0.0,0.0,0.0,0.0,0.0,0.0,0.0,0.0,0.0,-3.8302,-3.9639,-4.1088,-4.1615,-4.2123,0.0,0.0,0.0,0.0,0.0,0.0,-4.7308,-4.8771,-4.9691,-4.9891,-5.1801,-5.2915,-5.3114,-5.4195,-5.4767,-5.4767,-5.4618,-5.4407,-5.406,-5.2936,-5.2099,-5.1494,-5.024,-4.95,-4.9087,-4.8254,-4.7581,-4.7056,-4.687,-4.6786,-4.6786,-4.6786,-4.6786,-4.6786,0.0,0.0,0.0,0.0,0.0,0.0,0.0,0.0,0.0,0.0,0.0,-2.3563,0.0,0.0,0.0,0.0,0.0,0.0,0.0,0.0,0.0,-2.6589,-2.6691,-2.6725,-2.6725,-2.8198,0.0,0.0,0.0,0.0,0.0,0.0,0.0,0.0,0.0,0.0,0.0,0.0,0.0,0.0,0.0,0.0,0.0,0.0,0.0,0.0,0.0,0.0,0.0,0.0,0.0,0.0,0.0,0.0,0.0,0.0,0.0,0.0,0.0,0.0,0.0,0.0,0.0,0.0,0.0,0.0,0.0,0.0,0.0,0.0,0.0,0.0,0.0,0.0,0.0,0.0,0.0,0.0,0.0,-4.2684,-4.4151,0.0,0.0,0.0,0.0,-4.6398,-4.7844,-4.8749,-4.8786,-5.0307,-5.1543,-5.2281,-5.3186,-5.4019,-5.478,-5.4846,-5.4882,-5.4882,-5.4767,-5.4582,-5.4317,-5.3015,-5.2081,-5.1442,-5.0223,-4.9441,-4.8951,-4.8223,-4.7872,-4.78,-4.7073,-4.6786,-4.6786,-4.6786,-4.6786,-4.6786,0.0,0.0,0.0,-2.035,-2.0304,-2.0304,-2.0304,-2.1242,-2.2028,-2.2274,-2.3255,0.0,0.0,0.0,0.0,0.0,0.0,0.0,0.0,0.0,0.0,-2.6537,-2.664,-2.7165,-2.8163,-2.9178,0.0,0.0,0.0,0.0,0.0,0.0,0.0,0.0,0.0,0.0,0.0,0.0,0.0,0.0,0.0,0.0,0.0,0.0,0.0,0.0,0.0,0.0,0.0,0.0,0.0,0.0,0.0,0.0,0.0,0.0,0.0,0.0,0.0,0.0,0.0,0.0,0.0,0.0,0.0,0.0,0.0,0.0,0.0,0.0,0.0,0.0,0.0,0.0,0.0,0.0,0.0,0.0,0.0,-4.4277,-4.4947,0.0,-4.6739,-4.7102,-4.7699,-4.8731,-4.9818,-5.0669,-5.1194,-5.2245,-5.3204,-5.4019,-5.478,-5.5323,-5.5613,-5.612,-5.6373,-5.6373,-5.6248,-5.6096,-5.5887,-5.4545,-5.3387,-5.2334,-5.1006,-4.9915,-4.909,-4.8744,-4.8612,-4.8595,-4.8325,-4.8223,-4.8223,-4.8223,-4.8223,-4.8223,-2.0304,-2.0304,0.0,-2.0304,-2.0304,-2.0304,-2.0304,-2.1442,-2.2305,-2.2305,-2.3471,0.0,0.0,0.0,0.0,0.0,0.0,0.0,0.0,0.0,-2.6241,-2.652,-2.6876,-2.7672,-2.8976,0.0,0.0,0.0,0.0,0.0,0.0,0.0,0.0,0.0,0.0,0.0,0.0,0.0,0.0,0.0,0.0,0.0,-2.7397,0.0,0.0,0.0,0.0,0.0,0.0,0.0,0.0,0.0,0.0,0.0,0.0,0.0,0.0,0.0,0.0,0.0,0.0,0.0,0.0,0.0,0.0,0.0,0.0,0.0,0.0,0.0,0.0,0.0,0.0,0.0,0.0,0.0,0.0,0.0,-4.4603,-4.5943,-4.6595,-4.7337,-4.8405,-4.8768,-4.9365,-5.0416,-5.1484,-5.2335,-5.2878,-5.3892,-5.4725,-5.5251,-5.6011,-5.6391,-5.6391,-5.6935,-5.7188,-5.7188,-5.7061,-5.6899,-5.6697,-5.5399,-5.4187,-5.3061,-5.1476,-5.0321,-4.9494,-4.9134,-4.9001,-4.9001,-4.9001,-4.9001,-4.9001,-4.9001,-4.9001,-4.9001,-2.0304,-2.0304,-2.0304,-2.0304,-2.0304,-2.032,-2.0335,-2.1442,-2.232,-2.2336,-2.3471,0.0,0.0,0.0,0.0,0.0,0.0,0.0,0.0,-2.5846,-2.6205,-2.6605,-2.74,-2.8196,-2.9027,0.0,0.0,0.0,0.0,0.0,0.0,0.0,0.0,0.0,0.0,0.0,0.0,0.0,0.0,0.0,0.0,0.0,-2.8066,0.0,0.0,0.0,0.0,0.0,0.0,0.0,0.0,0.0,0.0,0.0,0.0,0.0,0.0,0.0,0.0,0.0,0.0,0.0,0.0,0.0,0.0,0.0,0.0,0.0,0.0,0.0,0.0,0.0,0.0,0.0,0.0,0.0,-4.3086,-4.5133,-4.6848,-4.7681,-4.9148,-5.0112,-5.0148,-5.0832,-5.1303,-5.1357,-5.2824,-5.3729,-5.3766,-5.5178,-5.6011,-5.6066,-5.6808,-5.7206,-5.7243,-5.7206,-5.7188,-5.7188,-5.7079,-5.6847,-5.6564,-5.538,-5.4371,-5.3511,-5.1645,-5.055,-5.0033,-4.9306,-4.9001,-4.9001,-4.9001,-4.9001,-4.9001,-4.9001,-4.9001,-4.9001,-2.0304,-2.0304,-2.0304,-2.0304,-2.0304,-2.0474,-2.0949,-2.175,-2.2455,-2.2963,0.0,0.0,0.0,0.0,0.0,0.0,0.0,0.0,0.0,0.0,-2.6545,-2.7433,-2.8229,0.0,0.0,0.0,0.0,0.0,0.0,0.0,0.0,0.0,0.0,0.0,0.0,0.0,0.0,0.0,0.0,0.0,0.0,0.0,-2.8818,0.0,0.0,0.0,0.0,0.0,0.0,0.0,0.0,0.0,0.0,0.0,0.0,0.0,0.0,0.0,0.0,0.0,0.0,0.0,0.0,0.0,0.0,0.0,0.0,0.0,0.0,0.0,0.0,0.0,0.0,0.0,-4.3522,-4.5353,-4.553,-4.6615,-4.7898,-4.9275,-4.984,-5.0347,-5.0904,-5.1158,-5.1774,-5.2951,-5.3458,-5.4182,-5.5305,-5.5758,-5.6518,-5.7695,-5.7387,-5.7478,-5.8058,-5.7496,-5.7188,-5.7206,-5.6977,-5.6768,-5.6555,-5.5706,-5.4676,-5.3528,-5.2138,-5.0969,-5.0033,-4.9306,-4.9001,-4.9001,-4.9001,-4.9001,-4.9001,-4.9001,-4.9001,-4.9001,-2.0304,-2.0304,-2.0304,-2.0304,-2.0518,-2.0841,-2.1242,-2.212,-2.2855,-2.324,0.0,0.0,0.0,0.0,0.0,0.0,0.0,0.0,-2.5597,-2.6343,-2.7087,0.0,0.0,0.0,0.0,0.0,0.0,0.0,0.0,0.0,0.0,0.0,0.0,0.0,0.0,0.0,0.0,0.0,0.0,0.0,0.0,0.0,-2.9532,-2.8799,-2.8561,-2.8528,-2.7607,-2.7216,-2.701,-2.6412,0.0,0.0,0.0,0.0,0.0,0.0,0.0,0.0,0.0,0.0,0.0,0.0,0.0,0.0,0.0,0.0,0.0,0.0,0.0,0.0,0.0,0.0,0.0,0.0,-4.5444,-4.7397,-4.8369,-4.8912,-4.9564,-5.0488,-5.0909,-5.1285,-5.1756,-5.21,-5.2679,-5.3639,-5.4291,-5.5051,-5.5939,-5.6319,-5.708,-5.8365,-5.7623,-5.7587,-5.8402,-5.7605,-5.7188,-5.7206,-5.7003,-5.6768,-5.6573,-5.589,-5.5032,-5.4,-5.278,-5.1619,-5.0507,-4.9763,-4.9272,0.0,0.0,0.0,0.0,0.0,-4.9001,-4.9001,-2.0412,-2.0412,-2.0443,-2.052,-2.1011,-2.1442,-2.1504,-2.2551,-2.3332,-2.3394,0.0,0.0,0.0,0.0,0.0,0.0,0.0,0.0,0.0,0.0,0.0,0.0,0.0,0.0,0.0,0.0,0.0,0.0,0.0,0.0,0.0,0.0,0.0,0.0,0.0,0.0,0.0,0.0,0.0,0.0,0.0,0.0,-3.0241,-2.9474,-2.9202,-2.9099,-2.8123,-2.7587,-2.7219,-2.628,0.0,0.0,0.0,0.0,0.0,0.0,0.0,0.0,0.0,0.0,0.0,0.0,0.0,0.0,0.0,0.0,0.0,0.0,0.0,0.0,0.0,0.0,0.0,0.0,-4.7034,-4.8858,-5.0995,-5.1375,-5.143,-5.143,-5.2063,-5.2498,-5.2498,-5.3222,-5.3748,-5.3838,-5.5178,-5.6029,-5.612,0.0,0.0,0.0,0.0,-5.7587,-5.8402,-5.7605,-5.7188,-5.7188,-5.7061,-5.6873,-5.6573,-5.5975,-5.5331,-5.4645,-5.3418,-5.2252,-5.115,-5.0388,-4.9661,-4.9001,-4.9001,-4.9001,-4.9001,-4.9001,-4.9001,-4.9001,-2.1103,-2.1103,-2.1273,-2.1827,-2.2028,-2.2289,-2.2825,-2.3132,-2.3486,-2.404,-2.4225,0.0,0.0,0.0,0.0,0.0,0.0,0.0,0.0,0.0,0.0,0.0,0.0,0.0,0.0,0.0,0.0,0.0,0.0,0.0,0.0,0.0,0.0,0.0,0.0,0.0,0.0,0.0,0.0,0.0,0.0,0.0,-3.0987,-3.0146,-2.9854,-2.9749,-2.8598,-2.7741,-2.7078,-2.6549,-2.5976,-2.5454,-2.5375,0.0,0.0,0.0,0.0,0.0,0.0,0.0,0.0,0.0,0.0,0.0,0.0,0.0,0.0,0.0,0.0,0.0,0.0,0.0,0.0,-4.7155,-4.9176,-5.076,-5.1212,-5.1846,-5.2263,-5.2263,-5.2408,-5.2498,-5.2498,-5.3222,-5.3965,-5.4617,-5.5504,-5.6265,-5.6935,-5.7116,-5.7569,-5.8365,-5.7623,-5.7587,-5.8402,-5.7605,-5.7188,-5.7188,0.0,0.0,-5.6573,-5.5975,-5.5331,-5.4645,-5.3418,-5.2252,-5.115,-5.0388,-4.9661,-4.9001,-4.9001,-4.9001,-4.9001,-4.9001,-4.9001,-4.9001,-2.2224,-2.2028,-2.1904,-2.2243,-2.2582,-2.2902,-2.324,-2.3579,-2.3933,-2.4256,-2.4302,0.0,0.0,0.0,0.0,0.0,0.0,0.0,0.0,0.0,0.0,0.0,0.0,0.0,0.0,0.0,0.0,0.0,0.0,0.0,0.0,0.0,0.0,0.0,0.0,0.0,0.0,0.0,0.0,0.0,0.0,0.0,-3.1201,-3.0692,-3.046,-3.0205,-2.8734,-2.7833,-2.7192,-2.6149,-2.5527,-2.5265,-2.5556,-2.5889,-2.63,0.0,0.0,0.0,0.0,0.0,0.0,0.0,0.0,0.0,0.0,0.0,0.0,0.0,0.0,-4.1918,-4.3299,0.0,-4.7729,-4.8784,-5.0279,-5.143,-5.1828,-5.2245,-5.2498,-5.2498,-5.2498,-5.2498,-5.2498,-5.3585,-5.4472,-5.487,-5.5957,-5.6772,-5.717,-5.7188,-5.7569,-5.8365,-5.7623,-5.7587,-5.8402,-5.7605,-5.7188,-5.7188,-5.7061,-5.6873,-5.6573,-5.5975,-5.5331,-5.4662,-5.3813,-5.2796,-5.1674,-5.0557,-4.9661,-4.9001,-4.9001,-4.9001,-4.9001,-4.9001,-4.9001,-4.9001,-2.3363,-2.3055,-2.2686,-2.2686,-2.3132,-2.3486,-2.3486,-2.3948,-2.4302,-2.4302,-2.4302,-2.4056,-2.3363,-2.3302,-2.3341,0.0,0.0,0.0,0.0,0.0,0.0,0.0,0.0,0.0,0.0,0.0,0.0,0.0,0.0,0.0,0.0,0.0,0.0,0.0,0.0,0.0,0.0,0.0,0.0,0.0,0.0,0.0,-3.1173,-3.0903,-3.0778,-3.0525,-2.8916,-2.8057,-2.7445,-2.5902,-2.5238,-2.5159,-2.571,-2.6262,-2.6867,-2.7614,-2.8325,0.0,0.0,0.0,0.0,0.0,0.0,0.0,0.0,0.0,-3.8119,-3.9917,-4.1887,-4.3802,-4.5492,-4.7268,-4.8894,-5.0134,-5.0995,-5.1756,-5.2408,-5.2498,-5.2498,-5.2498,-5.2498,-5.2498,-5.2498,-5.3965,-5.4907,-5.4907,-5.6337,-5.7188,-5.7188,-5.7188,-5.7496,-5.8148,-5.7532,-5.7514,-5.8166,-5.7514,-5.7188,-5.7188,-5.7061,-5.6873,-5.6573,-5.5975,-5.5348,-5.4662,-5.3971,-5.3071,-5.1978,-5.0642,-4.9661,-4.9001,-4.9001,-4.9001,-4.9001,-4.9001,-4.9001,-4.9001,-2.4071,-2.4133,-2.4087,-2.4087,-2.4148,-2.4194,-2.4194,-2.4256,-2.4302,-2.4302,-2.4302,-2.4056,-2.3363,-2.3302,-2.3322,-2.3322,0.0,0.0,0.0,0.0,0.0,0.0,0.0,0.0,0.0,0.0,0.0,0.0,0.0,0.0,0.0,0.0,0.0,0.0,0.0,0.0,0.0,0.0,0.0,0.0,0.0,0.0,-3.1123,-3.0314,-3.0384,-3.073,-2.9571,-2.8677,-2.7865,-2.6719,-2.5908,-2.5355,-2.5374,-2.6038,-2.683,-2.7106,0.0,-2.8943,-2.9158,-3.0347,-3.1903,-3.3475,-3.4985,-3.6135,0.0,0.0,-4.0527,-4.177,-4.3604,-4.5548,-4.7298,-4.8982,-5.0368,-5.1058,-5.1828,-5.2389,-5.248,-5.2498,-5.2498,-5.2498,-5.2498,-5.2498,-5.2498,-5.3965,-5.4907,-5.4907,-5.6337,-5.7188,-5.7188,-5.7188,-5.7243,-5.7333,-5.7243,-5.7243,-5.7333,-5.7243,-5.7188,-5.7188,-5.7061,-5.6873,-5.6573,-5.5993,-5.5336,-5.4614,-5.3132,-5.2045,-5.1268,-5.0439,-4.9661,-4.9001,-4.9001,-4.9001,-4.9001,-4.9001,-4.9001,-4.9001,-2.4235,-2.4302,-2.4302,-2.4302,-2.4302,-2.4302,-2.4302,-2.4302,-2.4302,-2.4302,-2.4302,-2.4056,-2.3363,-2.3302,-2.3302,-2.3302,-2.3958,0.0,0.0,0.0,0.0,0.0,0.0,0.0,0.0,0.0,0.0,0.0,0.0,0.0,0.0,0.0,0.0,0.0,0.0,0.0,0.0,0.0,0.0,0.0,0.0,0.0,-3.1332,-3.097,-3.069,-3.0282,-2.8669,-2.7841,0.0,0.0,-2.5902,-2.5651,-2.6047,-2.6545,-2.7186,-2.8238,-2.9087,0.0,-3.1048,-3.2226,0.0,0.0,-3.599,-3.7342,-3.7889,-3.9413,-4.1331,-4.3435,-4.4622,-4.611,-4.8753,-4.9795,-5.0646,0.0,-5.2281,-5.2498,-5.2498,-5.2498,-5.2498,-5.2498,-5.2498,-5.2498,-5.2498,-5.3965,-5.4907,-5.4907,-5.6337,-5.7188,-5.7188,-5.7188,-5.7188,-5.7188,-5.7188,-5.7188,-5.7188,-5.7188,-5.7188,-5.7206,-5.6959,-5.6742,-5.6465,-5.585,-5.5126,-5.4237,-5.3394,-5.2317,-5.12,-5.0879,-5.005,-4.9001,-4.9001,-4.9001,-4.9001,-4.9001,-4.9001,-4.9001,-2.4302,-2.4302,-2.4302,-2.4302,-2.4302,-2.4302,-2.4302,-2.4302,-2.4302,-2.4302,-2.4302,-2.4117,-2.3625,-2.3579,-2.3579,-2.3579,-2.4025,-2.4636,0.0,0.0,0.0,0.0,0.0,0.0,0.0,0.0,0.0,0.0,0.0,0.0,0.0,0.0,0.0,0.0,0.0,0.0,0.0,0.0,0.0,0.0,0.0,0.0,-3.1481,-3.1259,-3.0658,-2.973,-2.8248,-2.7544,0.0,0.0,-2.601,-2.5985,-2.6503,-2.7078,-2.7777,-2.9034,-3.0099,-3.1259,-3.2812,0.0,0.0,-3.5576,-3.6963,-3.8312,-3.9223,-4.0373,-4.1866,-4.4227,-4.5066,-4.6223,-4.9086,-4.9919,-5.0639,-5.1941,-5.2353,-5.2498,-5.2498,-5.2498,-5.2498,-5.2498,-5.2498,-5.2498,-5.2498,-5.3965,-5.4907,-5.4907,-5.6337,-5.7188,-5.7188,-5.7188,-5.7188,-5.7188,-5.7188,-5.7188,-5.7188,-5.7188,-5.7188,-5.7206,-5.6977,-5.6715,-5.641,-5.5631,-5.4834,-5.4028,-5.3414,-5.2435,-5.1168,-5.0997,-5.0152,-4.9001,-4.9001,-4.9001,-4.9001,-4.9001,-4.9001,-4.9001,-2.4302,-2.4302,-2.4302,-2.4302,-2.4302,-2.4302,-2.4302,-2.4302,-2.4302,-2.4302,-2.4302,-2.4302,-2.4271,-2.4271,-2.4271,-2.4271,-2.4302,-2.4594,-2.525,-2.5333,0.0,0.0,0.0,0.0,0.0,0.0,0.0,0.0,0.0,0.0,0.0,0.0,0.0,0.0,0.0,0.0,0.0,0.0,0.0,0.0,0.0,0.0,-3.1413,-3.0716,-2.9928,-2.921,-2.9087,0.0,0.0,0.0,-2.6487,-2.6366,-2.6329,-2.7401,0.0,-2.8792,-3.0666,0.0,0.0,0.0,-3.5525,-3.7064,-3.8205,-3.9203,-4.0045,-4.1308,-4.2568,-4.37,-4.4767,-4.6033,-4.7751,-4.9255,-5.0457,-5.1217,-5.1991,-5.2498,-5.2498,-5.2498,-5.2498,-5.2498,-5.2498,-5.2498,0.0,-5.3965,-5.4907,-5.4907,-5.6337,-5.7188,-5.7188,-5.7188,-5.7188,-5.7188,-5.7188,-5.7188,-5.7188,-5.7188,-5.7188,-5.7188,-5.7079,-5.6847,-5.6528,-5.5301,-5.4523,-5.4121,-5.2885,-5.1911,-5.115,-5.0422,-4.9678,-4.9001,-4.9001,-4.9001,-4.9001,-4.9001,-4.9001,-4.9001,-2.4302,-2.4302,-2.4302,-2.4302,-2.4302,-2.4302,-2.4302,-2.4302,-2.4302,-2.4302,-2.4302,0.0,0.0,0.0,0.0,0.0,-2.4302,-2.441,-2.4604,-2.505,0.0,0.0,0.0,0.0,0.0,0.0,0.0,0.0,0.0,0.0,0.0,0.0,0.0,0.0,0.0,0.0,0.0,0.0,0.0,0.0,0.0,0.0,-3.1673,-3.1415,-3.0865,-3.0125,0.0,0.0,0.0,0.0,0.0,0.0,-2.6708,0.0,0.0,-3.0232,0.0,-3.3158,0.0,0.0,-3.6201,-3.7357,-3.8703,-3.9892,-4.0486,-4.1511,-4.2644,-4.3913,-4.4447,-4.5378,-4.7587,-4.8325,-4.9204,-5.0999,-5.152,-5.1882,-5.2426,-5.2498,-5.2498,-5.2498,-5.2498,0.0,0.0,0.0,0.0,-5.4907,-5.6337,-5.7188,-5.7188,-5.7188,-5.7188,-5.7188,-5.7188,-5.7188,-5.7188,-5.7188,-5.7188,-5.7206,-5.6873,-5.6528,-5.6116,-5.5122,-5.4523,-5.4121,-5.2852,-5.1894,-5.115,-5.0388,-4.9661,-4.9001,-4.9001,-4.9001,-4.9001,-4.9001,-4.9001,-4.9001,-2.4302,-2.4302,-2.4302,-2.4302,-2.4302,0.0,0.0,0.0,0.0,0.0,0.0,0.0,0.0,0.0,0.0,0.0,0.0,-2.4302,-2.4302,0.0,0.0,0.0,0.0,0.0,0.0,0.0,0.0,0.0,0.0,0.0,0.0,0.0,0.0,0.0,0.0,0.0,0.0,0.0,0.0,0.0,0.0,0.0,-3.18,-3.18,-3.1334,0.0,0.0,0.0,0.0,0.0,0.0,0.0,0.0,0.0,0.0,-3.1482,-3.2693,-3.3593,-3.4852,-3.5939,-3.6964,-3.7867,-3.9129,-4.0346,-4.1039,-4.1813,-4.2693,-4.3683,-4.4123,-4.4945,-4.6844,-4.7547,-4.8478,-5.0554,-5.1149,-5.1574,-5.2389,-5.2752,-5.2933,-5.2933,-5.3186,-5.3566,0.0,0.0,0.0,-5.5287,-5.6482,-5.7188,-5.7188,-5.7188,-5.7188,-5.7188,-5.7188,-5.7188,-5.7188,-5.7188,-5.7188,-5.7206,-5.6847,-5.6447,-5.606,-5.5182,-5.4461,-5.3854,-5.2493,-5.1488,-5.076,-5.0016,-4.9424,-4.9001,-4.9001,-4.9001,-4.9001,-4.9001,-4.9001,-4.9001,-2.4302,-2.4302,-2.4302,0.0,0.0,0.0,0.0,0.0,0.0,0.0,0.0,0.0,0.0,0.0,0.0,0.0,0.0,0.0,0.0,0.0,0.0,0.0,0.0,0.0,-2.6373,-2.7155,0.0,0.0,0.0,0.0,0.0,0.0,0.0,0.0,0.0,0.0,0.0,0.0,0.0,0.0,0.0,0.0,-3.18,-3.18,0.0,0.0,0.0,0.0,0.0,0.0,0.0,0.0,0.0,0.0,0.0,0.0,-3.3559,-3.4337,-3.5111,-3.6425,-3.7776,-3.8646,-3.9613,-4.063,-4.1672,-4.2269,-4.2688,-4.3049,-4.3761,-4.4637,-4.5607,0.0,-4.8226,-4.9916,-5.0772,-5.1538,-5.2426,-5.3222,-5.3729,0.0,0.0,0.0,0.0,0.0,0.0,-5.6047,0.0,-5.7188,-5.7188,-5.7188,-5.7188,-5.7188,-5.7188,-5.7188,-5.7188,-5.7188,-5.7206,-5.7206,-5.6925,-5.6635,-5.6328,-5.5343,-5.4339,-5.3304,-5.1828,-5.0777,-5.0033,-4.9306,-4.9001,-4.9001,-4.9001,-4.9001,-4.9001,-4.9001,-4.9001,-4.9001,0.0,0.0,0.0,0.0,0.0,0.0,0.0,0.0,0.0,0.0,0.0,0.0,0.0,0.0,0.0,0.0,0.0,0.0,0.0,0.0,0.0,0.0,0.0,0.0,0.0,0.0,0.0,0.0,0.0,0.0,0.0,0.0,0.0,0.0,0.0,0.0,0.0,0.0,0.0,0.0,0.0,0.0,-3.18,0.0,0.0,0.0,0.0,0.0,0.0,0.0,0.0,0.0,0.0,0.0,-3.259,0.0,0.0,-3.5197,-3.6563,-3.7616,-3.8558,-3.9519,-4.0441,-4.1314,-4.2026,-4.2409,-4.2707,-4.3087,-4.3433,-4.4053,-4.5404,0.0,0.0,-4.9684,-5.0275,0.0,-5.3114,-5.3566,0.0,-5.4526,0.0,-5.5124,-5.5667,-5.5884,0.0,0.0,-5.708,-5.7188,-5.7188,-5.7188,-5.7188,-5.7188,-5.7188,-5.7188,-5.7188,-5.7188,-5.7156,-5.7054,-5.6768,-5.642,-5.6003,-5.5152,-5.4171,-5.3118,-5.1796,-5.0777,-5.0033,-4.9306,-4.9001,-4.9001,-4.9001,-4.9001,-4.9001,-4.9001,-4.9001,-4.9001,0.0,0.0,0.0,0.0,0.0,0.0,0.0,0.0,0.0,0.0,0.0,0.0,0.0,0.0,0.0,0.0,0.0,0.0,0.0,0.0,0.0,0.0,0.0,0.0,0.0,0.0,0.0,0.0,0.0,0.0,0.0,0.0,0.0,0.0,0.0,0.0,0.0,0.0,0.0,0.0,0.0,0.0,0.0,0.0,0.0,0.0,0.0,0.0,0.0,0.0,0.0,-3.1762,-3.2502,-3.298,-3.349,-3.471,0.0,-3.5809,-3.7081,-3.82,-3.9158,-3.9839,-4.0715,-4.1542,-4.2082,-4.2123,-4.2294,-4.3032,-4.303,0.0,-4.5332,-4.564,0.0,0.0,0.0,0.0,-5.3367,-5.4001,-5.4508,0.0,-5.5685,0.0,-5.6482,-5.6518,-5.6699,0.0,-5.7188,-5.7188,-5.7188,-5.7188,-5.7188,-5.7188,-5.7188,-5.7188,-5.7188,-5.7138,-5.7061,-5.7003,-5.6564,-5.6182,-5.5751,-5.4604,-5.3497,-5.2415,0.0,-5.0304,-4.9593,-4.9171,-4.9001,-4.9001,-4.9001,-4.9001,-4.9001,-4.9001,-4.9001,-4.9001,0.0,0.0,0.0,0.0,0.0,0.0,0.0,0.0,0.0,-2.442,0.0,0.0,0.0,0.0,0.0,0.0,0.0,0.0,0.0,0.0,0.0,0.0,0.0,0.0,0.0,0.0,0.0,0.0,0.0,0.0,0.0,0.0,0.0,0.0,0.0,0.0,0.0,0.0,0.0,0.0,0.0,0.0,0.0,0.0,0.0,0.0,0.0,0.0,0.0,0.0,-3.3137,-3.335,-3.3985,-3.423,-3.4438,-3.5121,-3.5788,-3.6471,-3.734,-3.8511,-3.957,-3.9945,-4.0694,-4.148,-4.1835,-4.1743,-4.1843,-4.2832,0.0,-4.3045,-4.5224,-4.5605,-4.6527,-4.9389,0.0,-5.0904,-5.3222,-5.4327,-5.5178,-5.5903,-5.6699,-5.7188,-5.7188,-5.7188,-5.7188,-5.7188,-5.7188,-5.7188,-5.7188,-5.7188,-5.7188,-5.7188,-5.7188,-5.7188,-5.7163,-5.7079,-5.6977,-5.6881,-5.6302,-5.5794,-5.5279,-5.3888,-5.2623,-5.1472,-5.0529,-4.9678,-4.9001,-4.9001,-4.9001,-4.9001,-4.9001,-4.9001,-4.9001,-4.9001,-4.9001,-4.9001,0.0,0.0,0.0,0.0,0.0,0.0,0.0,-2.4758,-2.5127,-2.5127,-2.5127,-2.5127,0.0,0.0,0.0,0.0,0.0,0.0,0.0,0.0,0.0,0.0,0.0,0.0,0.0,0.0,0.0,0.0,0.0,0.0,0.0,0.0,0.0,0.0,0.0,0.0,0.0,0.0,0.0,0.0,0.0,0.0,0.0,0.0,0.0,0.0,0.0,0.0,0.0,0.0,-3.4616,-3.5539,-3.5677,-3.6503,-3.7462,-3.7598,-3.7735,-3.8008,-3.88,-3.9217,-3.9624,-4.0502,-4.0984,-4.1211,-4.1075,-4.1781,0.0,0.0,0.0,-4.3538,-4.4455,-4.5165,-4.6162,-4.785,0.0,0.0,0.0,0.0,-5.5178,0.0,0.0,0.0,0.0,0.0,0.0,0.0,0.0,-5.7188,-5.7188,-5.7188,-5.7188,-5.7188,-5.7188,-5.7156,-5.7054,-5.7028,-5.675,-5.6247,-5.5876,-5.508,-5.3922,-5.3283,-5.2118,-5.0603,-5.0246,0.0,-4.9001,-4.9001,-4.9001,-4.9001,-4.9001,-4.9001,-4.9001,-4.9001,-4.9001,-4.9001,0.0,0.0,0.0,0.0,0.0,0.0,0.0,-2.5081,-2.5435,-2.5826,-2.618,-2.6272,-2.5918,-2.618,-2.6257,0.0,0.0,0.0,0.0,0.0,0.0,0.0,0.0,0.0,0.0,0.0,0.0,0.0,0.0,0.0,0.0,0.0,0.0,0.0,0.0,0.0,0.0,0.0,0.0,0.0,0.0,0.0,0.0,0.0,0.0,0.0,0.0,0.0,0.0,0.0,-3.5538,-3.6532,-3.616,-3.67,-3.7466,-3.7466,-3.8027,-3.8724,-3.917,-3.9569,-3.9993,-4.0546,-4.0853,-4.0972,-4.0668,0.0,0.0,0.0,-4.2338,-4.3176,-4.4746,0.0,0.0,0.0,0.0,0.0,0.0,0.0,0.0,0.0,0.0,0.0,0.0,0.0,0.0,0.0,0.0,-5.7188,-5.7188,-5.7188,-5.7188,-5.7188,-5.7112,-5.7079,-5.7003,-5.6697,-5.6357,-5.5968,-5.501,-5.4122,-5.3287,-5.2144,-5.1097,-5.0227,-4.9726,0.0,-4.9001,-4.9001,-4.9001,-4.9001,-4.9001,-4.9001,-4.9001,-4.9001,-4.9001,-4.9001,0.0,0.0,0.0,0.0,0.0,0.0,0.0,-2.5349,-2.5749,-2.6325,-2.7103,-2.7411,-2.6888,-2.6826,-2.6765,0.0,0.0,0.0,0.0,0.0,0.0,0.0,0.0,0.0,0.0,0.0,0.0,0.0,0.0,0.0,0.0,0.0,0.0,0.0,0.0,0.0,0.0,0.0,0.0,0.0,0.0,0.0,0.0,0.0,0.0,0.0,0.0,0.0,0.0,0.0,-3.5946,-3.6801,-3.6185,-3.6469,-3.7083,-3.7218,-3.8099,-3.9046,-3.9314,-3.9814,-4.0288,-4.0412,-4.0655,-4.0758,-4.0412,-4.0747,0.0,0.0,-4.2032,-4.2868,-4.4888,0.0,0.0,0.0,0.0,0.0,0.0,0.0,0.0,0.0,0.0,0.0,0.0,0.0,0.0,0.0,0.0,0.0,-5.7188,-5.7188,-5.7206,-5.7163,-5.7036,-5.6951,-5.6803,-5.6141,-5.5663,-5.5378,-5.396,-5.2994,-5.2481,-5.1006,-5.0159,-4.9813,-4.9255,0.0,0.0,-4.9001,-4.9001,-4.9001,-4.9001,-4.9001,-4.9001,-4.9001,-4.9001,-4.9001,0.0,0.0,0.0,0.0,0.0,0.0,0.0,-2.5472,-2.6325,-2.6402,-2.7503,-2.8288,-2.8227,-2.8227,-2.798,0.0,0.0,0.0,0.0,0.0,0.0,0.0,0.0,0.0,0.0,0.0,0.0,0.0,0.0,0.0,0.0,0.0,0.0,0.0,0.0,0.0,0.0,0.0,0.0,0.0,0.0,0.0,0.0,0.0,0.0,0.0,0.0,0.0,0.0,0.0,0.0,-3.6247,-3.6075,-3.6826,-3.7939,-3.8599,0.0,0.0,-3.9825,-4.0087,-4.0163,-4.0263,-4.0527,-4.061,-4.0145,0.0,0.0,-4.151,-4.2265,-4.3249,-4.4079,-4.4936,-4.5735,0.0,0.0,0.0,0.0,0.0,0.0,0.0,0.0,0.0,0.0,0.0,0.0,0.0,0.0,0.0,-5.7188,-5.7188,-5.7138,-5.701,-5.7003,-5.675,-5.6192,-5.5332,-5.4556,-5.3805,-5.268,-5.1607,-5.0652,-5.0294,-4.976,-4.9103,-4.9035,0.0,0.0,-4.9001,-4.9001,-4.9001,-4.9001,-4.9001,-4.9001,-4.9001,-4.9001,-4.9001,0.0,0.0,0.0,0.0,0.0,0.0,-2.4835,-2.5749,-2.6534,-2.6949,-2.7811,-2.8411,-2.8411,-2.8411,-2.8288,-2.8027,0.0,0.0,0.0,0.0,0.0,0.0,0.0,0.0,0.0,0.0,0.0,0.0,0.0,0.0,0.0,0.0,0.0,0.0,0.0,0.0,0.0,0.0,0.0,0.0,0.0,0.0,0.0,0.0,0.0,0.0,0.0,0.0,0.0,0.0,0.0,0.0,-3.6019,-3.6247,0.0,0.0,-3.865,-3.9157,-3.991,-4.0096,-4.0096,-4.0163,-4.0313,-4.0346,-3.9928,0.0,-4.1558,-4.1192,-4.2331,-4.3622,-4.4374,-4.5248,-4.6083,0.0,-4.7716,-4.8675,0.0,0.0,0.0,0.0,0.0,0.0,0.0,0.0,0.0,0.0,0.0,0.0,-5.6977,-5.7112,-5.7138,-5.6984,-5.6847,-5.6295,-5.535,-5.4563,-5.3683,-5.2615,-5.1556,-5.0751,-5.0195,-4.9675,-4.9272,-4.9001,-4.9001,0.0,0.0,-4.9001,-4.9001,-4.9001,-4.9001,-4.9001,-4.9001,-4.9001,-4.9001,-4.9001,0.0,0.0,0.0,0.0,0.0,-2.4471,-2.4927,-2.561,-2.6318,-2.6995,-2.7688,-2.8181,-2.8381,-2.8581,-2.8704,-2.8704,-2.8519,0.0,0.0,0.0,0.0,0.0,0.0,0.0,0.0,0.0,0.0,0.0,0.0,0.0,0.0,0.0,0.0,0.0,0.0,0.0,0.0,0.0,0.0,0.0,0.0,0.0,0.0,0.0,0.0,0.0,0.0,0.0,0.0,0.0,0.0,0.0,0.0,0.0,0.0,0.0,-3.8278,-3.887,-3.9842,-4.0096,-4.0096,-4.0096,-4.0188,-4.0226,0.0,0.0,-4.1286,-4.1364,-4.2452,-4.3708,-4.4741,-4.5436,-4.6123,0.0,-4.757,-4.8307,-4.9017,0.0,0.0,0.0,0.0,0.0,0.0,0.0,0.0,0.0,0.0,0.0,-5.651,-5.649,-5.6469,-5.6487,-5.6268,-5.5497,-5.4201,-5.3381,-5.2511,-5.1521,-5.0495,-4.9921,-4.9746,-4.9238,-4.9001,-4.9001,-4.9001,0.0,0.0,-4.9001,-4.9001,-4.9001,-4.9001,-4.9001,-4.9001,-4.9001,-4.9001,-4.9001,0.0,0.0,0.0,0.0,0.0,0.0,-2.4317,-2.4887,-2.5542,-2.6219,-2.6942,-2.7657,-2.8334,-2.8996,-2.9371,-2.9371,-2.8796,0.0,0.0,0.0,0.0,0.0,0.0,0.0,0.0,0.0,0.0,0.0,0.0,0.0,0.0,0.0,0.0,0.0,0.0,0.0,0.0,0.0,0.0,0.0,0.0,0.0,-3.5266,0.0,0.0,0.0,0.0,0.0,0.0,0.0,0.0,0.0,0.0,0.0,0.0,0.0,-3.7922,-3.8227,-3.9706,-4.0096,-4.0096,-4.0096,-4.0188,-4.0337,0.0,-4.0765,-4.1302,-4.2288,-4.271,-4.3384,-4.4918,-4.5311,-4.5623,-4.6305,-4.7155,-4.7932,-4.862,0.0,0.0,0.0,0.0,0.0,0.0,0.0,0.0,0.0,0.0,0.0,-5.5918,-5.5157,-5.488,-5.5214,-5.5097,-5.4267,-5.2724,-5.1667,-5.0888,-5.0402,-4.9467,-4.9018,-4.9018,-4.9001,-4.9001,-4.9001,0.0,0.0,0.0,-4.9001,-4.9001,-4.9001,-4.9001,-4.9001,-4.9001,-4.9001,-4.9001,-4.9001,0.0,0.0,0.0,0.0,0.0,0.0,0.0,-2.4866,-2.5564,-2.6272,-2.6965,-2.7657,-2.8334,-2.9012,-2.9387,-2.9387,-2.9212,0.0,0.0,0.0,0.0,0.0,0.0,0.0,0.0,0.0,0.0,0.0,0.0,0.0,0.0,0.0,0.0,0.0,0.0,0.0,0.0,0.0,0.0,0.0,0.0,-3.5956,-3.5973,0.0,0.0,0.0,0.0,0.0,0.0,0.0,0.0,0.0,0.0,0.0,0.0,-3.8234,0.0,0.0,-3.9706,-4.0096,-4.0096,-4.0096,-4.0121,-4.0188,-4.0337,-4.0903,-4.1528,-4.1947,-4.3065,-4.414,-4.461,-4.5313,-4.5881,-4.6102,-4.6828,0.0,0.0,0.0,0.0,0.0,0.0,0.0,0.0,0.0,0.0,0.0,0.0,0.0,-5.4484,-5.4221,-5.4284,-5.4697,-5.3961,-5.2932,-5.162,-5.1034,-5.0311,-4.945,-4.9151,-4.9001,-4.9001,-4.9001,-4.9001,0.0,0.0,0.0,0.0,-4.9001,-4.9001,-4.9001,-4.9001,-4.9001,-4.9001,-4.9001,-4.9001,-4.9001,0.0,0.0,0.0,0.0,0.0,0.0,0.0,-2.4656,-2.5287,-2.6279,-2.6734,-2.7349,-2.8304,-2.9218,-2.9771,-2.9771,-3.0012,0.0,0.0,0.0,0.0,0.0,0.0,0.0,0.0,0.0,0.0,0.0,0.0,0.0,0.0,0.0,0.0,0.0,0.0,0.0,0.0,0.0,0.0,0.0,-3.6111,-3.6301,-3.6301,0.0,0.0,0.0,0.0,0.0,0.0,0.0,0.0,0.0,0.0,0.0,0.0,0.0,-3.8667,-3.8582,0.0,-4.0096,-4.0096,-4.0096,-4.0096,-4.0206,-4.0561,-4.1095,-4.1716,-4.2373,-4.3452,-4.4363,-4.4639,-4.5209,-4.5693,-4.5988,-4.6769,0.0,0.0,0.0,0.0,0.0,0.0,0.0,0.0,0.0,0.0,0.0,0.0,0.0,-5.3475,-5.2905,-5.2726,-5.3021,-5.2509,-5.1656,-5.0501,-5.0214,-4.9719,-4.9001,-4.9001,-4.9001,-4.9001,-4.9001,-4.9001,0.0,0.0,0.0,0.0,-4.9001,-4.9001,-4.9001,-4.9001,-4.9001,-4.9001,-4.9001,-4.9001,-4.9001,0.0,0.0,0.0,0.0,0.0,0.0,0.0,-2.4302,-2.481,-2.6233,-2.6349,-2.6834,-2.8258,-2.9587,-3.0402,-3.0402,0.0,0.0,0.0,0.0,0.0,0.0,0.0,0.0,0.0,0.0,0.0,-3.1703,-3.2516,-3.3203,-3.3745,0.0,0.0,0.0,0.0,0.0,0.0,0.0,0.0,0.0,-3.6301,-3.6301,0.0,0.0,0.0,0.0,0.0,0.0,0.0,0.0,0.0,0.0,0.0,0.0,0.0,0.0,0.0,0.0,0.0,-4.0096,-4.0113,-4.018,-4.018,-4.0383,-4.1119,-4.1426,0.0,-4.3382,-4.3829,-4.4175,-4.4858,-4.4978,-4.5234,-4.5958,0.0,0.0,0.0,0.0,0.0,0.0,0.0,0.0,0.0,0.0,0.0,0.0,0.0,0.0,-5.2701,-5.1319,-5.0547,-5.0496,-5.0785,-5.0488,-4.9488,-4.929,-4.9107,-4.9001,-4.9001,-4.9001,-4.9001,-4.9001,-4.9001,0.0,0.0,0.0,0.0,-4.9001,-4.9001,-4.9001,-4.9001,-4.9001,-4.9001,-4.9001,-4.9001,-4.9001,0.0,0.0,0.0,0.0,0.0,0.0,0.0,0.0,0.0,0.0,-2.638,-2.6888,-2.8258,-2.9587,-3.0402,0.0,0.0,0.0,0.0,0.0,0.0,0.0,0.0,0.0,0.0,0.0,0.0,-3.2594,-3.29,-3.3424,-3.4176,-3.4472,0.0,0.0,0.0,0.0,0.0,0.0,0.0,0.0,-3.6301,-3.6301,0.0,0.0,0.0,0.0,-3.6301,-3.6276,0.0,0.0,0.0,0.0,0.0,0.0,0.0,0.0,-3.9842,-3.9893,-4.0045,0.0,-4.0248,-4.0798,-4.0933,-4.1119,0.0,-4.2499,-4.3024,0.0,0.0,-4.4654,-4.4824,-4.494,-4.5234,0.0,0.0,0.0,0.0,0.0,0.0,0.0,0.0,0.0,0.0,0.0,0.0,0.0,0.0,-5.1956,-5.082,-5.0413,-4.9955,-4.9396,-4.944,-4.9416,-4.926,-4.9107,-4.9032,-4.9001,-4.9001,-4.9001,-4.9001,-4.9001,-4.9001,0.0,0.0,0.0,-4.9001,-4.9001,-4.9001,-4.9001,-4.9001,-4.9001,-4.9001,-4.9001,-4.9001,-4.9001,0.0,0.0,0.0,0.0,0.0,0.0,0.0,0.0,0.0,0.0,0.0,-2.6888,-2.8258,-2.9587,0.0,0.0,0.0,0.0,0.0,0.0,0.0,0.0,0.0,0.0,0.0,0.0,0.0,0.0,0.0,-3.3617,0.0,0.0,0.0,0.0,0.0,0.0,0.0,0.0,0.0,-3.6301,-3.6301,0.0,0.0,0.0,0.0,0.0,-3.6276,-3.6229,0.0,-3.5954,-3.6559,-3.746,0.0,0.0,0.0,0.0,-4.0096,-4.0096,-4.0096,-4.0096,-4.0282,-4.1018,-4.1204,-4.1491,-4.2557,0.0,0.0,0.0,0.0,0.0,-4.4709,0.0,0.0,0.0,0.0,0.0,0.0,0.0,0.0,0.0,0.0,0.0,0.0,0.0,0.0,0.0,0.0,-5.093,-5.0135,-4.9779,-4.9407,-4.9018,-4.9001,-4.9032,-4.9107,-4.9032,-4.9001,-4.9001,-4.9001,-4.9001,-4.9001,-4.9001,-4.9001,0.0,0.0,0.0,-4.9001,-4.9001,-4.9001,-4.9001,-4.9001,-4.9001,-4.9001,-4.9001,-4.9001,-4.9001,0.0,0.0,0.0,0.0,0.0,0.0,0.0,0.0,0.0,0.0,0.0,0.0,0.0,0.0,0.0,0.0,0.0,0.0,0.0,0.0,0.0,0.0,0.0,0.0,0.0,0.0,0.0,0.0,0.0,0.0,0.0,0.0,-3.5188,0.0,0.0,0.0,0.0,0.0,0.0,-3.6301,-3.6301,0.0,0.0,0.0,0.0,0.0,0.0,0.0,0.0,-3.5883,-3.6763,-3.798,-3.7912,0.0,0.0,0.0,0.0,0.0,-4.0096,-4.018,-4.0426,-4.1187,-4.1457,-4.1914,-4.3284,0.0,0.0,0.0,0.0,0.0,0.0,0.0,0.0,0.0,0.0,0.0,0.0,0.0,0.0,0.0,0.0,0.0,0.0,0.0,0.0,0.0,0.0,-5.0033,-4.9932,-4.934,-4.9001,-4.9001,-4.9001,-4.9001,-4.9001,-4.9001,-4.9001,-4.9001,-4.9001,-4.9001,-4.9001,-4.9001,-4.9001,-4.9001,0.0,0.0,-4.9001,-4.9001,-4.9001,-4.9001,-4.9001,-4.9001,-4.9001,-4.9001,-4.9001,-4.9001,0.0,0.0,0.0,0.0,0.0,0.0,0.0,0.0,0.0,0.0,0.0,0.0,0.0,0.0,0.0,0.0,0.0,0.0,0.0,0.0,0.0,0.0,0.0,0.0,0.0,0.0,0.0,0.0,0.0,0.0,-3.4643,-3.4923,-3.5389,0.0,0.0,0.0,0.0,0.0,0.0,-3.6301,-3.6301,0.0,0.0,0.0,0.0,0.0,0.0,0.0,0.0,-3.5817,-3.6729,-3.7912,-3.7905,0.0,0.0,0.0,0.0,0.0,-4.0096,-4.0544,-4.1204,-4.1948,-4.2608,-4.3301,0.0,0.0,0.0,0.0,0.0,0.0,0.0,0.0,0.0,0.0,0.0,0.0,0.0,0.0,0.0,0.0,0.0,0.0,0.0,0.0,0.0,0.0,0.0,-4.9813,-4.9204,-4.9069,-4.9001,-4.9001,-4.9001,-4.9001,-4.9001,-4.9001,-4.9001,-4.9001,-4.9001,-4.9001,-4.9001,-4.9001,-4.9001,-4.9001,0.0,-4.9001,-4.9001,-4.9001,-4.9001,-4.9001,-4.9001,-4.9001,-4.9001,-4.9001,-4.9001,-4.9001,0.0,0.0,0.0,0.0,0.0,0.0,0.0,0.0,0.0,0.0,0.0,0.0,0.0,0.0,0.0,0.0,0.0,0.0,0.0,0.0,0.0,0.0,0.0,0.0,0.0,0.0,0.0,0.0,0.0,-3.425,-3.4715,-3.5165,-3.56,-3.5997,0.0,0.0,0.0,0.0,-3.6542,-3.6939,0.0,0.0,0.0,0.0,0.0,0.0,0.0,0.0,0.0,0.0,-3.7039,-3.7973,-3.8379,0.0,0.0,0.0,0.0,0.0,-4.0578,-4.1221,-4.1965,-4.2709,-4.3166,-4.3595,0.0,0.0,0.0,0.0,0.0,0.0,0.0,0.0,0.0,0.0,0.0,0.0,0.0,0.0,0.0,0.0,0.0,0.0,0.0,0.0,0.0,0.0,0.0,0.0,-4.9018,-4.9001,-4.9001,-4.9001,-4.9001,-4.9001,-4.9001,-4.9001,-4.9001,-4.9001,-4.9001,-4.9001,-4.9001,-4.9001,-4.9001,-4.9001,0.0,-4.9001,-4.9001,-4.9001,-4.9001,-4.9001,-4.9001,-4.9001,-4.9001,-4.9001,-4.9001,-4.9001,0.0,0.0,0.0,0.0,0.0,0.0,0.0,0.0,0.0,0.0,0.0,0.0,0.0,0.0,0.0,0.0,0.0,0.0,0.0,0.0,0.0,0.0,0.0,0.0,0.0,0.0,-3.2978,-3.315,-3.3924,-3.4497,-3.4899,-3.5418,-3.5756,0.0,0.0,0.0,0.0,0.0,-3.6922,-3.7464,0.0,0.0,0.0,0.0,0.0,0.0,0.0,0.0,0.0,0.0,0.0,0.0,0.0,0.0,0.0,-4.0096,-4.0096,-4.0265,-4.1001,-4.1728,-4.2472,-4.3234,0.0,-4.3893,0.0,0.0,0.0,0.0,0.0,0.0,0.0,0.0,0.0,0.0,0.0,0.0,0.0,0.0,0.0,0.0,0.0,0.0,0.0,0.0,0.0,0.0,0.0,0.0,-4.9001,-4.9001,-4.9001,-4.9001,-4.9001,-4.9001,-4.9001,-4.9001,-4.9001,-4.9001,-4.9001,-4.9001,-4.9001,-4.9001,-4.9001,-4.9001,-4.9001,-4.9001,-4.9001,-4.9001,-4.9001,-4.9001,-4.9001,-4.9001,-4.9001,-4.9001,-4.9001,-4.9001,0.0,0.0,0.0,0.0,0.0,0.0,0.0,0.0,0.0,0.0,0.0,0.0,0.0,0.0,0.0,0.0,0.0,0.0,0.0,0.0,0.0,0.0,0.0,0.0,0.0,-3.2746,-3.3032,-3.3282,-3.3975,-3.4691,-3.5446,-3.5678,-3.5795,-3.5817,0.0,0.0,0.0,0.0,-3.7374,-3.7384,-3.8048,0.0,0.0,0.0,0.0,0.0,0.0,0.0,0.0,0.0,0.0,0.0,0.0,0.0,-4.0096,-4.0096,-4.0096,-4.0265,-4.1001,-4.1728,-4.2472,-4.3234,0.0,0.0,0.0,0.0,0.0,0.0,0.0,0.0,0.0,0.0,0.0,0.0,0.0,0.0,0.0,0.0,0.0,0.0,0.0,0.0,0.0,0.0,0.0,0.0,0.0,0.0,-4.9001,-4.9001,-4.9001,-4.9001,-4.9001,-4.9001,-4.9001,-4.9001,-4.9001,-4.9001,-4.9001,-4.9001,-4.9001,-4.9001,-4.9001,-4.9001,-4.9001,-4.9001,-4.9001,-4.9001,-4.9001,-4.9001,-4.9001,-4.9001,-4.9001,-4.9001,-4.9001,-4.9001,0.0,0.0,0.0,0.0,0.0,0.0,0.0,0.0,0.0,0.0,0.0,0.0,0.0,0.0,0.0,0.0,0.0,0.0,0.0,0.0,0.0,0.0,0.0,-3.2621,-3.2718,-3.2989,-3.3282,-3.3555,-3.4399,-3.5321,-3.632,-3.6395,0.0,0.0,0.0,0.0,0.0,0.0,0.0,-3.7917,-3.8634,-3.8434,0.0,0.0,0.0,0.0,0.0,0.0,0.0,0.0,-3.7669,-3.8108,-3.9292,-3.9893,-4.0096,-4.0096,-4.0096,-4.0367,-4.1559,-4.2083,-4.2591,-4.3826,0.0,0.0,0.0,0.0,0.0,0.0,0.0,0.0,0.0,0.0,0.0,0.0,0.0,0.0,0.0,0.0,0.0,0.0,0.0,0.0,0.0,0.0,0.0,0.0,0.0,0.0,-4.9001,-4.9001,-4.9001,-4.9001,-4.9001,-4.9001,-4.9001,-4.9001,-4.9001,-4.9001,-4.9001,-4.9001,-4.9001,-4.9001,-4.9001,-4.9001,-4.9001,-4.9001,-4.9001,-4.9001,-4.9001,-4.9001,-4.9001,-4.9001,-4.9001,-4.9001,-4.9001,-4.9001,0.0,0.0,0.0,0.0,0.0,0.0,0.0,0.0,0.0,0.0,0.0,0.0,0.0,0.0,0.0,0.0,0.0,0.0,0.0,0.0,0.0,0.0,0.0,-3.2658,-3.3069,-3.3424,-3.3668,-3.3822,-3.4715,-3.5729,-3.6795,0.0,0.0,0.0,0.0,0.0,0.0,0.0,0.0,0.0,-3.8918,-3.8734,0.0,0.0,0.0,0.0,0.0,0.0,0.0,0.0,-3.7905,-3.8159,-3.9639,-4.0096,-4.0096,-4.0096,-4.0096,-4.0417,-4.1907,-4.2286,-4.2709,0.0,0.0,0.0,0.0,0.0,0.0,0.0,0.0,0.0,0.0,0.0,0.0,0.0,0.0,0.0,0.0,0.0,0.0,0.0,0.0,0.0,0.0,0.0,0.0,0.0,0.0,0.0,0.0,-4.9001,-4.9001,-4.9001,-4.9001,-4.9001,-4.9001,-4.9001,-4.9001,-4.9001,-4.9001,-4.9001,-4.9001,-4.9001,-4.9001,-4.8984,-4.8765,-4.8663,-4.8646,-4.8409,-4.8308,-4.8308,-4.8308,-4.8308,-4.8308,-4.8308,-4.8308,-4.8308,0.0,0.0,0.0,0.0,0.0,0.0,0.0,0.0,0.0,0.0,0.0,0.0,0.0,0.0,0.0,0.0,0.0,0.0,0.0,0.0,0.0,0.0,0.0,-3.2612,-3.3487,-3.4025,-3.425,-3.4126,-3.4923,-3.5816,-3.6795,-3.6795,0.0,0.0,0.0,0.0,0.0,0.0,0.0,0.0,-3.8877,-3.8662,-3.7905,0.0,0.0,0.0,0.0,0.0,0.0,0.0,-3.7905,-3.8159,-3.9639,-4.0096,-4.0096,-4.0096,-4.0096,-4.0434,-4.1907,-4.2303,0.0,0.0,0.0,0.0,0.0,0.0,0.0,0.0,0.0,0.0,0.0,0.0,0.0,0.0,0.0,0.0,0.0,0.0,0.0,0.0,0.0,0.0,0.0,0.0,0.0,0.0,0.0,0.0,0.0,-4.9001,-4.9001,-4.9001,-4.9001,-4.9001,-4.9001,-4.9001,-4.9001,-4.9001,-4.9001,-4.9001,-4.9001,-4.9001,-4.8984,-4.8951,-4.8193,-4.7872,-4.7821,-4.7107,-4.6786,-4.6786,-4.6786,-4.6786,-4.6786,-4.6786,-4.6786,-4.6786,0.0,0.0,0.0,0.0,0.0,0.0,0.0,0.0,0.0,0.0,0.0,0.0,0.0,0.0,0.0,0.0,0.0,0.0,0.0,0.0,0.0,0.0,0.0,0.0,0.0,0.0,-3.4994,-3.4947,-3.5268,-3.5908,0.0,0.0,0.0,-3.7872,0.0,0.0,0.0,0.0,0.0,0.0,-3.8553,-3.8589,-3.7905,0.0,0.0,0.0,0.0,0.0,0.0,0.0,0.0,0.0,-3.9639,-4.0096,-4.0096,-4.0096,-4.0485,-4.1068,-4.2033,-4.2675,0.0,0.0,0.0,0.0,0.0,0.0,0.0,0.0,0.0,0.0,0.0,0.0,0.0,0.0,0.0,0.0,0.0,0.0,0.0,0.0,0.0,0.0,0.0,0.0,0.0,0.0,0.0,0.0,0.0,-4.9001,-4.9001,-4.9001,-4.9001,-4.9001,-4.9001,-4.9001,-4.9001,-4.9001,-4.8477,-4.8511,-4.8984,-4.8477,-4.824,-4.8206,-4.7445,-4.7124,-4.7107,-4.6887,-4.6786,-4.6786,-4.6786,-4.6786,-4.6786,-4.6786,-4.6786,-4.6786,0.0,0.0,0.0,0.0,0.0,0.0,0.0,0.0,0.0,0.0,0.0,0.0,0.0,0.0,0.0,0.0,0.0,0.0,0.0,0.0,0.0,0.0,0.0,0.0,0.0,-3.4872,-3.5383,0.0,0.0,0.0,0.0,0.0,0.0,-3.7872,0.0,-3.6795,0.0,0.0,0.0,0.0,-3.7777,-3.7855,-3.7449,0.0,0.0,0.0,0.0,0.0,0.0,0.0,0.0,0.0,-3.9639,-4.0096,-4.0096,-4.0096,-4.0612,-4.1373,-4.21,0.0,0.0,0.0,0.0,0.0,0.0,0.0,0.0,0.0,0.0,0.0,0.0,0.0,0.0,0.0,0.0,0.0,0.0,0.0,0.0,0.0,0.0,0.0,0.0,0.0,0.0,0.0,0.0,0.0,0.0,-4.9001,-4.9001,-4.9001,-4.8731,-4.8578,-4.8578,-4.8274,-4.8122,-4.8122,-4.7682,-4.7699,-4.8105,-4.7665,-4.7462,-4.7428,-4.6684,-4.6194,-4.5935,-4.5935,-4.5935,-4.5935,-4.5935,-4.5935,-4.5935,-4.5935,-4.5935,-4.5935,0.0,0.0,-2.8488,-2.8488,0.0,0.0,0.0,0.0,0.0,0.0,0.0,-2.8411,0.0,0.0,0.0,-2.842,0.0,0.0,0.0,0.0,0.0,0.0,0.0,0.0,0.0,0.0,0.0,0.0,0.0,0.0,0.0,0.0,-3.7043,-3.7669,0.0,-3.6694,0.0,0.0,0.0,0.0,-3.6778,-3.6795,-3.6795,-3.6795,0.0,0.0,0.0,0.0,0.0,0.0,0.0,0.0,-3.9673,-4.0096,-4.0096,-4.0096,-4.0663,-4.1457,0.0,0.0,0.0,0.0,0.0,0.0,0.0,0.0,0.0,0.0,0.0,0.0,0.0,0.0,0.0,0.0,0.0,0.0,0.0,0.0,0.0,0.0,0.0,0.0,0.0,0.0,0.0,0.0,0.0,0.0,0.0,-4.8951,-4.89,-4.89,-4.8189,-4.7787,-4.7787,-4.7124,-4.6786,-4.6786,-4.6718,-4.6701,-4.6701,-4.6701,-4.665,-4.6549,-4.5889,-4.5213,-4.4615,-4.4615,-4.4615,-4.4615,-4.4615,-4.4615,-4.4615,-4.4615,-4.4615,-4.4615,0.0,0.0,-2.9171,-2.9171,0.0,0.0,0.0,0.0,-2.8411,-2.8411,-2.8411,-2.8411,-2.8411,-2.8493,0.0,-2.8565,-2.8724,0.0,0.0,0.0,0.0,0.0,0.0,0.0,0.0,0.0,0.0,0.0,0.0,0.0,0.0,0.0,0.0,-3.609,0.0,-3.5853,0.0,0.0,0.0,-3.5904,-3.6558,-3.6795,-3.6795,-3.6795,-3.6694,0.0,0.0,0.0,0.0,0.0,0.0,0.0,-3.9825,-4.0096,-4.0096,-4.0096,-4.1018,-4.21,0.0,0.0,0.0,0.0,0.0,0.0,0.0,0.0,0.0,0.0,0.0,0.0,0.0,0.0,0.0,0.0,0.0,0.0,0.0,0.0,0.0,0.0,0.0,0.0,0.0,0.0,0.0,0.0,0.0,0.0,-4.9001,-4.846,-4.8125,-4.8125,-4.7428,-4.7039,-4.7039,-4.687,-4.6786,0.0,-4.621,-4.594,-4.594,-4.594,-4.5618,-4.5072,-4.4919,-4.475,-4.4615,-4.4615,-4.4615,-4.4615,-4.4615,-4.4615,-4.4615,-4.4615,-4.4615,-4.4615,0.0,0.0,0.0,0.0,0.0,0.0,0.0,0.0,-2.8765,-2.8442,-2.846,-2.8493,-2.8493,-2.8629,0.0,0.0,-2.9013,-2.9266,0.0,0.0,0.0,0.0,0.0,0.0,0.0,0.0,0.0,0.0,0.0,0.0,0.0,0.0,0.0,-3.5616,0.0,-3.596,0.0,0.0,-3.5284,-3.5566,-3.5284,-3.5588,-3.618,-3.5847,-3.591,-3.6231,-3.6231,0.0,0.0,0.0,0.0,0.0,0.0,0.0,-4.0096,-4.0096,-4.0882,-4.1847,0.0,0.0,0.0,0.0,0.0,0.0,0.0,0.0,0.0,0.0,0.0,0.0,0.0,0.0,0.0,0.0,0.0,0.0,0.0,0.0,0.0,0.0,0.0,0.0,0.0,0.0,0.0,0.0,0.0,-4.7953,-4.7953,-4.7581,-4.7378,-4.7378,-4.6667,-4.6261,-4.6261,-4.5906,-4.5766,-4.572,-4.5348,-4.5162,-4.5162,-4.5162,-4.4942,-4.4615,-4.4615,-4.4615,-4.4615,-4.4615,-4.4615,-4.4615,-4.4615,-4.4615,-4.4615,-4.4615,-4.4615,-4.4615,0.0,0.0,0.0,0.0,0.0,0.0,0.0,0.0,0.0,-2.8682,-2.8735,-2.8784,-2.8684,-2.885,-2.895,0.0,0.0,0.0,-2.9566,0.0,0.0,0.0,0.0,0.0,0.0,0.0,0.0,0.0,0.0,0.0,0.0,0.0,0.0,-3.6022,0.0,0.0,0.0,0.0,-3.4979,-3.5295,-3.4235,-3.4416,-3.5346,-3.4878,-3.5081,-3.5616,-3.5752,-3.5825,-3.6005,-3.7432,0.0,0.0,0.0,0.0,-3.9723,-3.9723,-4.0324,-4.1136,0.0,0.0,0.0,0.0,0.0,0.0,0.0,0.0,0.0,0.0,0.0,0.0,0.0,0.0,0.0,0.0,0.0,0.0,0.0,0.0,0.0,0.0,0.0,0.0,0.0,0.0,0.0,0.0,0.0,-4.6786,-4.6786,-4.6667,-4.6599,-4.6599,-4.5889,-4.5517,-4.5517,-4.4919,-4.4615,-4.4615,-4.4615,-4.4615,-4.4615,-4.4615,-4.4615,-4.4615,-4.4615,-4.4615,-4.4615,-4.4615,-4.4615,-4.4615,-4.4615,-4.4615,-4.4615,-4.4615,-4.4615,-4.4615,0.0,0.0,0.0,0.0,0.0,0.0,0.0,0.0,0.0,0.0,-2.9668,-2.9563,-2.8936,-2.9198,-2.9192,-2.8596,-2.9513,-2.991,0.0,0.0,0.0,0.0,0.0,0.0,0.0,0.0,0.0,0.0,0.0,0.0,0.0,0.0,0.0,-3.7584,0.0,0.0,0.0,0.0,-3.5148,-3.4692,-3.5126,-3.5047,-3.4709,-3.5245,-3.5515,-3.5684,-3.6383,-3.6643,-3.6778,-3.7618,-3.7905,0.0,0.0,0.0,0.0,-3.8193,-3.9157,0.0,0.0,0.0,0.0,0.0,0.0,0.0,0.0,0.0,0.0,0.0,0.0,0.0,0.0,0.0,0.0,0.0,0.0,0.0,0.0,0.0,0.0,0.0,0.0,0.0,0.0,0.0,0.0,0.0,-4.6786,-4.6786,-4.6786,-4.6194,-4.5855,-4.5855,-4.5111,-4.475,-4.475,-4.4649,-4.4615,-4.4615,-4.4615,-4.4615,-4.4615,-4.4615,-4.4615,-4.4615,-4.4615,-4.4615,-4.4615,-4.4615,-4.4615,-4.4615,-4.4615,-4.4615,-4.4615,-4.4615,-4.4615,-4.4615,0.0,0.0,0.0,0.0,0.0,0.0,0.0,0.0,0.0,0.0,0.0,-2.9927,-2.9353,-2.9649,-2.9783,-2.9533,-2.972,0.0,0.0,0.0,0.0,0.0,0.0,0.0,0.0,0.0,0.0,0.0,0.0,0.0,0.0,-3.7466,-3.799,0.0,0.0,0.0,0.0,0.0,-3.5397,-3.5081,-3.4568,-3.4945,-3.5757,-3.5633,-3.614,-3.6867,-3.6829,-3.6795,-3.6846,-3.7161,-3.728,-3.7347,-3.777,0.0,0.0,0.0,0.0,0.0,0.0,0.0,0.0,0.0,0.0,0.0,0.0,0.0,0.0,0.0,0.0,0.0,0.0,0.0,0.0,0.0,0.0,0.0,0.0,0.0,0.0,0.0,0.0,0.0,0.0,0.0,0.0,0.0,-4.5579,-4.5579,-4.5579,-4.5246,-4.5077,-4.5077,-4.4784,-4.4615,-4.4615,-4.4615,-4.4615,-4.4615,-4.4615,-4.4615,-4.4615,-4.4615,-4.4615,-4.4615,-4.4615,-4.4615,-4.4615,-4.4615,-4.4615,-4.4615,-4.4615,-4.4615,-4.4615,-4.4615,-4.4615,-4.4615,0.0,0.0,0.0,0.0,0.0,0.0,0.0,0.0,0.0,0.0,0.0,-3.0284,-2.9802,0.0,0.0,0.0,-3.0035,0.0,0.0,0.0,0.0,0.0,0.0,0.0,0.0,0.0,0.0,0.0,0.0,0.0,-3.6518,-3.8007,-3.8633,0.0,-3.9039,0.0,0.0,0.0,0.0,-3.5842,-3.4912,-3.5453,-3.6761,-3.6349,-3.6907,-3.7838,-3.7263,-3.6965,-3.6795,-3.6795,-3.666,-3.6586,-3.7144,0.0,0.0,0.0,0.0,0.0,0.0,0.0,0.0,0.0,0.0,0.0,0.0,0.0,0.0,0.0,0.0,0.0,0.0,0.0,0.0,0.0,0.0,0.0,0.0,0.0,0.0,0.0,0.0,0.0,0.0,0.0,0.0,0.0,-4.4615,-4.4615,-4.4615,-4.4615,-4.4615,-4.4615,-4.4615,-4.4615,-4.4615,-4.4615,-4.4615,-4.4615,-4.4615,-4.4615,-4.4615,-4.4615,-4.4615,-4.4615,-4.4615,-4.4615,-4.4615,-4.4615,-4.4615,-4.4615,-4.4615,-4.4615,-4.4615,-4.4615,-4.4615,-4.4615,0.0,0.0,0.0,0.0,0.0,0.0,0.0,0.0,0.0,0.0,0.0,-3.076,-3.0228,-3.0464,-3.0429,-2.9791,-3.0462,0.0,0.0,0.0,0.0,0.0,0.0,0.0,0.0,0.0,0.0,0.0,0.0,0.0,-3.5701,-3.7246,-3.8684,-3.9994,-4.0037,-3.9614,-3.8836,0.0,0.0,-3.6795,-3.7415,-3.7313,-3.688,-3.7533,-3.7838,-3.7905,-3.7872,-3.7381,-3.6795,-3.6795,-3.6282,-3.5667,-3.5701,-3.5718,-3.5718,0.0,0.0,0.0,0.0,0.0,0.0,0.0,0.0,0.0,0.0,0.0,0.0,0.0,0.0,0.0,0.0,0.0,0.0,0.0,0.0,0.0,0.0,0.0,0.0,0.0,0.0,0.0,0.0,0.0,0.0,0.0,-4.4615,-4.4615,-4.4615,-4.4615,-4.4615,-4.4615,-4.4615,-4.4615,-4.4615,-4.4615,-4.4615,-4.4615,-4.4615,-4.4615,-4.4615,-4.4615,-4.4615,-4.4615,-4.4615,-4.4615,-4.4615,-4.4615,-4.4615,-4.4615,-4.4615,-4.4615,-4.4615,-4.4615,-4.4615,-4.4615,0.0,0.0,0.0,0.0,0.0,0.0,0.0,0.0,0.0,0.0,0.0,0.0,0.0,-3.1211,-3.1358,-3.0718,-3.0943,0.0,0.0,0.0,0.0,0.0,0.0,0.0,0.0,0.0,0.0,0.0,0.0,-3.3914,-3.4945,-3.7449,-3.8886,-3.9394,-3.9884,-3.9681,-3.8971,-3.8717,0.0,-3.7533,-3.7787,-3.8311,-3.8962,-3.9191,-3.9884,-4.0595,-3.9665,-3.9132,-3.8785,-3.7838,-3.6992,-3.6366,-3.6366,-3.6028,-3.56,-3.56,0.0,0.0,0.0,0.0,0.0,0.0,0.0,0.0,0.0,0.0,0.0,0.0,0.0,0.0,0.0,0.0,0.0,0.0,0.0,0.0,0.0,0.0,0.0,0.0,0.0,0.0,0.0,0.0,0.0,0.0,0.0,-4.4615,-4.4615,-4.4615,-4.4615,-4.4615,-4.4615,-4.4615,-4.4615,-4.4615,-4.4615,-4.4615,-4.4615,-4.4615,-4.4615,-4.4615,-4.4615,-4.4615,-4.4615,-4.4615,-4.4615,-4.4615,-4.4615,-4.4615,-4.4615,-4.4615,-4.4615,-4.4615,-4.4615,-4.4615,0.0,0.0,0.0,-3.4795,0.0,-3.4023,-3.1576,-3.201,-3.2119,-3.0771,0.0,0.0,0.0,0.0,-3.236,-3.1968,-3.1698,-3.1402,-3.0987,0.0,0.0,0.0,0.0,0.0,0.0,0.0,0.0,0.0,0.0,0.0,0.0,-3.6806,-3.8125,-3.865,-3.914,-3.9343,0.0,0.0,0.0,-3.8633,0.0,-3.936,-4.0485,-4.0485,-4.1221,-4.2168,-4.1187,-4.0671,-4.0265,-3.9056,-3.8142,-3.7455,-3.6965,-3.6248,-3.56,-3.56,-3.5994,0.0,0.0,0.0,0.0,0.0,0.0,0.0,0.0,0.0,0.0,0.0,0.0,0.0,0.0,0.0,0.0,0.0,0.0,0.0,0.0,0.0,0.0,0.0,0.0,0.0,0.0,0.0,0.0,0.0,0.0,0.0,-4.4615,-4.4615,-4.4615,-4.4615,-4.4615,-4.4615,-4.4615,-4.4615,-4.4479,-4.4198,-4.4198,-4.4062,-4.3836,-4.3836,-4.3836,-4.3836,-4.3836,-4.4124,-4.4615,-4.4615,-4.4615,-4.4615,-4.4615,-4.4615,-4.4615,-4.4615,-4.4615,-4.4615,-3.6369,-3.6616,-3.629,-3.4955,-3.4922,-3.451,-3.2698,-3.2755,-3.2917,-3.2626,0.0,0.0,0.0,0.0,0.0,-3.3406,-3.275,-3.2385,-3.2482,-3.1771,0.0,0.0,0.0,0.0,0.0,0.0,0.0,0.0,0.0,0.0,0.0,0.0,-3.636,-3.7804,-3.7855,-3.865,-4.0011,0.0,-4.0079,-4.0079,0.0,-4.0561,-4.1238,0.0,-4.1728,-4.2354,-4.2337,-4.1863,-4.1153,-4.0417,-3.9673,-3.8768,-3.7269,-3.6248,-3.56,-3.56,-3.56,-3.5769,0.0,0.0,0.0,0.0,0.0,0.0,0.0,0.0,0.0,0.0,0.0,0.0,0.0,0.0,0.0,0.0,0.0,0.0,0.0,0.0,0.0,0.0,0.0,0.0,0.0,0.0,0.0,0.0,-4.4615,-4.4615,-4.4615,-4.4615,-4.4598,-4.4581,-4.4564,-4.4564,-4.453,-4.453,-4.413,-4.3358,-4.3358,-4.2997,-4.2286,-4.2286,-4.2286,-4.2286,-4.2286,-4.3159,-4.453,-4.4564,-4.4581,-4.4615,-4.4615,-4.4615,-4.4615,-4.4615,-4.4615,-4.4615,-3.6009,-3.6609,-3.6635,-3.5214,-3.5319,-3.4935,-3.2985,-3.312,-3.3294,0.0,0.0,0.0,-3.341,-3.3385,-3.3406,-3.3406,-3.322,-3.2923,-3.2516,-3.2298,-3.1907,-3.1385,-3.1315,-3.1274,0.0,0.0,0.0,0.0,0.0,0.0,0.0,0.0,0.0,0.0,-3.6626,-3.7337,-3.7777,-3.886,0.0,0.0,-4.046,-4.1339,0.0,0.0,0.0,0.0,0.0,-4.298,-4.2692,0.0,-4.0849,-3.9445,-3.7438,-3.6248,-3.56,-3.56,-3.56,-3.565,-3.5853,0.0,0.0,0.0,0.0,0.0,0.0,0.0,0.0,0.0,0.0,0.0,0.0,0.0,0.0,0.0,0.0,0.0,0.0,0.0,0.0,0.0,0.0,0.0,0.0,0.0,0.0,0.0,-4.4615,-4.4615,-4.4615,-4.4615,-4.4316,-4.3758,-4.3741,-4.347,-4.2956,-4.2956,-4.2811,-4.2591,-4.2591,-4.2489,-4.2286,-4.2286,-4.2286,-4.2286,-4.2286,-4.2523,-4.2963,-4.3521,-4.4062,-4.4615,-4.4615,-4.4615,-4.4615,-4.4615,-4.4615,-4.4615,-3.6007,-3.6855,-3.7186,-3.619,-3.6332,-3.6141,-3.4797,-3.4938,-3.5157,0.0,0.0,0.0,-3.5312,-3.5284,-3.5165,-3.4844,-3.4523,-3.4037,-3.3371,-3.2764,-3.2204,-3.1746,-3.1424,-3.1232,-3.119,0.0,0.0,0.0,0.0,0.0,0.0,0.0,0.0,0.0,-3.4979,-3.5537,-3.5932,-3.7094,0.0,0.0,-4.0273,0.0,0.0,-4.3132,-4.391,0.0,0.0,0.0,-4.3775,-4.3014,-4.1576,-3.9817,-3.821,-3.7178,-3.6546,-3.6546,-3.6546,-3.6546,-3.6546,-3.7449,0.0,0.0,0.0,0.0,0.0,0.0,0.0,0.0,0.0,0.0,0.0,0.0,0.0,0.0,0.0,0.0,0.0,0.0,0.0,0.0,0.0,0.0,0.0,-4.4615,-4.4615,-4.4615,-4.4615,-4.4615,-4.4615,-4.4615,-4.4215,-4.3426,-4.3392,-4.3064,-4.2303,-4.2286,-4.2151,-4.183,-4.183,-4.1677,-4.1399,-4.1399,-4.1399,-4.1399,-4.1399,-4.1542,-4.1863,-4.2303,-4.3132,-4.413,-4.4479,-4.4615,-4.4615,-4.4615,-4.4615,-4.4615,0.0,-3.7227,-3.7862,-3.7442,-3.76,-3.762,-3.7194,-3.7361,-3.7558,0.0,-3.7834,-3.7905,-3.7905,-3.7905,-3.7601,-3.6863,-3.6146,-3.5385,-3.4539,-3.3275,-3.2462,-3.231,-3.1684,-3.1275,-3.119,-3.119,0.0,0.0,0.0,0.0,0.0,0.0,0.0,0.0,-3.3339,-3.3761,-3.4421,-3.5245,-3.6874,-3.8954,-3.9783,-4.0984,0.0,0.0,-4.391,-4.4615,-4.4615,-4.4615,-4.4479,-4.3589,-4.1914,-4.0096,-3.9242,-3.8481,-3.7905,-3.7905,-3.7905,0.0,-3.7905,-3.8447,-3.8988,-3.8988,-3.9554,0.0,-4.0096,-4.0663,0.0,0.0,0.0,0.0,0.0,0.0,0.0,0.0,0.0,0.0,0.0,0.0,0.0,0.0,0.0,0.0,-4.4615,-4.4615,-4.4615,-4.4615,-4.4615,-4.4615,-4.4615,-4.4615,-4.4181,-4.3291,-4.3274,-4.2895,-4.2049,-4.2049,-4.1728,-4.1085,-4.1085,-4.073,-4.0096,-4.0096,-4.0096,-4.0096,-4.0096,-4.046,-4.1085,-4.117,-4.2033,-4.3369,-4.4147,-4.4479,-4.4496,-4.4581,-4.4615,-4.4615,-3.6005,-3.7452,-3.8449,-3.7886,-3.8051,-3.8068,-3.7527,-3.7558,-3.7696,-3.7858,-3.7882,0.0,-3.7905,-3.7905,-3.7601,-3.6863,-3.666,-3.5977,-3.4573,-3.4218,-3.3546,-3.2344,-3.2158,-3.1819,-3.1207,-3.119,0.0,0.0,0.0,0.0,0.0,0.0,0.0,0.0,-3.2882,-3.3491,-3.3711,-3.5025,0.0,-3.8227,-3.9546,0.0,-4.2371,-4.3132,-4.391,-4.4615,-4.4615,-4.4615,-4.4395,-4.298,-4.183,-4.0747,0.0,-3.8481,-3.7905,-3.7905,-3.7905,-3.7905,-3.7905,-3.8447,-3.8988,-3.8988,-3.9554,0.0,-4.0096,-4.0663,0.0,0.0,0.0,0.0,0.0,0.0,0.0,0.0,0.0,0.0,0.0,0.0,0.0,0.0,0.0,0.0,-4.4615,-4.4615,-4.4615,-4.4615,-4.4615,-4.4615,-4.4615,-4.4615,-4.3972,-4.2557,-4.2506,-4.1863,-4.0553,-4.0536,-4.0468,-4.0316,-4.0316,-4.0248,-4.0096,-4.0096,-4.0096,-4.0096,-4.0096,-4.018,-4.0367,-4.095,-4.1728,-4.2591,-4.3352,-4.3639,-4.3724,-4.435,-4.4615,-4.4615,-3.6285,-3.7806,-3.9032,-3.8926,-3.9031,-3.9059,-3.8824,-3.8848,-3.8939,0.0,0.0,0.0,0.0,0.0,-3.9106,-3.7973,-3.7912,-3.7269,-3.5763,-3.5267,-3.4556,-3.3461,-3.3034,-3.2679,-3.2307,-3.2307,-3.2307,0.0,0.0,0.0,0.0,0.0,0.0,0.0,0.0,-3.3609,-3.3998,0.0,-3.6163,-3.8007,-3.9106,0.0,-4.183,-4.2574,-4.3098,-4.3464,-4.3464,-4.3464,-4.3295,-4.2134,-4.1508,0.0,-3.9884,-3.9276,-3.8988,0.0,-3.8988,-3.8988,-3.8988,-3.9259,-3.9554,-3.9554,0.0,0.0,0.0,-4.04,-4.0646,0.0,0.0,0.0,0.0,0.0,0.0,0.0,0.0,0.0,0.0,0.0,0.0,0.0,0.0,0.0,-4.4615,-4.4615,-4.4615,-4.4615,-4.4615,-4.4615,-4.4615,-4.4615,-4.3904,-4.2337,-4.2286,-4.1602,-4.0113,-4.0096,-4.0096,-4.0096,-4.0096,-4.0138,-4.0188,-4.0188,-4.0238,-4.0313,-4.0238,-4.0188,-4.0222,-4.0544,-4.0865,-4.1314,-4.2422,-4.3081,-4.3443,-4.3859,-4.4248,-4.4615,-3.6823,-3.8245,-3.9537,-3.9901,-3.9952,-3.9977,-4.007,-4.0096,-4.0146,0.0,0.0,0.0,0.0,0.0,0.0,0.0,0.0,-3.8606,-3.714,-3.6423,-3.5633,-3.4742,-3.415,-3.3694,-3.3406,-3.3406,-3.3406,-3.3406,0.0,0.0,0.0,0.0,0.0,0.0,0.0,0.0,0.0,0.0,0.0,-3.8159,0.0,-3.9884,-4.1271,-4.1863,-4.2168,-4.2286,-4.2286,-4.2286,-4.2185,-4.1457,-4.1204,-4.1068,-4.0333,-4.0096,0.0,0.0,0.0,-4.0096,0.0,0.0,-4.0096,0.0,0.0,-4.0096,0.0,0.0,0.0,-4.0096,0.0,0.0,0.0,0.0,0.0,0.0,0.0,0.0,0.0,0.0,0.0,0.0,0.0,0.0,0.0,-4.4615,-4.4615,-4.4615,-4.4615,-4.4615,-4.4615,-4.4615,-4.3904,-4.2337,-4.2286,-4.1602,-4.0113,-4.0096,-4.0096,-4.0096,-4.0096,-4.0163,-4.0305,-4.0305,-4.0362,-4.0493,-4.0387,-4.0313,-4.0288,-4.0188,-4.0138,-4.0231,-4.1585,-4.2455,-4.3003,-4.3291,-4.3809,-4.4384,-3.7426,-3.8732,-3.9926,-4.0205,-4.0163,-4.0087,-4.0096,-4.0096,-4.0333,0.0,0.0,0.0,0.0,0.0,0.0,0.0,0.0,0.0,-3.8044,-3.7773,-3.6992,-3.5532,-3.538,-3.4737,-3.344,-3.3406,-3.3406,-3.3406,0.0,0.0,0.0,0.0,-3.3288,-3.3339,-3.4721,0.0,0.0,0.0,-3.8041,0.0,-3.8954,-3.9884,0.0,-4.1288,-4.1728,-4.2286,-4.2286,-4.2286,-4.2185,0.0,-4.1204,-4.1068,0.0,-4.0096,-4.0096,-4.0096,0.0,0.0,0.0,0.0,0.0,0.0,-4.0096,0.0,0.0,0.0,-4.0096,-4.0096,0.0,0.0,0.0,0.0,0.0,0.0,0.0,0.0,0.0,0.0,0.0,0.0,0.0,0.0,0.0,-4.4615,-4.4615,-4.4615,-4.4615,-4.4615,-4.4615,-4.4615,-4.3904,-4.2337,-4.2286,-4.1602,-4.0113,-4.0096,-4.0096,-4.0096,-4.0096,-4.0163,-4.0305,-4.0305,-4.0362,-4.051,-4.0468,-4.0412,-4.0305,-4.0263,-4.0213,-4.018,-4.1001,-4.139,-4.161,-4.2902,-4.3443,-4.3656,-3.7783,-3.8652,-3.9613,-4.0195,-3.9898,-3.9696,-4.0045,-4.0468,-4.1001,0.0,0.0,0.0,0.0,0.0,0.0,0.0,0.0,-4.1018,0.0,0.0,0.0,-3.6986,-3.6518,-3.6011,-3.5385,-3.4928,-3.467,-3.467,-3.4252,0.0,0.0,0.0,-3.4032,-3.41,-3.5622,0.0,-3.6366,0.0,-3.8328,0.0,0.0,0.0,0.0,-4.0544,-4.073,-4.1027,-4.1027,-4.1027,-4.0993,0.0,-4.0544,0.0,0.0,0.0,0.0,-4.0096,0.0,0.0,0.0,0.0,0.0,0.0,0.0,0.0,-4.0011,0.0,-3.9588,0.0,0.0,0.0,0.0,0.0,0.0,0.0,0.0,0.0,0.0,0.0,0.0,0.0,0.0,0.0,0.0,0.0,0.0,0.0,-4.4333,-4.4615,-4.4615,-4.4615,-4.3904,-4.2337,-4.2286,-4.1602,-4.0113,-4.0096,-4.0096,-4.0096,-4.0096,-4.0196,-4.0412,-4.0412,-4.0534,-4.0728,-4.0631,-4.0583,-4.0527,-4.0355,-4.028,-4.0247,-4.0477,-4.0815,-4.1288,-4.1914,-4.2405,-4.2878,-3.8114,-3.8687,-3.9384,-3.9946,-3.9581,-3.9474,-4.0265,-4.1018,-4.1779,0.0,0.0,0.0,-4.3741,-4.3895,0.0,0.0,-4.3012,-4.2492,0.0,0.0,-4.0254,-3.8614,-3.8045,-3.7547,-3.7094,-3.6332,-3.5943,-3.5943,-3.5165,0.0,0.0,0.0,-3.4793,-3.4861,0.0,-3.7117,-3.7144,0.0,0.0,-3.9317,-3.9317,-3.9622,-4.0096,-4.0096,-4.0096,-4.0096,-4.0096,-4.0096,-4.0096,-4.0096,-4.0096,0.0,-4.0096,0.0,-4.0096,0.0,0.0,0.0,-4.0096,0.0,0.0,0.0,0.0,0.0,0.0,0.0,0.0,0.0,0.0,0.0,0.0,0.0,0.0,0.0,0.0,0.0,0.0,0.0,0.0,0.0,0.0,0.0,0.0,0.0,0.0,0.0,0.0,-4.4378,-4.4598,-4.4615,-4.3904,-4.2337,-4.2286,-4.1602,-4.0113,-4.0138,-4.0163,-4.0163,-4.0196,-4.0337,-4.0558,-4.0558,-4.068,-4.0894,-4.0793,-4.0721,-4.0673,-4.0502,-4.0379,-4.0288,-4.0188,-4.046,-4.0916,-4.1136,-4.1542,-4.2134,-3.8594,-3.9009,0.0,0.0,-3.9289,-3.9644,-4.095,-4.1779,-4.2523,0.0,0.0,0.0,0.0,0.0,0.0,0.0,0.0,-4.3605,-4.2962,0.0,-4.1972,-4.0305,-4.0203,-3.945,-3.7905,-3.7127,-3.6761,-3.6761,-3.596,-3.5566,0.0,0.0,0.0,0.0,0.0,-3.7872,-3.7973,-3.9419,-4.0045,-4.0062,-4.0062,-4.0079,-4.0096,0.0,-4.0096,-4.0096,-4.0096,0.0,0.0,-4.0096,-4.0096,0.0,0.0,0.0,0.0,0.0,0.0,0.0,0.0,0.0,0.0,-4.0096,0.0,0.0,0.0,0.0,-3.9005,0.0,0.0,0.0,0.0,0.0,-4.0096,-4.0096,0.0,0.0,0.0,0.0,0.0,0.0,0.0,0.0,0.0,0.0,0.0,0.0,0.0,0.0,-4.4564,-4.4615,-4.3904,-4.2337,-4.2286,-4.1602,-4.0113,-4.0213,-4.0288,-4.0305,-4.0436,-4.0558,-4.0697,-4.0697,-4.0769,-4.0912,-4.0912,-4.0817,-4.0697,-4.0697,-4.0527,-4.0305,-4.0305,-4.023,-4.0231,-4.0933,-4.1221,-4.1441,0.0,0.0,0.0,0.0,0.0,-3.9853,-4.1256,-4.2099,-4.2839,0.0,0.0,0.0,0.0,-4.4978,-4.4984,0.0,0.0,-4.456,-4.3778,-4.3692,0.0,-4.2006,-4.0982,-4.0141,-3.9483,-3.8286,-3.7611,-3.7533,-3.6772,-3.6383,0.0,0.0,0.0,0.0,0.0,-3.7905,0.0,0.0,0.0,0.0,0.0,-4.0527,-4.0096,0.0,-4.0096,-4.0096,-4.0096,-4.0096,0.0,-4.0096,-4.0096,-4.0096,-4.0096,-4.0163,-4.0238,-4.0238,-4.0238,0.0,0.0,0.0,-3.9994,-3.9503,0.0,0.0,0.0,0.0,0.0,0.0,0.0,0.0,0.0,0.0,0.0,-4.0096,-3.9486,0.0,0.0,0.0,0.0,0.0,0.0,0.0,0.0,0.0,0.0,0.0,-4.2861,0.0,0.0,-4.4299,-4.3904,-4.2337,-4.2286,-4.1628,-4.0255,-4.028,-4.0337,-4.0436,-4.0485,-4.0558,-4.0697,-4.0697,-4.0769,-4.0912,-4.0912,-4.0871,-4.084,-4.0745,-4.0583,-4.0412,-4.0337,-4.0213,-4.013,-4.0383,-4.046,-4.0663,-3.9698,0.0,0.0,0.0,0.0,-4.0343,-4.1775,-4.2638,0.0,0.0,-4.4714,0.0,-4.5005,0.0,-4.5203,0.0,-4.53,-4.5164,-4.4603,-4.4569,0.0,-4.3305,-4.2312,-4.145,0.0,-3.9538,-3.8717,-3.8343,-3.7303,-3.6795,0.0,0.0,0.0,0.0,0.0,0.0,-3.8024,0.0,-4.0561,0.0,0.0,-4.051,0.0,0.0,-4.0096,-4.0096,0.0,-4.0096,-4.0096,-4.0096,-4.0096,-4.0113,-4.0163,-4.0238,-4.0305,-4.0355,-4.0355,-4.0305,-4.0305,-4.0188,0.0,-3.9174,-3.8454,0.0,-3.7597,0.0,-3.8126,0.0,0.0,0.0,0.0,0.0,0.0,-4.0113,-3.9486,0.0,0.0,-3.8582,0.0,0.0,0.0,0.0,0.0,0.0,-4.1424,-4.1221,0.0,0.0,0.0,0.0,-4.3904,-4.2337,-4.2286,-4.1671,-4.0305,-4.0355,-4.0436,-4.0558,-4.0316,-4.0405,-4.0752,-4.0476,-4.0541,-4.0912,-4.0912,-4.0912,-4.0888,-4.0745,-4.0624,-4.0485,-4.0337,-4.0213,-4.0096,-4.0096,-4.0434,-4.1027,0.0,0.0,0.0,0.0,-4.0213,0.0,0.0,0.0,-4.4168,0.0,-4.5005,-4.5005,-4.5005,-4.514,-4.522,-4.522,-4.5344,-4.5397,-4.5397,-4.5397,0.0,0.0,-4.4121,-4.3366,-4.174,-4.0847,-4.0016,-3.9319,-3.7655,-3.6863,0.0,0.0,0.0,0.0,-3.6434,0.0,-3.7956,-3.8717,-3.9486,-4.0146,-4.0146,-4.013,-4.0096,-4.0096,-4.0096,-4.0096,-4.0096,-4.0096,-4.0096,-4.0096,-4.0096,-4.0121,-4.0263,-4.0271,-4.0286,-4.041,-4.0343,-4.0186,-4.0186,-4.0111,-3.9808,-3.908,-3.8431,0.0,0.0,0.0,-3.8213,0.0,0.0,0.0,0.0,0.0,0.0,0.0,-3.9503,0.0,0.0,0.0,0.0,0.0,0.0,0.0,0.0,0.0,-4.035,-4.1035,-4.1813,0.0,0.0,0.0,-4.3819,-4.2364,-4.2279,-4.162,-4.0347,-4.0436,-4.0583,-4.068,-4.0031,-4.0112,-4.0877,-4.006,-4.0129,-4.0912,-4.0912,-4.0912,-4.0888,-4.0745,-4.0624,-4.0485,-4.0337,-4.0213,-4.0096,-4.0096,-4.1044,-4.2286,-4.0601,-4.1205,-4.1836,0.0,-4.1908,-4.2142,0.0,0.0,0.0,0.0,-4.5291,-4.5291,-4.5291,-4.5344,-4.5344,-4.5344,-4.5371,0.0,0.0,0.0,0.0,-4.5069,-4.4527,-4.3993,-4.3469,-4.2115,-4.122,-4.0832,0.0,0.0,-3.7584,0.0,0.0,0.0,0.0,0.0,-3.799,-3.9259,-4.0223,-4.0916,-4.0916,-4.0578,0.0,0.0,-4.0096,-4.0096,-4.0096,-4.0096,-4.0096,-4.0096,-4.0163,-4.0238,-4.0305,-4.0036,-3.9703,-3.9689,-3.9232,-3.8741,-3.8687,-3.8581,-3.8353,-3.7623,-3.737,-3.7143,0.0,0.0,0.0,0.0,0.0,0.0,0.0,0.0,0.0,0.0,0.0,0.0,0.0,0.0,0.0,-3.8379,0.0,0.0,0.0,-3.9276,-3.9343,-3.9546,-4.0764,0.0,0.0,0.0,0.0,-4.2453,-4.1997,-4.1392,-4.0617,-4.0624,-4.0721,-4.0847,-4.0077,-4.0112,-4.0877,-4.006,-4.0129,-4.0912,-4.0912,-4.084,-4.0745,-4.0721,-4.0551,-4.0337,-4.0313,-4.0213,-4.0096,-4.0096,-4.1044,-4.2286,-4.1395,0.0,0.0,-4.3552,0.0,0.0,-4.4173,-4.4561,0.0,-4.5345,-4.5397,0.0,-4.5397,-4.5397,-4.5397,-4.5397,-4.5397,0.0,-4.5397,0.0,0.0,-4.5397,-4.501,-4.4587,-4.4199,-4.2962,0.0,-4.1495,0.0,0.0,-3.7872,0.0,0.0,0.0,0.0,-3.6891,0.0,-3.9462,-4.035,-4.0713,-4.0713,-4.046,0.0,-4.0096,-4.0096,-4.0096,-4.0096,-4.0096,-4.0113,-4.0163,-4.0238,-4.0262,-4.0019,-3.973,-3.9437,-3.9082,-3.8648,-3.8277,-3.8161,-3.8138,-3.791,-3.7178,-3.7098,-3.6999,-3.6251,-3.7031,-3.7894,0.0,-3.9094,-4.0141,0.0,0.0,0.0,0.0,0.0,0.0,0.0,0.0,0.0,0.0,-3.7936,0.0,-3.8492,-3.8834,-3.8988,-3.8988,-4.0375,0.0,0.0,0.0,0.0,-4.2116,-4.1784,-4.1304,-4.0714,-4.0697,-4.0597,-4.0377,-3.9577,-3.9457,-3.9894,-3.9422,-3.9629,-4.0411,-4.0756,-4.0817,-4.0697,-4.0648,-4.0502,-4.0288,-4.0255,-4.0163,-4.0096,-4.0096,-4.1044,-4.2286,-4.2292,0.0,0.0,0.0,0.0,0.0,0.0,-4.4992,0.0,-4.5397,0.0,-4.5397,-4.5397,-4.5397,-4.5397,-4.5397,0.0,-4.5397,-4.5397,-4.5397,-4.5397,-4.5397,-4.5397,-4.5113,-4.4466,-4.3511,-4.2611,0.0,-3.9337,0.0,0.0,0.0,0.0,0.0,0.0,0.0,0.0,-3.9462,-4.0096,-4.0138,-4.0138,-4.0138,-4.0146,-4.0146,-4.0146,-4.0146,-4.0146,-4.0121,-4.0121,-4.0263,-4.033,-4.0243,-3.9675,-3.9461,-3.9221,-3.8488,-3.8191,-3.8077,-3.7946,-3.7923,-3.7792,-3.7142,-3.7072,-3.7011,-3.6363,-3.6874,-3.7512,-3.7512,-3.8594,-3.9537,0.0,0.0,0.0,0.0,0.0,0.0,0.0,0.0,0.0,0.0,0.0,0.0,0.0,-3.8414,-3.8783,-3.8885,-4.0172,0.0,0.0,0.0,0.0,-4.163,-4.1552,-4.1268,-4.0721,0.0,-4.0373,-3.9681,-3.8939,-3.8594,-3.8594,-3.8594,-3.8991,-3.9733,-4.0567,-4.0817,-4.0697,-4.0558,-4.0412,-4.0263,-4.0163,-4.0096,-4.0096,-4.0096,-4.1044,-4.2286,0.0,0.0,0.0,0.0,0.0,-4.5207,-4.5207,-4.5311,-4.5397,-4.5397,-4.5397,-4.5397,-4.5397,-4.5397,-4.5397,-4.5397,-4.5397,0.0,0.0,0.0,0.0,-4.5397,-4.5397,-4.5328,-4.5207,-4.3871,-4.3037,-4.2748,-3.973,-3.8212,0.0,0.0,0.0,0.0,0.0,0.0,-3.8007,-3.9462,0.0,-4.0263,-4.0263,-4.0337,-4.0419,-4.0419,-4.0419,-4.0419,-4.0419,-4.0362,-4.028,-4.0288,-4.0453,-4.0487,-3.9746,-3.917,-3.8584,-3.7737,-3.7063,-3.656,-3.6412,-3.6473,-3.6504,-3.6384,-3.6419,-3.6452,-3.6314,-3.6922,-3.7512,-3.7512,-3.818,-3.8784,-3.8762,0.0,0.0,0.0,0.0,0.0,0.0,0.0,0.0,0.0,0.0,-3.7263,0.0,-3.7359,-3.77,-3.8297,0.0,0.0,0.0,0.0,0.0,0.0,-4.1285,0.0,0.0,0.0,-4.0474,-3.9681,-3.8939,-3.8594,-3.8594,-3.8594,-3.8991,-3.9733,-4.0567,-4.0817,-4.0697,-4.0558,-4.0362,-4.0121,-4.0113,-4.0096,-4.0096,-4.0096,-4.1044,-4.2286,0.0,0.0,0.0,0.0,0.0,0.0,0.0,-4.5397,0.0,-4.5397,-4.5397,-4.5397,-4.5397,-4.5397,-4.5397,-4.5397,-4.5397,-4.5397,-4.5397,-4.5397,-4.5397,-4.5397,-4.5397,-4.5397,-4.5397,-4.394,-4.3114,-4.3005,-4.0312,-3.8687,-3.812,0.0,0.0,0.0,0.0,-3.7271,0.0,0.0,0.0,-4.0412,-4.0412,-4.0436,-4.051,-4.051,-4.051,-4.051,-4.051,-4.051,-4.0502,-4.0502,-4.0302,-3.9959,-3.9256,-3.8567,-3.787,-3.7003,-3.6504,-3.6233,-3.6144,-3.6187,-3.6255,-3.6255,-3.6276,-3.6301,-3.6301,-3.6594,-3.687,-3.687,-3.7473,-3.8151,-3.8525,-3.8774,0.0,0.0,0.0,0.0,0.0,0.0,-3.9399,0.0,0.0,0.0,0.0,0.0,0.0,0.0,0.0,0.0,0.0,0.0,0.0,0.0,0.0,0.0,0.0,0.0,0.0,-3.9112,-3.8392,-3.7801,-3.7422,-3.8232,-3.8784,-3.9198,-4.0394,-4.0817,-4.0673,-4.0461,-4.0288,-4.0096,-4.0096,-4.0096,-4.0096,-4.0096,-4.0807,-4.1779,0.0,-4.5397,0.0,0.0,-4.5397,0.0,-4.5397,-4.5397,-4.5397,-4.5397,-4.5397,-4.5397,-4.5397,-4.5397,-4.5397,-4.5397,-4.5397,-4.5397,-4.5397,-4.5397,-4.5397,-4.5397,-4.5397,-4.5397,-4.5397,-4.4096,-4.3312,0.0,-4.0899,-3.9386,0.0,-3.7701,-3.7052,-3.6544,0.0,0.0,0.0,0.0,-4.0412,-4.0534,-4.0534,-4.0558,-4.0583,-4.0583,-4.0583,-4.0583,-4.0583,-4.0655,-4.0745,-4.0745,-4.0206,-3.9439,-3.8796,-3.8099,-3.7335,-3.6474,-3.6255,-3.628,-3.6251,-3.6255,-3.6301,-3.6301,-3.6301,-3.6301,-3.6301,-3.6301,-3.6301,-3.6301,-3.6801,-3.7456,-3.8237,-3.8264,0.0,0.0,0.0,0.0,0.0,0.0,0.0,0.0,0.0,0.0,-3.7406,0.0,0.0,0.0,0.0,0.0,-4.0453,0.0,0.0,0.0,0.0,-4.0912,-4.0912,0.0,-3.9319,-3.8577,-3.7858,-3.7077,-3.6353,-3.7887,-3.8594,-3.8703,-4.0239,-4.0817,-4.0648,-4.0412,-4.0238,-4.0096,-4.0096,-4.0096,-4.0096,-4.0096,-4.0561,-4.1322,0.0,0.0,0.0,0.0,0.0,0.0,-4.5397,-4.5397,-4.5397,-4.5397,-4.5397,-4.5397,-4.5397,-4.5397,-4.5397,-4.5397,-4.5397,-4.5397,-4.5397,-4.5397,-4.5397,-4.5397,-4.5397,-4.5397,-4.5397,-4.4596,-4.3862,0.0,0.0,-4.0199,0.0,-3.859,-3.8145,-3.8134,0.0,0.0,0.0,-4.0144,-4.0558,-4.0673,-4.0673,-4.0769,-4.0847,-4.0847,-4.0847,-4.0847,-4.0847,-4.0871,-4.0888,-4.0888,-4.0353,-3.9537,-3.8819,-3.8099,-3.734,-3.6542,-3.6301,-3.6301,-3.6301,-3.6301,-3.6301,-3.6301,-3.6301,-3.6301,-3.6301,-3.6301,-3.6301,-3.6301,-3.6353,-3.6663,-3.7461,-3.7594,-3.7577,0.0,0.0,0.0,0.0,0.0,-3.9434,-3.8762,0.0,0.0,0.0,0.0,0.0,0.0,0.0,0.0,0.0,0.0,0.0,-4.0912,0.0,-4.0912,-4.0912,-4.0095,-3.9319,-3.8577,-3.7858,-3.7077,-3.6353,-3.7887,-3.8594,-3.8703,-4.0239,-4.0752,-4.051,-4.0485,-4.0337,-4.0096,-4.0096,-4.0096,-4.0096,-4.0096,-4.0561,-4.1322,0.0,0.0,0.0,0.0,0.0,0.0,0.0,-4.5397,-4.5397,-4.5397,-4.5397,-4.5397,-4.5397,-4.5397,-4.5397,-4.5397,-4.5397,-4.5397,-4.5397,-4.5397,-4.5397,-4.5397,-4.5397,-4.5397,-4.5397,-4.4665,-4.4156,0.0,0.0,0.0,0.0,-3.9531,-3.886,-3.838,0.0,-3.9476,-3.9568,-4.0299,-4.0697,-4.0817,-4.0817,-4.0864,-4.0912,-4.0912,-4.0912,-4.0912,-4.0912,-4.0912,-4.0912,-4.0912,-4.0083,-3.8974,-3.8681,-3.7749,-3.6715,-3.6387,-3.6301,-3.6301,-3.6301,-3.6301,-3.6301,-3.6301,-3.6301,-3.6301,-3.6301,-3.6301,-3.6301,-3.6301,-3.6301,-3.6404,-3.6715,-3.6766,-3.6766,-3.6766,0.0,0.0,0.0,0.0,0.0,-3.8047,0.0,-3.8112,0.0,0.0,0.0,0.0,0.0,-3.8922,-3.9664,0.0,0.0,-4.0912,0.0,-4.0912,-4.0912,-3.9646,-3.8888,-3.8599,-3.7353,-3.6853,-3.7042,-3.8134,-3.9117,-4.0008,-4.0541,-4.0655,-4.0493,-4.0412,-4.0263,-4.0096,-4.0096,-4.0096,-4.0096,-4.0096,-4.0299,-4.0646,-4.5397,0.0,-4.5397,0.0,-4.5397,-4.5397,-4.5397,-4.5397,-4.5397,-4.5397,-4.5397,-4.5397,-4.5397,-4.5397,-4.5397,-4.5397,-4.5397,-4.5397,-4.5397,-4.5397,-4.5397,-4.5397,-4.5397,0.0,-4.5397,-4.4889,-4.4535,-4.4311,-4.3224,0.0,-4.1567,-4.0733,-4.0031,0.0,-3.9765,-3.9943,-4.0018,-4.0545,-4.0817,-4.0912,-4.0912,-4.0912,-4.0912,-4.0912,-4.0912,-4.0912,-4.0912,-4.0912,-4.0912,-4.0912,-4.0032,-3.8922,-3.8922,-3.787,-3.6646,-3.6646,-3.649,-3.6301,-3.6301,-3.6301,-3.6301,-3.6301,-3.6301,-3.6301,-3.6301,-3.6301,-3.6301,-3.6301,-3.6301,-3.6301,-3.6301,-3.6301,-3.6301,-3.6301,0.0,0.0,0.0,-3.7996,0.0,-3.7599,-3.8336,-3.8405,-3.7094,0.0,0.0,0.0,0.0,-3.906,-3.9353,0.0,0.0,0.0,0.0,0.0,-4.0912,-3.96,-3.8801,-3.8599,-3.7491,-3.7146,-3.753,-3.8474,-3.9652,-4.0894,-4.0793,-4.0697,-4.0558,-4.0412,-4.0288,-4.0163,-4.0113,-4.0096,-4.0096,-4.0096,-4.0096,-4.0214,-4.5397,-4.5397,-4.5397,-4.5397,-4.5397,-4.5397,-4.5397,-4.5397,-4.5397,-4.5397,-4.5397,-4.5397,-4.5397,-4.5397,-4.5397,-4.5397,-4.5397,-4.5397,-4.5397,-4.5397,-4.5397,0.0,0.0,-4.5397,-4.5397,-4.538,-4.5044,-4.4311,0.0,0.0,-4.3155,-4.2361,-4.1981,-4.1905,-4.1205,-4.0894,-4.0894,-4.0894,-4.0912,-4.0912,-4.0912,-4.0912,-4.0912,-4.0912,-4.0912,-4.0912,-4.0912,-4.0912,-4.0912,-4.0912,-4.0377,-3.9681,-3.9681,-3.8663,-3.7495,-3.7495,-3.6904,-3.6301,-3.6301,-3.6301,-3.6301,-3.6301,-3.6301,-3.6301,-3.6301,-3.6301,-3.6301,-3.6301,-3.6301,-3.6301,-3.6301,-3.6301,-3.6301,-3.6301,0.0,0.0,0.0,-3.7629,0.0,-3.7599,-3.8784,-3.9388,-3.8629,0.0,0.0,0.0,0.0,-3.937,-3.8646,0.0,0.0,-4.0912,-4.0912,0.0,-4.0912,-4.0077,-3.9319,-3.8594,-3.8577,-3.8203,-3.7564,-3.9008,-4.0112,-4.0912,-4.0912,-4.0817,-4.0697,-4.0558,-4.0412,-4.0263,-4.0163,-4.0096,-4.0096,-4.0096,-4.0096,-4.0214,-4.5397,-4.5397,-4.5397,-4.5397,-4.5397,-4.5397,-4.5397,-4.5397,-4.5397,-4.5397,-4.5397,-4.5397,-4.5397,-4.5397,-4.5397,0.0,-4.5397,-4.5397,0.0,-4.5397,-4.5397,-4.5397,-4.5397,-4.5397,-4.5397,-4.5397,-4.5276,-4.5061,0.0,0.0,0.0,-4.2948,-4.2827,-4.2775,-4.1999,-4.1654,-4.1619,-4.1119,-4.0912,-4.0912,-4.0912,-4.0912,-4.0912,-4.0912,-4.0912,-4.0912,-4.0912,-4.0912,-4.0912,-4.0912,-4.0739,-4.0532,-4.0532,-3.9457,-3.8146,-3.765,-3.7323,-3.6991,-3.6439,-3.6301,-3.6301,-3.6301,-3.6301,-3.6301,-3.6301,-3.6301,-3.6301,-3.6301,-3.6301,-3.6301,-3.6301,-3.6301,-3.6301,-3.6301,-3.6301,0.0,-3.7025,0.0,-3.8491,-3.8289,-3.9112,-3.9405,0.0,-3.8594,0.0,0.0,0.0,0.0,0.0,0.0,0.0,0.0,-4.0912,0.0,-4.0912,-4.0095,-3.9577,-3.9336,-3.8836,-3.8732,-3.9026,-4.0043,-4.067,-4.0894,-4.0817,-4.0745,-4.0673,-4.0478,-4.0337,-4.0305,-4.0163,-4.0096,-4.0096,-4.0096,-4.0096,-4.013,-4.5397,-4.5397,-4.5397,-4.5397,-4.5397,-4.5397,-4.5397,-4.5397,-4.5397,-4.5397,-4.5397,-4.5397,-4.5397,-4.5397,0.0,-4.5397,-4.5397,-4.5397,-4.5397,-4.5397,-4.5397,-4.5397,-4.5397,-4.5397,-4.5397,-4.5397,0.0,-4.5397,-4.4941,-4.4475,-4.4009,-4.3741,-4.3603,-4.3586,-4.2792,-4.2292,-4.1981,-4.1516,-4.1153,-4.0912,-4.0912,-4.0912,-4.0912,-4.0912,-4.0912,-4.0912,-4.0912,-4.0912,-4.0912,-4.0912,-4.0912,-4.0912,-4.0912,-4.0256,-3.9324,-3.8565,-3.7944,-3.7392,-3.6887,-3.6525,-3.6301,-3.6301,-3.6301,-3.6301,-3.6301,-3.6301,-3.6301,-3.6301,-3.6301,-3.6301,-3.6301,-3.6301,-3.6301,-3.6301,-3.6542,-3.6943,-3.7426,0.0,-3.9008,0.0,0.0,0.0,0.0,-3.9462,-3.9462,0.0,0.0,0.0,0.0,0.0,0.0,-4.0912,-4.0912,-4.0912,-4.0912,-4.0411,-3.9991,-3.9681,-3.9232,-3.9405,-4.0187,-4.0687,-4.0912,-4.0912,-4.0817,-4.0769,-4.0745,-4.0502,-4.0362,-4.0362,-4.0171,-4.0096,-4.0096,-4.0096,-4.0096,-4.0096,-4.5397,-4.5397,-4.5397,0.0,-4.5397,0.0,-4.5397,-4.5397,-4.5397,-4.5397,-4.5397,-4.5397,-4.5397,-4.5397,-4.5397,-4.5397,0.0,0.0,0.0,-4.5397,-4.5397,-4.5397,-4.5397,-4.5397,-4.5397,-4.5397,-4.5397,-4.5397,-4.5397,-4.5397,-4.538,-4.4699,-4.438,-4.4345,-4.3603,-4.2861,-4.2171,-4.212,-4.1654,-4.0981,-4.0981,-4.0946,-4.0912,-4.0912,-4.0912,-4.0912,-4.0912,-4.0912,-4.0912,-4.0912,-4.0912,-4.0912,-4.0912,-4.0912,-4.0739,-3.9939,-3.8715,-3.7633,-3.753,-3.6939,-3.637,-3.6318,-3.6301,-3.6301,-3.6301,-3.6301,-3.6301,-3.6301,-3.6301,-3.6301,-3.6301,-3.6301,-3.6318,-3.637,-3.7008,-3.7547,-3.765,-3.8819,-3.9715,0.0,0.0,0.0,-4.0912,-4.0912,-4.0912,0.0,0.0,0.0,0.0,0.0,-4.0912,-4.0912,-4.0912,-4.0912,-4.0912,-4.0912,-4.0532,-3.9767,-3.9767,-4.0164,-4.0912,-4.0912,-4.0912,-4.0912,-4.0912,-4.0912,-4.0888,-4.0607,-4.051,-4.0485,-4.0196,-4.0113,-4.0096,-4.0096,-4.0138,-4.0121,0.0,0.0,-4.5397,-4.5397,-4.5397,-4.5397,-4.5397,-4.5397,-4.5397,-4.5397,-4.5397,-4.5397,-4.5397,-4.5397,-4.5397,-4.5397,-4.5397,-4.5397,-4.5397,-4.5397,-4.5397,-4.5397,-4.5397,-4.5397,-4.5397,-4.5397,-4.5397,-4.5397,-4.5397,-4.5397,-4.5397,-4.5207,-4.5147,-4.5113,-4.438,-4.3931,-4.3724,-4.3155,-4.2465,-4.1757,-4.1757,-4.1412,-4.0912,-4.0912,-4.0912,-4.0912,-4.0912,-4.0912,-4.0912,-4.0912,-4.0912,-4.0912,-4.0912,-4.0912,-4.0739,-3.9939,-3.9439,-3.8922,-3.7823,-3.7374,-3.7081,-3.6456,-3.6301,-3.6301,-3.6301,-3.6301,-3.6301,-3.6301,-3.6301,-3.6301,-3.6301,-3.6301,-3.649,-3.7133,-3.7392,-3.7892,-3.9008,-3.9474,-3.9922,0.0,-4.0791,-4.0912,-4.0912,-4.0912,-4.0912,0.0,0.0,0.0,0.0,-4.0912,-4.0912,-4.0912,-4.0912,-4.0912,-4.0912,-4.0912,-4.0808,-4.0636,-4.0636,-4.0722,-4.0912,-4.0912,-4.0912,-4.0912,-4.0912,-4.0912,-4.0888,-4.0607,-4.051,-4.0485,-4.0196,-4.0163,-4.0238,-4.0238,-4.0313,-4.0395,-4.5397,-4.5397,-4.5397,-4.5397,-4.5397,-4.5397,-4.5397,-4.5397,-4.5397,-4.5397,-4.5397,-4.5397,-4.5397,-4.5397,-4.5397,-4.5397,-4.5397,-4.5397,-4.5397,-4.5397,-4.5397,-4.5397,-4.5397,-4.5397,-4.5397,-4.5397,-4.5397,-4.5397,-4.5397,-4.5397,-4.5397,-4.5397,-4.5397,-4.538,-4.4992,-4.4613,-4.4276,-4.388,-4.3258,-4.2551,-4.2551,-4.2102,-4.1412,-4.1412,-4.1205,-4.0912,-4.0912,-4.0912,-4.0912,-4.0912,-4.0912,-4.0912,-4.0912,-4.0912,-4.0825,-4.0394,-3.9974,-3.9439,-3.8323,-3.7771,-3.7323,-3.649,-3.6301,-3.6301,-3.6301,-3.6301,-3.6301,-3.6301,-3.6301,-3.6301,-3.6301,-3.6594,-3.6991,-3.7426,-3.8082,-3.8784,-3.9577,-4.0008,-4.0405,-4.086,-4.0912,-4.0912,-4.0912,-4.0912,-4.0912,-4.0912,-4.0912,0.0,-4.0353,-4.0336,-4.0532,-4.0894,-4.0912,-4.0912,-4.0912,-4.0912,-4.0912,-4.0912,-4.0912,-4.0912,-4.0912,-4.0912,-4.0912,-4.0912,-4.0912,-4.0912,-4.0871,-4.0697,-4.0583,-4.0558,-4.0345,-4.0337,-4.0387,-4.0387,-4.0436,-4.0485,-4.5397,-4.5397,-4.5397,-4.5397,-4.5397,-4.5397,-4.5397,-4.5397,-4.5397,-4.5397,-4.5397,-4.5397,-4.5397,-4.5397,-4.5397,-4.5397,-4.5397,-4.5397,-4.5397,-4.5397,-4.5397,-4.5397,-4.5397,-4.5397,-4.5397,-4.5397,-4.5397,-4.5397,-4.5397,-4.5397,-4.5397,-4.5397,-4.5397,-4.5397,-4.5397,-4.5061,-4.4483,-4.4483,-4.4052,-4.3362,-4.3362,-4.2896,-4.2171,-4.205,-4.1619,-4.105,-4.0946,-4.0912,-4.0912,-4.0912,-4.0912,-4.0912,-4.0912,-4.0912,-4.0912,-4.0912,-4.0429,-3.9715,-3.8957,-3.8151,-3.7323,-3.649,-3.6301,-3.6301,-3.6301,-3.6301,-3.6301,-3.6301,-3.6301,-3.6335,-3.6456,-3.7025,-3.7581,-3.7806,-3.887,-3.9733,-3.9853,0.0,-4.0912,-4.0912,-4.0912,-4.0912,-4.0912,-4.0912,-4.0912,-4.0912,-4.0791,-4.0429,-3.9733,-3.9577,-3.9836,-4.0532,-4.0549,-4.0618,-4.0722,-4.0722,-4.0791,-4.0912,-4.0912,-4.0912,-4.0912,-4.0912,-4.0912,-4.0912,-4.0912,-4.0912,-4.0888,-4.0745,-4.0697,-4.0697,-4.0558,-4.051,-4.0534,-4.0534,-4.0534,-4.0558,-4.5397,-4.5397,-4.5397,-4.5397,-4.5397,-4.5397,-4.5397,-4.5397,-4.5397,-4.5397,-4.5397,-4.5397,-4.5397,-4.5397,-4.5397,-4.5397,-4.5397,-4.5397,-4.5397,-4.5397,-4.5397,-4.5397,-4.5397,-4.5397,-4.5397,-4.5397,-4.5397,-4.5397,-4.5397,-4.5397,-4.5397,-4.5397,-4.5397,-4.5397,-4.5397,-4.5328,-4.5225,-4.5225,-4.4803,-4.4138,-4.4138,-4.369,-4.2948,-4.2275,-4.1947,-4.1757,-4.1119,-4.0912,-4.0912,-4.0912,-4.0912,-4.0912,-4.0912,-4.0912,-4.0912,-4.0912,-4.0825,-4.0549,-3.975,-3.8525,-3.7323,-3.649,-3.6301,-3.6301,-3.6301,-3.6301,-3.6301,-3.6301,-3.6301,-3.6508,-3.7202,-3.7426,-3.7909,-3.9146,-3.9543,-3.9939,-4.0636,0.0,-4.0912,-4.0912,-4.0912,-4.0912,-4.0912,-4.0912,-4.0912,-4.0912,-4.0267,-3.9819,-3.9698,-3.9112,-3.8819,-3.8962,-3.8957,-3.925,-3.9871,-3.9888,-4.0239,-4.0912,-4.0912,-4.0912,-4.0912,-4.0912,-4.0912,-4.0912,-4.0912,-4.0912,-4.0888,-4.0745,-4.0697,-4.0697,-4.0558,-4.0558,-4.0673,-4.0673,-4.0745,-4.0823,-4.5397,-4.5397,-4.5397,-4.5397,-4.5397,-4.5397,-4.5397,-4.5397,-4.5397,-4.5397,-4.5397,-4.5397,-4.5397,-4.5397,-4.5397,-4.5397,-4.5397,-4.5397,-4.5397,-4.5397,-4.5397,-4.5397,-4.5397,-4.5397,-4.5397,-4.5397,-4.5397,-4.5397,-4.5397,-4.5397,-4.5397,-4.5397,-4.5397,-4.5397,-4.5397,-4.5397,-4.5397,-4.5397,-4.519,-4.4889,-4.4889,-4.444,-4.3741,-4.3379,-4.2723,-4.1964,-4.1619,-4.124,-4.0912,-4.0912,-4.0912,-4.0912,-4.0912,-4.0912,-4.0912,-4.0912,-4.0601,-4.0164,-3.9802,-3.8612,-3.7426,-3.7025,-3.6611,-3.6301,-3.6301,-3.6301,-3.6301,-3.6301,-3.6301,-3.6542,-3.7357,-3.7823,-3.8439,-3.9508,-4.0043,0.0,-4.086,-4.0912,-4.0739,-4.0325,-4.0233,-4.0118,-3.9704,-3.9669,-3.9669,-3.9669,-3.9301,-3.8922,-3.8525,-3.818,-3.7801,-3.737,-3.8163,-3.875,-3.9094,-3.9491,-3.9888,-4.025,-4.0705,-4.0912,-4.0912,-4.0912,-4.0912,-4.0912,-4.0912,-4.0912,-4.0912,-4.084,-4.0817,-4.0817,-4.0728,-4.0752,-4.0817,-4.0817,-4.084,-4.0888,-4.5397,-4.5397,-4.5397,-4.5397,-4.5397,-4.5397,-4.5397,-4.5397,-4.5397,-4.5397,-4.5397,-4.5397,-4.5397,-4.5397,-4.5397,-4.5397,-4.5397,-4.5397,-4.5397,-4.5397,-4.5397,-4.5397,-4.5397,-4.5397,-4.5397,-4.5397,-4.5397,-4.5397,-4.5397,-4.5397,-4.5397,-4.5397,-4.5397,-4.5397,-4.5397,-4.5397,-4.5397,-4.5397,-4.5397,-4.5397,-4.5397,-4.5061,-4.4552,-4.438,-4.3569,-4.2499,-4.2137,-4.1654,-4.1136,-4.0963,-4.0912,-4.0912,-4.0912,-4.0912,-4.0912,-4.0912,-4.0463,-3.9939,-3.975,-3.8732,-3.7719,-3.7547,-3.6887,-3.6301,-3.6301,-3.6301,-3.6301,-3.6301,-3.6301,-3.6594,-3.7581,-3.8237,-3.8888,-3.9819,0.0,-4.0912,0.0,-4.0912,-4.0601,-3.9802,-3.9698,-3.9405,-3.8663,-3.8594,-3.8594,-3.8594,-3.8444,-3.8116,-3.753,-3.7323,-3.6939,-3.6318,-3.7439,-3.8146,-3.8336,-3.9077,-3.9526,-3.9698,-4.0532,-4.0912,-4.0912,-4.0912,-4.0912,-4.0912,-4.0912,-4.0912,-4.0912,-4.0912,-4.0912,-4.0912,-4.0912,-4.0912,-4.0912,-4.0912,-4.0912,-4.0912,-4.5397,-4.5397,-4.5397,-4.5397,-4.5397,-4.5397,-4.5397,-4.5397,-4.5397,-4.5397,-4.5397,-4.5397,-4.5397,-4.5397,-4.5397,-4.5397,-4.5397,-4.5397,-4.5397,-4.5397,-4.5397,-4.5397,-4.5397,-4.5397,-4.5397,-4.5397,-4.5397,-4.5397,-4.5397,-4.5397,-4.5397,-4.5397,-4.5397,-4.5397,-4.5397,-4.5397,-4.5397,-4.5397,-4.5397,-4.5397,-4.5397,-4.5363,-4.5225,-4.4544,-4.4225,-4.3949,-4.2516,-4.1981,-4.1826,-4.1136,-4.0912,-4.0912,-4.0912,-4.0912,-4.0912,-4.0912,-4.086,-4.0653,-3.9888,-3.9112,-3.8336,-3.7668,-3.6887,-3.6301,-3.6301,-3.6301,-3.6301,-3.6301,-3.6301,-3.6749,-3.8232,-3.8543,-3.91,-4.0584,0.0,0.0,-4.0912,-4.0912,-4.0601,-3.9802,-3.9698,-3.9405,-3.8663,-3.8594,-3.8594,-3.8594,-3.7978,-3.7564,-3.7512,-3.6784,-3.6353,-3.6301,-3.6404,-3.6818,-3.7581,-3.8323,-3.9008,-3.9698,-4.0532,-4.0912,-4.0912,-4.0912,-4.0912,-4.0912,-4.0912,-4.0912,-4.0912,-4.0912,-4.0912,-4.0912,-4.0912,-4.0912,-4.0912,-4.0912,-4.0912,-4.0912,-4.5397,-4.5397,-4.5397,-4.5397,-4.5397,-4.5397,-4.5397,-4.5397,-4.5397,-4.5397,-4.5397,-4.5397,-4.5397,-4.5397,-4.5397,-4.5397,-4.5397,-4.5397,-4.5397,-4.5397,-4.5397,-4.5397,-4.5397,-4.5397,-4.5397,-4.5397,-4.5397,-4.5397,-4.5397,-4.5397,-4.5397,-4.5397,-4.5397,-4.5397,-4.5397,-4.5397,-4.5397,-4.5397,-4.5397,-4.5397,-4.5397,-4.5397,-4.5363,-4.5096,-4.4699,-4.4173,-4.312,-4.243,-4.1895,-4.1153,-4.0912,-4.0912,-4.0912,-4.0912,-4.0912,-4.0912,-4.0912,-4.0843,-4.0532,-3.9871,-3.9112,-3.8375,-3.7616,-3.6904,-3.6404,-3.6301,-3.6301,-3.6301,-3.6301,-3.6628,-3.7715,-3.8306,-3.8922,-3.9974,0.0,-4.0912,-4.0912,-4.0457,-3.9871,-3.9112,-3.8594,-3.8025,-3.7249,-3.7163,-3.7163,-3.7163,-3.6904,-3.6749,-3.6749,-3.6473,-3.6301,-3.6301,-3.6301,-3.6439,-3.6749,-3.7974,-3.8732,-3.9026,-4.0308,-4.0912,-4.0912,-4.0912,-4.0912,-4.0912,-4.0912,-4.0912,-4.0912,-4.0912,-4.0912,-4.0912,-4.0912,-4.0912,-4.0912,-4.0912,-4.0912,-4.0912,-4.5476,-4.5423,-4.5397,-4.5397,-4.5397,-4.5397,-4.5397,-4.5397,-4.5397,-4.5397,-4.5397,-4.5397,-4.5397,-4.5397,-4.5397,-4.5397,-4.5397,-4.5397,-4.5397,-4.5397,-4.5397,-4.5397,-4.5397,-4.5397,-4.5397,-4.5397,-4.5397,-4.5397,-4.5397,-4.5397,-4.5397,-4.5397,-4.5397,-4.5397,-4.5397,-4.5397,-4.5397,-4.5397,-4.5397,-4.5397,-4.5397,-4.5397,-4.5397,-4.5397,-4.5096,-4.4544,-4.381,-4.3034,-4.2275,-4.1498,-4.1101,-4.0912,-4.0912,-4.0912,-4.0912,-4.0912,-4.0912,-4.0912,-4.0912,-4.0515,-3.9836,-3.8836,-3.8065,-3.7288,-3.6473,-3.6301,-3.6301,-3.6301,-3.6301,-3.6542,-3.7357,-3.7927,-3.8513,-3.9232,-3.9825,-4.0187,-4.0187,-3.9698,-3.9077,-3.8336,-3.7823,-3.7185,-3.6387,-3.6301,-3.6301,-3.6301,-3.6301,-3.6301,-3.6301,-3.6301,-3.6301,-3.6301,-3.6301,-3.6301,-3.6301,-3.7818,-3.8594,-3.8612,-4.017,-4.0912,-4.0912,-4.0912,-4.0912,-4.0912,-4.0912,-4.0912,-4.0912,-4.0912,-4.0912,-4.0912,-4.0912,-4.0912,-4.0912,-4.0912,-4.0912,-4.0912,-4.5607,-4.5502,-4.5397,-4.5397,-4.5397,-4.5397,-4.5397,-4.5397,-4.5397,-4.5397,-4.5397,-4.5397,-4.5397,-4.5397,-4.5397,-4.5397,-4.5397,-4.5397,-4.5397,-4.5397,-4.5397,-4.5397,-4.5397,-4.5397,-4.5397,-4.5397,-4.5397,-4.5397,-4.5397,-4.5397,-4.5397,-4.5397,-4.5397,-4.5397,-4.5397,-4.5397,-4.5397,-4.5397,-4.5397,-4.5397,-4.5397,-4.5397,-4.5397,-4.5397,-4.5397,-4.5294,-4.4544,-4.3828,-4.3086,-4.2275,-4.1516,-4.0912,-4.0912,-4.0912,-4.0912,-4.0912,-4.0912,-4.0912,-4.0912,-4.0912,-4.0532,-3.8996,-3.8065,-3.7323,-3.649,-3.6318,-3.6318,-3.6318,-3.6301,-3.6542,-3.734,-3.7512,-3.7754,-3.8456,-3.8594,-3.8594,-3.8594,-3.8594,-3.8301,-3.7599,-3.7495,-3.7185,-3.6387,-3.6301,-3.6301,-3.6301,-3.6301,-3.6301,-3.6301,-3.6301,-3.6301,-3.6301,-3.6301,-3.6301,-3.6301,-3.7818,-3.8577,-3.8617,-4.0152,-4.0894,-4.0894,-4.0912,-4.0912,-4.0912,-4.0912,-4.0912,-4.0912,-4.0912,-4.0912,-4.0912,-4.0912,-4.0912,-4.0912,-4.0912,-4.0912,-4.0912,-4.5744,-4.5693,-4.5667,-4.5667,-4.5667,-4.5667,-4.5667,-4.5667,-4.5658,-4.5537,-4.5554,-4.5502,-4.5397,-4.5397,-4.5397,-4.5397,-4.5397,-4.5397,-4.5397,-4.5397,-4.5397,-4.5397,-4.5397,-4.5397,-4.5397,-4.5397,-4.5397,-4.5397,-4.5397,-4.5397,-4.5397,-4.5397,-4.5397,-4.5397,-4.5397,-4.5397,-4.5397,-4.5397,-4.5397,-4.5397,-4.5397,-4.5397,-4.5397,-4.5397,-4.5397,-4.5294,-4.4544,-4.3828,-4.3086,-4.2275,-4.1516,-4.0912,-4.0912,-4.0912,-4.0912,-4.0912,-4.0912,-4.0912,-4.0912,-4.0912,-4.0653,-3.9629,-3.9198,-3.8836,-3.8077,-3.7905,-3.7767,-3.7254,-3.715,-3.7025,-3.6715,-3.7133,-3.7581,-3.7806,-3.8249,-3.8594,-3.8594,-3.8146,-3.7754,-3.753,-3.6991,-3.6559,-3.6318,-3.6301,-3.6301,-3.6301,-3.6301,-3.6301,-3.6301,-3.6301,-3.6301,-3.6301,-3.6301,-3.6301,-3.6301,-3.7318,-3.784,-3.7858,-3.9336,-4.0043,-4.0077,-4.0653,-4.0912,-4.0912,-4.0912,-4.0912,-4.0912,-4.0912,-4.0912,-4.0912,-4.0912,-4.0912,-4.0912,-4.0912,-4.0912,-4.0912,-4.5871,-4.5821,-4.5795,-4.5795,-4.5795,-4.5795,-4.5795,-4.5795,-4.577,-4.5693,-4.5667,-4.5641,-4.5581,-4.5554,-4.5528,-4.5476,-4.5423,-4.5397,-4.5397,-4.5397,-4.5397,-4.5397,-4.5397,-4.5397,-4.5397,-4.5397,-4.5397,-4.5397,-4.5397,-4.5397,-4.5397,-4.5397,-4.5397,-4.5397,-4.5397,-4.5397,-4.5397,-4.5397,-4.5397,-4.5397,-4.5397,-4.5397,-4.5397,-4.5397,-4.5397,-4.5328,-4.4906,-4.4087,-4.312,-4.2637,-4.1774,-4.0912,-4.0912,-4.0912,-4.0912,-4.0912,-4.0912,-4.0912,-4.0912,-4.0912,-4.0791,-4.0284,-3.9939,-3.9508,-3.8767,-3.8594,-3.8456,-3.8047,-3.7702,-3.7357,-3.6853,-3.6904,-3.7047,-3.7047,-3.7387,-3.768,-3.768,-3.7301,-3.7047,-3.7047,-3.6594,-3.6301,-3.6301,-3.6301,-3.6301,-3.6301,-3.6301,-3.6301,-3.6301,-3.6301,-3.6301,-3.6301,-3.6301,-3.6301,-3.6301,-3.6766,-3.7202,-3.7512,-3.8703,-3.9422,-3.9715,-4.0198,-4.0601,-4.0912,-4.0912,-4.0912,-4.0912,-4.0912,-4.0912,-4.0912,-4.0912,-4.0912,-4.0912,-4.0912,-4.0912,-4.0912,-4.6048,-4.5947,-4.5846,-4.5846,-4.5821,-4.5821,-4.5821,-4.5821,-4.5821,-4.5821,-4.5821,-4.5821,-4.5795,-4.5795,-4.5744,-4.5632,-4.5502,-4.5423,-4.5423,-4.5423,-4.5423,-4.5423,-4.5397,-4.5397,-4.5397,-4.5397,-4.5397,-4.5397,-4.5397,-4.5397,-4.5397,-4.5397,-4.5397,-4.5397,-4.5397,-4.5397,-4.5397,-4.5397,-4.5397,-4.5397,-4.5397,-4.5397,-4.5397,-4.5397,-4.5397,-4.5397,-4.5397,-4.4492,-4.3276,-4.3138,-4.212,-4.0912,-4.0912,-4.0912,-4.0912,-4.0912,-4.0912,-4.0912,-4.0912,-4.0912,-4.0912,-4.0912,-4.0359,-3.9629,-3.8957,-3.8801,-3.8784,-3.8698,-3.8168,-3.7668,-3.753,-3.6887,-3.6387,-3.6318,-3.6301,-3.6301,-3.6301,-3.6301,-3.6301,-3.6301,-3.6301,-3.6301,-3.6301,-3.6301,-3.6301,-3.6301,-3.6301,-3.6301,-3.6301,-3.6301,-3.6301,-3.6301,-3.6301,-3.6301,-3.6301,-3.6301,-3.6663,-3.7409,-3.8151,-3.8836,-3.9508,-3.9629,-4.0095,-4.0808,-4.0877,-4.0912,-4.0912,-4.0912,-4.0912,-4.0912,-4.0912,-4.0912,-4.0912,-4.0912,-4.0912,-4.0912,-4.635,-4.6301,-4.6228,-4.6122,-4.6122,-4.6122,-4.6122,-4.6122,-4.6073,-4.5972,-4.5947,-4.5922,-4.5795,-4.5795,-4.5795,-4.5744,-4.5718,-4.5718,-4.5718,-4.5615,-4.5554,-4.5554,-4.545,-4.5397,-4.5397,-4.5397,-4.5397,-4.5397,-4.5397,-4.5397,-4.5397,-4.5397,-4.5397,-4.5397,-4.5397,-4.5397,-4.5397,-4.5397,-4.5397,-4.5397,-4.5397,-4.5397,-4.5397,-4.5397,-4.5397,-4.5397,-4.5397,-4.482,-4.388,-4.2672,-4.1654,-4.0912,-4.0912,-4.0912,-4.0912,-4.0912,-4.0912,-4.0912,-4.0912,-4.0912,-4.0912,-4.0912,-4.0774,-4.0601,-4.0446,-4.0411,-4.0221,-3.9577,-3.9319,-3.887,-3.7719,-3.7374,-3.7025,-3.6404,-3.6301,-3.6301,-3.6301,-3.6301,-3.6301,-3.6301,-3.6301,-3.6301,-3.6301,-3.6301,-3.6301,-3.6301,-3.6301,-3.6301,-3.6301,-3.6301,-3.6301,-3.6301,-3.6301,-3.6301,-3.6301,-3.6301,-3.6387,-3.6559,-3.7353,-3.7823,-3.803,-3.9163,-3.9802,-3.9991,-4.0636,-4.0912,-4.0912,-4.0912,-4.0912,-4.0912,-4.0912,-4.0912,-4.0912,-4.0912,-4.0912,-4.0912,-4.6742,-4.6666,-4.6566,-4.6512,-4.6374,-4.6319,-4.6319,-4.6246,-4.6172,-4.6097,-4.6097,-4.6073,-4.5998,-4.5998,-4.5972,-4.5897,-4.5821,-4.5795,-4.5795,-4.5718,-4.571,-4.571,-4.5632,-4.5607,-4.5607,-4.5528,-4.5476,-4.5397,-4.5397,-4.5397,-4.5397,-4.5397,-4.5397,-4.5397,-4.5397,-4.5397,-4.5397,-4.5397,-4.5397,-4.5397,-4.5397,-4.5397,-4.5397,-4.5397,-4.5397,-4.5397,-4.5397,-4.4699,-4.3586,-4.2413,-4.1516,-4.0912,-4.0912,-4.0912,-4.0912,-4.0912,-4.0912,-4.0912,-4.0912,-4.0912,-4.0912,-4.0912,-4.0912,-4.0912,-4.0912,-4.0912,-4.0791,-4.0377,-3.9957,-3.9457,-3.8681,-3.8249,-3.7771,-3.6991,-3.687,-3.6732,-3.6353,-3.6301,-3.6301,-3.6301,-3.6301,-3.6301,-3.6301,-3.6301,-3.6301,-3.6301,-3.6301,-3.6301,-3.6301,-3.6301,-3.6301,-3.6301,-3.6301,-3.6301,-3.6301,-3.6301,-3.6301,-3.6301,-3.6715,-3.7133,-3.7547,-3.8646,-3.937,-3.9733,-4.0567,-4.0912,-4.0912,-4.0912,-4.0912,-4.0912,-4.0912,-4.0912,-4.0912,-4.0912,-4.0912,-4.0912,-4.7178,-4.7035,-4.6911,-4.6847,-4.6684,-4.6525,-4.6501,-4.6416,-4.6319,-4.6295,-4.6295,-4.6295,-4.6246,-4.6196,-4.6147,-4.6048,-4.5922,-4.5871,-4.5871,-4.5846,-4.5821,-4.5821,-4.5795,-4.5795,-4.5795,-4.5693,-4.5581,-4.5423,-4.5397,-4.5397,-4.5397,-4.5397,-4.5397,-4.5397,-4.5397,-4.5397,-4.5397,-4.5397,-4.5423,-4.5423,-4.5397,-4.5423,-4.5423,-4.5397,-4.5397,-4.5397,-4.5423,-4.4578,-4.335,-4.2694,-4.1961,-4.1298,-4.116,-4.1125,-4.1067,-4.0946,-4.0912,-4.0912,-4.0912,-4.0912,-4.0912,-4.0912,-4.0912,-4.0912,-4.0912,-4.0912,-4.0912,-4.0912,-4.0377,-3.9853,-3.9715,-3.9198,-3.8491,-3.765,-3.7512,-3.7236,-3.6404,-3.6301,-3.6301,-3.6301,-3.6301,-3.6301,-3.6301,-3.6301,-3.6301,-3.6301,-3.6301,-3.6301,-3.6301,-3.6301,-3.6301,-3.6301,-3.6301,-3.6301,-3.6301,-3.6301,-3.6301,-3.6301,-3.6301,-3.6646,-3.7323,-3.8198,-3.8922,-3.956,-4.0515,-4.0912,-4.0912,-4.0912,-4.0912,-4.0912,-4.0912,-4.0912,-4.0912,-4.0912,-4.0912,-4.0912,-4.7569,-4.7457,-4.732,-4.7102,-4.7017,-4.6989,-4.6934,-4.6888,-4.6842,-4.6749,-4.6725,-4.6637,-4.6398,-4.627,-4.6196,-4.6172,-4.6147,-4.6147,-4.6147,-4.6023,-4.5972,-4.5972,-4.5846,-4.5795,-4.5795,-4.577,-4.571,-4.5563,-4.545,-4.5397,-4.5397,-4.5397,-4.5397,-4.5397,-4.5397,-4.5397,-4.5397,-4.5397,-4.5476,-4.5563,-4.545,-4.5476,-4.5554,-4.545,-4.5397,-4.5423,-4.5528,-4.5112,-4.4473,-4.4369,-4.3756,-4.293,-4.2237,-4.1957,-4.174,-4.1101,-4.0912,-4.0912,-4.0912,-4.0912,-4.0912,-4.0912,-4.0912,-4.0912,-4.0912,-4.0912,-4.0912,-4.0912,-4.0825,-4.0532,-3.9819,-3.9612,-3.9094,-3.7719,-3.7512,-3.7236,-3.6404,-3.6301,-3.6301,-3.6301,-3.6301,-3.6301,-3.6301,-3.6301,-3.6301,-3.6301,-3.6301,-3.6301,-3.6301,-3.6301,-3.6301,-3.6301,-3.6301,-3.6301,-3.6301,-3.6301,-3.6301,-3.6301,-3.6301,-3.6353,-3.6508,-3.7939,-3.8646,-3.8819,-4.0273,-4.0912,-4.0912,-4.0912,-4.0912,-4.0912,-4.0912,-4.0912,-4.0912,-4.0912,-4.0912,-4.0912,-4.8131,-4.7974,-4.779,-4.7627,-4.7482,-4.7371,-4.7276,-4.7227,-4.712,-4.6989,-4.6939,-4.6819,-4.6542,-4.6343,-4.6196,-4.6196,-4.6196,-4.6196,-4.6196,-4.6147,-4.6097,-4.6097,-4.6048,-4.6023,-4.6023,-4.5947,-4.5871,-4.5821,-4.5693,-4.5615,-4.5615,-4.5615,-4.5615,-4.5615,-4.5615,-4.5615,-4.5615,-4.5615,-4.5641,-4.571,-4.5658,-4.5641,-4.571,-4.5658,-4.5615,-4.5632,-4.5693,-4.5283,-4.4697,-4.4697,-4.4118,-4.336,-4.2972,-4.2459,-4.1947,-4.1619,-4.1222,-4.0912,-4.0912,-4.0912,-4.0912,-4.0912,-4.0912,-4.0912,-4.0912,-4.0959,-4.0982,-4.0912,-4.0912,-4.0791,-4.0446,-4.0353,-4.0008,-3.8927,-3.8392,-3.7858,-3.7077,-3.6577,-3.6301,-3.6301,-3.6301,-3.6301,-3.6301,-3.6301,-3.6301,-3.6301,-3.6301,-3.6301,-3.6301,-3.6301,-3.6301,-3.6301,-3.6301,-3.6301,-3.6301,-3.6301,-3.6301,-3.6301,-3.6301,-3.6301,-3.6353,-3.7887,-3.8594,-3.8703,-4.0239,-4.0912,-4.0912,-4.0912,-4.0912,-4.0912,-4.0912,-4.0912,-4.0912,-4.0912,-4.0912,-4.0912]},{"header":{"parameterUnit":"m.s-1","parameterCategory":1,"la1":30.6,"la2":28.766,"lo1":-90.7593,"lo2":-88.6598,"dy":0.0162,"dx":0.0183,"nx":116,"ny":114,"refTime":"2024-06-26T12:00:00:Z","depth":0,"parameterNumber":3,"parameterNumberName":"V-component_of_WINDS"},"data":[0.0,0.0,0.0,0.0,0.0,0.0,0.0,0.0,0.0,0.0,0.0,0.0,0.0,0.0,0.0,0.0,0.0,0.0,0.0,0.0,0.0,0.0,0.0,0.0,0.0,0.0,0.0,0.0,0.0,0.0,0.0,0.0,0.0,0.0,0.0,0.0,0.0,0.0,0.0,0.0,0.0,0.0,0.0,0.0,0.0,0.0,0.0,0.0,0.0,0.0,0.0,0.0,0.0,0.0,0.0,0.0,0.0,0.0,0.0,0.0,0.0,0.0,0.0,0.0,0.0,0.0,0.0,0.0,0.0,0.0,0.0,0.0,0.0,0.0,0.0,0.0,0.0,0.0,0.0,0.0,0.0,0.0,0.0,0.0,0.0,0.0,0.0,0.0,0.0,0.0,0.0,0.0,0.0,0.0,0.0,0.0,0.0,0.0,0.0,0.0,0.0,0.0,0.0,0.0,0.0,0.0,0.0,0.0,0.0,0.0,0.0,0.0,0.0,0.0,0.0,0.0,0.0,0.0,0.0,0.0,0.0,0.0,0.0,0.0,0.0,0.0,0.0,0.0,0.0,0.0,0.0,0.0,0.0,0.0,0.0,0.0,0.0,0.0,0.0,0.0,0.0,0.0,0.0,0.0,0.0,0.0,0.0,0.0,0.0,0.0,0.0,0.0,0.0,0.0,0.0,0.0,0.0,0.0,0.0,0.0,0.0,0.0,0.0,0.0,0.0,0.0,0.0,0.0,0.0,0.0,0.0,0.0,0.0,0.0,0.0,0.0,0.0,0.0,0.0,0.0,0.0,0.0,0.0,0.0,0.0,0.0,0.0,0.0,0.0,0.0,0.0,0.0,0.0,0.0,0.0,0.0,0.0,0.0,0.0,0.0,0.0,0.0,0.0,0.0,0.0,0.0,0.0,0.0,0.0,0.0,0.0,0.0,0.0,0.0,0.0,0.0,0.0,0.0,0.0,0.0,0.0,0.0,0.0,0.0,0.0,0.0,0.0,0.0,0.0,0.0,0.0,0.0,0.0,0.0,0.0,0.0,0.0,0.0,0.0,0.0,0.0,0.0,0.0,0.0,0.0,0.0,0.0,0.0,0.0,0.0,0.0,0.0,0.0,0.0,0.0,0.0,0.0,0.0,0.0,0.0,0.0,0.0,0.0,0.0,0.0,0.0,0.0,0.0,0.0,0.0,0.0,0.0,0.0,0.0,0.0,0.0,0.0,0.0,0.0,0.0,0.0,0.0,0.0,0.0,0.0,0.0,0.0,0.0,0.0,0.0,0.0,0.0,0.0,0.0,0.0,0.0,0.0,0.0,0.0,0.0,0.0,0.0,0.0,0.0,0.0,0.0,0.0,0.0,0.0,0.0,0.0,0.0,0.0,0.0,0.0,0.0,0.0,0.0,0.0,0.0,0.0,0.0,0.0,0.0,0.0,0.0,0.0,0.0,0.0,0.0,0.0,0.0,0.0,0.0,0.0,0.0,0.0,0.0,0.0,0.0,0.0,0.0,0.0,0.0,0.0,0.0,0.0,0.0,0.0,0.0,0.0,0.0,0.0,0.0,0.0,0.0,0.0,0.0,0.0,0.0,0.0,0.0,0.0,0.0,0.0,0.0,0.0,0.0,0.0,0.0,0.0,0.0,0.0,0.0,0.0,0.0,0.0,0.0,0.0,0.0,0.0,0.0,0.0,0.0,0.0,0.0,0.0,0.0,0.0,0.0,0.0,0.0,0.0,0.0,0.0,0.0,0.0,0.0,0.0,0.0,0.0,0.0,0.0,0.0,0.0,0.0,0.0,0.0,0.0,0.0,0.0,0.0,0.0,0.0,0.0,0.0,0.0,0.0,0.0,0.0,0.0,0.0,0.0,0.0,0.0,0.0,0.0,0.0,0.0,0.0,0.0,0.0,0.0,0.0,0.0,0.0,0.0,0.0,0.0,0.0,0.0,0.0,0.0,0.0,0.0,0.0,0.0,0.0,0.0,0.0,0.0,0.0,0.0,0.0,0.0,0.0,0.0,0.0,0.0,0.0,0.0,0.0,0.0,0.0,0.0,0.0,0.0,0.0,0.0,0.0,0.0,0.0,0.0,0.0,0.0,0.0,0.0,0.0,0.0,0.0,0.0,0.0,0.0,0.0,0.0,0.0,0.0,0.0,0.0,0.0,0.0,0.0,0.0,0.0,0.0,0.0,0.0,0.0,0.0,0.0,0.0,0.0,0.0,0.0,0.0,0.0,0.0,0.0,0.0,0.0,0.0,0.0,0.0,0.0,0.0,0.0,0.0,0.0,0.0,0.0,0.0,0.0,0.0,0.0,0.0,0.0,0.0,0.0,0.0,0.0,0.0,0.0,0.0,0.0,0.0,0.0,0.0,0.0,0.0,0.0,0.0,0.0,0.0,0.0,0.0,0.0,0.0,0.0,0.0,0.0,0.0,0.0,0.0,0.0,0.0,0.0,0.0,0.0,0.0,0.0,0.0,0.0,0.0,0.0,0.0,0.0,0.0,0.0,0.0,0.0,0.0,0.0,0.0,0.0,0.0,0.0,0.0,0.0,0.0,0.0,0.0,0.0,0.0,0.0,0.0,0.0,0.0,0.0,0.0,0.0,0.0,0.0,0.0,0.0,0.0,0.0,0.0,0.0,0.0,0.0,0.0,0.0,0.0,0.0,0.0,0.0,0.0,0.0,0.0,0.0,0.0,0.0,0.0,0.0,0.0,0.0,0.0,0.0,0.0,0.0,0.0,0.0,0.0,0.0,0.0,0.0,0.0,0.0,0.0,0.0,0.0,0.0,0.0,0.0,0.0,0.0,0.0,0.0,0.0,0.0,0.0,0.0,0.0,0.0,0.0,0.0,0.0,0.0,0.0,0.0,0.0,0.0,0.0,0.0,0.0,0.0,0.0,0.0,0.0,0.0,0.0,0.0,0.0,0.0,0.0,0.0,0.0,0.0,0.0,0.0,0.0,0.0,0.0,0.0,0.0,0.0,0.0,0.0,0.0,0.0,0.0,0.0,0.0,0.0,0.0,0.0,0.0,0.0,0.0,0.0,0.0,0.0,0.0,0.0,0.0,0.0,0.0,0.0,0.0,0.0,0.0,0.0,0.0,0.0,0.0,0.0,0.0,0.0,0.0,0.0,0.0,0.0,0.0,0.0,0.0,0.0,0.0,0.0,0.0,0.0,0.0,0.0,0.0,0.0,0.0,0.0,0.0,0.0,0.0,0.0,0.0,0.0,0.0,0.0,0.0,0.0,0.0,0.0,0.0,0.0,0.0,0.0,0.0,0.0,0.0,0.0,0.0,0.0,0.0,0.0,0.0,0.0,0.0,0.0,0.0,0.0,0.0,0.0,0.0,0.0,0.0,0.0,0.0,0.0,0.0,0.0,0.0,0.0,0.0,0.0,0.0,0.0,0.0,0.0,0.0,0.0,0.0,0.0,0.0,0.0,0.0,0.0,0.0,0.0,0.0,0.0,0.0,0.0,0.0,0.0,0.0,0.0,0.0,0.0,0.0,0.0,0.0,0.0,0.0,0.0,0.0,0.0,0.0,0.0,0.0,0.0,0.0,0.0,0.0,0.0,0.0,0.0,0.0,0.0,0.0,0.0,0.0,0.0,0.0,0.0,0.0,0.0,0.0,0.0,0.0,0.0,0.0,0.0,0.0,0.0,0.0,0.0,0.0,0.0,0.0,0.0,0.0,0.0,0.0,0.0,0.0,0.0,0.0,0.0,0.0,0.0,0.0,0.0,0.0,0.0,0.0,0.0,0.0,0.0,0.0,0.0,0.0,0.0,0.0,0.0,0.0,0.0,0.0,0.0,0.0,0.0,0.0,0.0,0.0,0.0,0.0,0.0,0.0,0.0,0.0,0.0,0.0,0.0,0.0,0.0,0.0,0.0,0.0,0.0,0.0,0.0,0.0,0.0,0.0,0.0,0.0,0.0,0.0,0.0,0.0,0.0,0.0,0.0,0.0,0.0,0.0,0.0,0.0,0.0,0.0,0.0,0.0,0.0,0.0,0.0,0.0,0.0,0.0,0.0,0.0,0.0,0.0,0.0,0.0,0.0,0.0,0.0,0.0,0.0,0.0,0.0,0.0,0.0,0.0,0.0,0.0,0.0,0.0,0.0,0.0,0.0,0.0,0.0,0.0,0.0,0.0,0.0,0.0,0.0,0.0,0.0,0.0,0.0,0.0,0.0,0.0,0.0,0.0,0.0,0.0,0.0,0.0,0.0,0.0,0.0,0.0,0.0,0.0,0.0,0.0,0.0,0.0,0.0,0.0,0.0,0.0,0.0,0.0,0.0,0.0,0.0,0.0,0.0,0.0,0.0,0.0,0.0,0.0,0.0,0.0,0.0,0.0,0.0,0.0,0.0,0.0,0.0,0.0,0.0,0.0,0.0,0.0,0.0,0.0,0.0,0.0,0.0,0.0,0.0,0.0,0.0,0.0,0.0,0.0,0.0,0.0,0.0,0.0,0.0,0.0,0.0,0.0,0.0,0.0,0.0,0.0,0.0,0.0,0.0,0.0,0.0,0.0,0.0,0.0,0.0,0.0,0.0,0.0,0.0,0.0,0.0,0.0,0.0,0.0,0.0,0.0,0.0,0.0,0.0,0.0,0.0,0.0,0.0,0.0,0.0,0.0,0.0,0.0,0.0,0.0,0.0,0.0,0.0,0.0,0.0,0.0,0.0,0.0,0.0,0.0,0.0,0.0,0.0,0.0,0.0,0.0,0.0,0.0,0.0,0.0,0.0,0.0,0.0,0.0,0.0,0.0,0.0,0.0,0.0,0.0,0.0,0.0,0.0,0.0,0.0,0.0,0.0,0.0,0.0,0.0,0.0,0.0,0.0,0.0,0.0,0.0,0.0,0.0,0.0,0.0,0.0,0.0,0.0,0.0,0.0,0.0,0.0,0.0,0.0,0.0,0.0,0.0,0.0,0.0,0.0,0.0,0.0,0.0,0.0,0.0,0.0,0.0,0.0,0.0,0.0,0.0,0.0,0.0,0.0,0.0,0.0,0.0,0.0,0.0,0.0,0.0,0.0,0.0,0.0,0.0,0.0,0.0,0.0,0.0,0.0,0.0,0.0,0.0,0.0,0.0,0.0,0.0,0.0,0.0,0.0,0.0,0.0,0.0,0.0,0.0,0.0,0.0,0.0,0.0,0.0,0.0,0.0,0.0,0.0,0.0,0.0,0.0,0.0,0.0,0.0,0.0,0.0,0.0,0.0,0.0,0.0,0.0,0.0,0.0,0.0,0.0,0.0,0.0,0.0,0.0,0.0,0.0,0.0,0.0,0.0,0.0,0.0,0.0,0.0,0.0,0.0,0.0,0.0,0.0,0.0,0.0,0.0,0.0,0.0,0.0,0.0,0.0,0.0,0.0,0.0,0.0,0.0,0.0,0.0,0.0,0.0,0.0,0.0,0.0,0.0,0.0,0.0,0.0,0.0,0.0,0.0,0.0,0.0,0.0,0.0,0.0,0.0,0.0,0.0,0.0,0.0,0.0,0.0,0.0,0.0,0.0,0.0,0.0,0.0,0.0,0.0,0.0,0.0,0.0,0.0,0.0,0.0,0.0,0.0,0.0,0.0,0.0,0.0,0.0,0.0,0.0,0.0,0.0,0.0,0.0,0.0,0.0,0.0,0.0,0.0,0.0,0.0,0.0,0.0,0.0,0.0,0.0,0.0,0.0,0.0,0.0,0.0,0.0,0.0,0.0,0.0,0.0,0.0,0.0,0.0,0.0,0.0,0.0,0.0,0.0,0.0,0.0,0.0,0.0,0.0,0.0,0.0,0.0,0.0,0.0,0.0,0.0,0.0,0.0,0.0,0.0,0.0,0.0,0.0,0.0,0.0,0.0,0.0,0.0,0.0,0.0,0.0,0.0,0.0,0.0,0.0,0.0,0.0,0.0,0.0,0.0,0.0,0.0,0.0,0.0,0.0,0.0,0.0,0.0,0.0,0.0,0.0,0.0,0.0,0.0,0.0,0.0,0.0,0.0,0.0,0.0,0.0,0.0,0.0,0.0,0.0,0.0,0.0,0.0,0.0,0.0,0.0,0.0,0.0,0.0,0.0,0.0,0.0,0.0,0.0,-2.1978,0.0,0.0,0.0,0.0,0.0,0.0,0.0,0.0,0.0,0.0,0.0,0.0,0.0,0.0,0.0,0.0,0.0,0.0,0.0,0.0,0.0,0.0,0.0,0.0,-1.8449,-1.834,-1.8166,-1.7744,-1.7273,-1.6722,0.0,0.0,0.0,0.0,0.0,-1.4515,-1.4515,-1.4515,-1.4515,-1.4556,-1.4645,-1.4743,-1.4743,-1.4654,-1.4515,0.0,0.0,0.0,0.0,0.0,0.0,0.0,0.0,0.0,0.0,0.0,0.0,0.0,0.0,0.0,0.0,0.0,0.0,0.0,0.0,0.0,0.0,0.0,0.0,0.0,0.0,0.0,0.0,0.0,0.0,0.0,0.0,0.0,0.0,0.0,0.0,0.0,0.0,0.0,0.0,0.0,0.0,0.0,0.0,0.0,0.0,0.0,0.0,0.0,0.0,0.0,0.0,0.0,0.0,0.0,0.0,0.0,0.0,0.0,0.0,0.0,0.0,0.0,0.0,0.0,0.0,0.0,0.0,0.0,0.0,0.0,-2.3235,0.0,0.0,0.0,0.0,0.0,0.0,0.0,0.0,0.0,0.0,0.0,0.0,0.0,0.0,0.0,0.0,0.0,0.0,0.0,0.0,0.0,-1.7433,-1.8507,-1.8518,-1.8422,-1.8394,-1.7838,-1.7301,-1.6846,0.0,0.0,0.0,0.0,-1.4604,-1.4604,-1.4604,-1.4632,-1.4706,-1.4872,-1.505,-1.5218,-1.5218,0.0,0.0,-1.466,0.0,0.0,0.0,0.0,0.0,0.0,0.0,0.0,0.0,0.0,0.0,0.0,0.0,0.0,0.0,0.0,0.0,0.0,0.0,0.0,0.0,0.0,0.0,0.0,0.0,0.0,0.0,0.0,0.0,0.0,0.0,0.0,0.0,0.0,0.0,0.0,0.0,0.0,0.0,0.0,0.0,0.0,0.0,0.0,0.0,0.0,0.0,0.0,0.0,0.0,0.0,0.0,0.0,0.0,0.0,0.0,0.0,0.0,0.0,0.0,0.0,0.0,0.0,-2.1008,-2.1767,-2.2798,-2.3293,-2.4022,-2.4862,-2.5155,-2.4904,-2.4347,-2.5051,0.0,0.0,0.0,0.0,0.0,0.0,0.0,0.0,0.0,0.0,0.0,0.0,0.0,0.0,0.0,0.0,0.0,0.0,0.0,-1.7584,-1.8652,-1.8652,-1.8545,-1.8422,-1.7838,-1.7301,-1.6846,0.0,0.0,0.0,-1.5029,-1.4911,-1.4911,-1.4911,-1.512,-1.547,-1.582,-1.6031,-1.6031,0.0,0.0,0.0,-1.5262,-1.4852,0.0,0.0,0.0,0.0,0.0,0.0,0.0,0.0,0.0,0.0,0.0,0.0,0.0,0.0,0.0,0.0,0.0,0.0,0.0,0.0,0.0,0.0,0.0,0.0,0.0,0.0,0.0,0.0,0.0,0.0,0.0,0.0,0.0,0.0,0.0,0.0,0.0,0.0,0.0,0.0,0.0,0.0,-1.5068,-1.4959,0.0,0.0,0.0,0.0,0.0,0.0,0.0,0.0,0.0,0.0,0.0,0.0,0.0,-1.8784,-1.9592,-1.9689,-2.0004,-2.0599,-2.122,-2.1876,-2.2591,-2.3993,-2.5064,-2.5937,-2.6712,0.0,-2.5563,-2.5355,0.0,0.0,0.0,0.0,0.0,0.0,0.0,0.0,0.0,0.0,0.0,0.0,0.0,0.0,0.0,0.0,0.0,0.0,0.0,0.0,0.0,-1.8721,-1.8587,-1.8518,-1.7881,-1.7329,0.0,0.0,0.0,-1.5342,-1.5117,-1.5,-1.5,-1.5228,-1.5581,-1.6093,-1.6274,-1.6392,0.0,0.0,0.0,0.0,0.0,0.0,0.0,0.0,0.0,0.0,0.0,0.0,0.0,0.0,0.0,0.0,0.0,0.0,0.0,0.0,0.0,0.0,0.0,0.0,0.0,0.0,0.0,0.0,0.0,0.0,0.0,0.0,0.0,0.0,0.0,0.0,0.0,0.0,0.0,0.0,0.0,0.0,0.0,0.0,0.0,0.0,0.0,-1.5038,-1.5394,-1.5598,-1.5741,-1.586,0.0,0.0,0.0,0.0,0.0,0.0,0.0,0.0,0.0,-1.8992,-1.9635,-2.0217,-2.0603,-2.113,-2.1486,-2.1723,-2.2218,-2.274,-2.3356,-2.421,-2.5151,-2.6202,-2.6865,-2.7106,-2.6984,-2.6753,-2.6468,-2.6216,0.0,0.0,0.0,0.0,-2.5879,-2.5879,0.0,0.0,0.0,0.0,0.0,0.0,0.0,0.0,0.0,0.0,0.0,0.0,-1.8939,-1.8774,-1.864,-1.864,0.0,0.0,0.0,0.0,0.0,-1.5507,-1.5254,-1.5108,-1.5108,-1.5603,-1.6174,0.0,0.0,0.0,0.0,0.0,0.0,0.0,0.0,0.0,0.0,0.0,0.0,0.0,0.0,0.0,0.0,0.0,0.0,0.0,0.0,0.0,0.0,0.0,0.0,0.0,0.0,0.0,0.0,0.0,0.0,0.0,0.0,0.0,0.0,0.0,0.0,0.0,0.0,0.0,0.0,0.0,0.0,0.0,0.0,0.0,0.0,0.0,0.0,0.0,0.0,-1.5524,-1.5915,-1.6289,-1.6497,-1.6646,0.0,0.0,0.0,0.0,0.0,0.0,-1.8457,-1.9273,-1.9762,-1.9841,-2.0798,-2.1379,-2.1459,-2.2172,-2.2475,-2.2475,-2.2833,-2.3234,-2.3787,-2.4194,-2.5059,-2.6237,-2.6783,-2.7368,-2.7985,-2.7789,-2.7471,-2.7168,-2.706,-2.7012,-2.7012,-2.7012,-2.7012,-2.7012,0.0,0.0,0.0,0.0,0.0,0.0,0.0,0.0,0.0,0.0,0.0,-1.841,0.0,0.0,0.0,0.0,0.0,0.0,0.0,0.0,0.0,-1.5701,-1.5488,-1.5391,-1.5391,-1.6198,0.0,0.0,0.0,0.0,0.0,0.0,0.0,0.0,0.0,0.0,0.0,0.0,0.0,0.0,0.0,0.0,0.0,0.0,0.0,0.0,0.0,0.0,0.0,0.0,0.0,0.0,0.0,0.0,0.0,0.0,0.0,0.0,0.0,0.0,0.0,0.0,0.0,0.0,0.0,0.0,0.0,0.0,0.0,0.0,0.0,0.0,0.0,0.0,0.0,0.0,0.0,0.0,0.0,-1.7191,-1.7782,0.0,0.0,0.0,0.0,-1.8687,-1.933,-1.9696,-1.9711,-2.0325,-2.0759,-2.1123,-2.1489,-2.1825,-2.2132,-2.2229,-2.2244,-2.2244,-2.2475,-2.2818,-2.3196,-2.4021,-2.5051,-2.6211,-2.6774,-2.7476,-2.8262,-2.7842,-2.7708,-2.7598,-2.7178,-2.7012,-2.7012,-2.7012,-2.7012,-2.7012,0.0,0.0,0.0,-1.5828,-1.5792,-1.5792,-1.5792,-1.6559,-1.7171,-1.7363,-1.8169,0.0,0.0,0.0,0.0,0.0,0.0,0.0,0.0,0.0,0.0,-1.5827,-1.5536,-1.5644,-1.6219,-1.6846,0.0,0.0,0.0,0.0,0.0,0.0,0.0,0.0,0.0,0.0,0.0,0.0,0.0,0.0,0.0,0.0,0.0,0.0,0.0,0.0,0.0,0.0,0.0,0.0,0.0,0.0,0.0,0.0,0.0,0.0,0.0,0.0,0.0,0.0,0.0,0.0,0.0,0.0,0.0,0.0,0.0,0.0,0.0,0.0,0.0,0.0,0.0,0.0,0.0,0.0,0.0,0.0,0.0,-1.7889,-1.816,0.0,-1.8884,-1.903,-1.9272,-1.9689,-2.0128,-2.0472,-2.0684,-2.1108,-2.1496,-2.1825,-2.2132,-2.2352,-2.2469,-2.2674,-2.2776,-2.2776,-2.3083,-2.3451,-2.3795,-2.4714,-2.5536,-2.6307,-2.7049,-2.7668,-2.8057,-2.8072,-2.8066,-2.8057,-2.79,-2.7842,-2.7842,-2.7842,-2.7842,-2.7842,-1.5792,-1.5792,0.0,-1.5792,-1.5792,-1.5792,-1.5792,-1.6715,-1.7387,-1.7387,-1.8338,0.0,0.0,0.0,0.0,0.0,0.0,0.0,0.0,0.0,-1.6239,-1.5856,-1.5713,-1.5977,-1.6687,0.0,0.0,0.0,0.0,0.0,0.0,0.0,0.0,0.0,0.0,0.0,0.0,0.0,0.0,0.0,0.0,0.0,-1.4992,0.0,0.0,0.0,0.0,0.0,0.0,0.0,0.0,0.0,0.0,0.0,0.0,0.0,0.0,0.0,0.0,0.0,0.0,0.0,0.0,0.0,0.0,0.0,0.0,0.0,0.0,0.0,0.0,0.0,0.0,0.0,0.0,0.0,0.0,0.0,-1.8021,-1.8562,-1.8825,-1.9125,-1.9557,-1.9703,-1.9945,-2.0369,-2.0801,-2.1145,-2.1364,-2.1774,-2.2111,-2.2323,-2.263,-2.2784,-2.2784,-2.3003,-2.3106,-2.3106,-2.3417,-2.386,-2.4286,-2.5101,-2.5991,-2.6818,-2.737,-2.7822,-2.8217,-2.8296,-2.8291,-2.8291,-2.8291,-2.8291,-2.8291,-2.8291,-2.8291,-2.8291,-1.5792,-1.5792,-1.5792,-1.5792,-1.5792,-1.5804,-1.5816,-1.6715,-1.7399,-1.7411,-1.8338,0.0,0.0,0.0,0.0,0.0,0.0,0.0,0.0,-1.6825,-1.6335,-1.575,-1.5979,-1.632,-1.6716,0.0,0.0,0.0,0.0,0.0,0.0,0.0,0.0,0.0,0.0,0.0,0.0,0.0,0.0,0.0,0.0,0.0,-1.5557,0.0,0.0,0.0,0.0,0.0,0.0,0.0,0.0,0.0,0.0,0.0,0.0,0.0,0.0,0.0,0.0,0.0,0.0,0.0,0.0,0.0,0.0,0.0,0.0,0.0,0.0,0.0,0.0,0.0,0.0,0.0,0.0,0.0,-1.7026,-1.8063,-1.8928,-1.9264,-1.9857,-2.0183,-2.0197,-2.0537,-2.0728,-2.075,-2.1342,-2.1708,-2.1723,-2.2293,-2.263,-2.2652,-2.2952,-2.3113,-2.3128,-2.3113,-2.3106,-2.3106,-2.3425,-2.3984,-2.4595,-2.5238,-2.6372,-2.7782,-2.7677,-2.8093,-2.8887,-2.8467,-2.8291,-2.8291,-2.8291,-2.8291,-2.8291,-2.8291,-2.8291,-2.8291,-1.5792,-1.5792,-1.5792,-1.5792,-1.5792,-1.5924,-1.6331,-1.6955,-1.7544,-1.7941,0.0,0.0,0.0,0.0,0.0,0.0,0.0,0.0,0.0,0.0,-1.6267,-1.5999,-1.6339,0.0,0.0,0.0,0.0,0.0,0.0,0.0,0.0,0.0,0.0,0.0,0.0,0.0,0.0,0.0,0.0,0.0,0.0,0.0,-1.5974,0.0,0.0,0.0,0.0,0.0,0.0,0.0,0.0,0.0,0.0,0.0,0.0,0.0,0.0,0.0,0.0,0.0,0.0,0.0,0.0,0.0,0.0,0.0,0.0,0.0,0.0,0.0,0.0,0.0,0.0,0.0,-1.7199,-1.8037,-1.828,-1.8775,-1.9352,-1.9908,-2.0073,-2.0278,-2.0567,-2.0669,-2.0918,-2.1393,-2.1598,-2.1891,-2.2345,-2.2528,-2.2835,-2.331,-2.3186,-2.3223,-2.3457,-2.323,-2.3106,-2.3113,-2.3673,-2.417,-2.4664,-2.5976,-2.7037,-2.7791,-2.8162,-2.8544,-2.8887,-2.8467,-2.8291,-2.8291,-2.8291,-2.8291,-2.8291,-2.8291,-2.8291,-2.8291,-1.5792,-1.5792,-1.5792,-1.5792,-1.5994,-1.6247,-1.6559,-1.7243,-1.7857,-1.8157,0.0,0.0,0.0,0.0,0.0,0.0,0.0,0.0,-1.7306,-1.6702,-1.6316,0.0,0.0,0.0,0.0,0.0,0.0,0.0,0.0,0.0,0.0,0.0,0.0,0.0,0.0,0.0,0.0,0.0,0.0,0.0,0.0,0.0,-1.6539,-1.6128,-1.5913,-1.5773,-1.5619,-1.5673,-1.591,-1.6185,0.0,0.0,0.0,0.0,0.0,0.0,0.0,0.0,0.0,0.0,0.0,0.0,0.0,0.0,0.0,0.0,0.0,0.0,0.0,0.0,0.0,0.0,0.0,0.0,-1.8073,-1.9029,-1.9542,-1.9762,-2.0025,-2.0398,-2.0504,-2.072,-2.0911,-2.105,-2.1284,-2.1672,-2.1935,-2.2242,-2.2601,-2.2754,-2.3062,-2.3581,-2.3281,-2.3267,-2.3596,-2.3274,-2.3106,-2.3113,-2.3611,-2.417,-2.4672,-2.6136,-2.7288,-2.8111,-2.8657,-2.8982,-2.916,-2.873,-2.8447,0.0,0.0,0.0,0.0,0.0,-2.8291,-2.8291,-1.5876,-1.5876,-1.59,-1.596,-1.6379,-1.6715,-1.6763,-1.7579,-1.8229,-1.8277,0.0,0.0,0.0,0.0,0.0,0.0,0.0,0.0,0.0,0.0,0.0,0.0,0.0,0.0,0.0,0.0,0.0,0.0,0.0,0.0,0.0,0.0,0.0,0.0,0.0,0.0,0.0,0.0,0.0,0.0,0.0,0.0,-1.711,-1.6761,-1.6606,-1.659,-1.6483,-1.6658,-1.6885,-1.6945,0.0,0.0,0.0,0.0,0.0,0.0,0.0,0.0,0.0,0.0,0.0,0.0,0.0,0.0,0.0,0.0,0.0,0.0,0.0,0.0,0.0,0.0,0.0,0.0,-1.8884,-1.974,-2.0603,-2.0757,-2.0779,-2.0779,-2.1035,-2.1211,-2.1211,-2.1503,-2.1715,-2.1752,-2.2293,-2.2637,-2.2674,0.0,0.0,0.0,0.0,-2.3267,-2.3596,-2.3274,-2.3106,-2.3106,-2.3417,-2.3922,-2.4672,-2.5953,-2.7211,-2.8522,-2.9079,-2.9412,-2.9531,-2.9092,-2.8672,-2.8291,-2.8291,-2.8291,-2.8291,-2.8291,-2.8291,-2.8291,-1.6451,-1.6451,-1.6583,-1.7015,-1.7171,-1.7375,-1.7832,-1.8073,-1.835,-1.8782,-1.8927,0.0,0.0,0.0,0.0,0.0,0.0,0.0,0.0,0.0,0.0,0.0,0.0,0.0,0.0,0.0,0.0,0.0,0.0,0.0,0.0,0.0,0.0,0.0,0.0,0.0,0.0,0.0,0.0,0.0,0.0,0.0,-1.7576,-1.7317,-1.7236,-1.7262,-1.7439,-1.7377,-1.7292,-1.7781,-1.7687,-1.7412,-1.7562,0.0,0.0,0.0,0.0,0.0,0.0,0.0,0.0,0.0,0.0,0.0,0.0,0.0,0.0,0.0,0.0,0.0,0.0,0.0,0.0,-1.8634,-1.9682,-2.0508,-2.0691,-2.0947,-2.1115,-2.1115,-2.1174,-2.1211,-2.1211,-2.1503,-2.1803,-2.2067,-2.2425,-2.2732,-2.3003,-2.3076,-2.3259,-2.3581,-2.3281,-2.3267,-2.3596,-2.3274,-2.3106,-2.3106,0.0,0.0,-2.4672,-2.5953,-2.7211,-2.8522,-2.9079,-2.9412,-2.9531,-2.9092,-2.8672,-2.8291,-2.8291,-2.8291,-2.8291,-2.8291,-2.8291,-2.8291,-1.7364,-1.7171,-1.7075,-1.7339,-1.7603,-1.7893,-1.8157,-1.8422,-1.8698,-1.8951,-1.8987,0.0,0.0,0.0,0.0,0.0,0.0,0.0,0.0,0.0,0.0,0.0,0.0,0.0,0.0,0.0,0.0,0.0,0.0,0.0,0.0,0.0,0.0,0.0,0.0,0.0,0.0,0.0,0.0,0.0,0.0,0.0,-1.7833,-1.7854,-1.7942,-1.8104,-1.7999,-1.8032,-1.8084,-1.8056,-1.7958,-1.7855,-1.8187,-1.7918,-1.7449,0.0,0.0,0.0,0.0,0.0,0.0,0.0,0.0,0.0,0.0,0.0,0.0,0.0,0.0,-1.731,-1.7494,0.0,-1.8561,-1.9401,-2.0186,-2.0779,-2.094,-2.1108,-2.1211,-2.1211,-2.1211,-2.1211,-2.1211,-2.165,-2.2008,-2.2169,-2.2608,-2.2937,-2.3098,-2.3106,-2.3259,-2.3581,-2.3281,-2.3267,-2.3596,-2.3274,-2.3106,-2.3106,-2.3417,-2.3922,-2.4672,-2.5953,-2.7211,-2.8531,-2.9294,-2.9719,-2.9834,-2.9189,-2.8672,-2.8291,-2.8291,-2.8291,-2.8291,-2.8291,-2.8291,-2.8291,-1.8253,-1.8013,-1.7724,-1.7724,-1.8073,-1.835,-1.835,-1.871,-1.8987,-1.8987,-1.8987,-1.8794,-1.8253,-1.8205,-1.8154,0.0,0.0,0.0,0.0,0.0,0.0,0.0,0.0,0.0,0.0,0.0,0.0,0.0,0.0,0.0,0.0,0.0,0.0,0.0,0.0,0.0,0.0,0.0,0.0,0.0,0.0,0.0,-1.7998,-1.8113,-1.8402,-1.8706,-1.8333,-1.8439,-1.8687,-1.8137,-1.7961,-1.8071,-1.8509,-1.8304,-1.7867,-1.7976,-1.74,0.0,0.0,0.0,0.0,0.0,0.0,0.0,0.0,0.0,-1.8438,-1.8191,-1.7888,-1.7864,-1.8322,-1.856,-1.9014,-2.0128,-2.0603,-2.0911,-2.1174,-2.1211,-2.1211,-2.1211,-2.1211,-2.1211,-2.1211,-2.1803,-2.2184,-2.2184,-2.2762,-2.3106,-2.3106,-2.3106,-2.323,-2.3493,-2.3245,-2.3237,-2.3501,-2.3237,-2.3106,-2.3106,-2.3417,-2.3922,-2.4672,-2.5953,-2.722,-2.8531,-2.9533,-3.0026,-3.001,-2.9238,-2.8672,-2.8291,-2.8291,-2.8291,-2.8291,-2.8291,-2.8291,-2.8291,-1.8806,-1.8855,-1.8819,-1.8819,-1.8867,-1.8903,-1.8903,-1.8951,-1.8987,-1.8987,-1.8987,-1.8794,-1.8253,-1.8205,-1.818,-1.818,0.0,0.0,0.0,0.0,0.0,0.0,0.0,0.0,0.0,0.0,0.0,0.0,0.0,0.0,0.0,0.0,0.0,0.0,0.0,0.0,0.0,0.0,0.0,0.0,0.0,0.0,-1.7969,-1.7767,-1.8032,-1.8556,-1.8613,-1.849,-1.8269,-1.8192,-1.7889,-1.759,-1.7767,-1.777,-1.7675,-1.7394,0.0,-1.6626,-1.6287,-1.6477,-1.6963,-1.7752,-1.8406,-1.8861,0.0,0.0,-1.906,-1.8597,-1.8341,-1.8287,-1.875,-1.911,-1.9587,-2.0499,-2.094,-2.1167,-2.1203,-2.1211,-2.1211,-2.1211,-2.1211,-2.1211,-2.1211,-2.1803,-2.2184,-2.2184,-2.2762,-2.3106,-2.3106,-2.3106,-2.3128,-2.3164,-2.3128,-2.3128,-2.3164,-2.3128,-2.3106,-2.3106,-2.3417,-2.3922,-2.4672,-2.5961,-2.7289,-2.8582,-2.9679,-2.9972,-2.96,-2.9121,-2.8672,-2.8291,-2.8291,-2.8291,-2.8291,-2.8291,-2.8291,-2.8291,-1.8977,-1.8987,-1.8987,-1.8987,-1.8987,-1.8987,-1.8987,-1.8987,-1.8987,-1.8987,-1.8987,-1.8794,-1.8253,-1.8205,-1.8205,-1.8205,-1.8634,0.0,0.0,0.0,0.0,0.0,0.0,0.0,0.0,0.0,0.0,0.0,0.0,0.0,0.0,0.0,0.0,0.0,0.0,0.0,0.0,0.0,0.0,0.0,0.0,0.0,-1.7681,-1.7567,-1.7585,-1.7704,-1.7698,-1.7694,0.0,0.0,-1.7307,-1.7261,-1.7652,-1.7611,-1.7487,-1.7688,-1.7348,0.0,-1.6945,-1.7271,0.0,0.0,-1.8885,-1.9335,-1.9253,-1.917,-1.8999,-1.8886,-1.854,-1.8513,-1.9266,-1.9552,-1.995,0.0,-2.1123,-2.1211,-2.1211,-2.1211,-2.1211,-2.1211,-2.1211,-2.1211,-2.1211,-2.1803,-2.2184,-2.2184,-2.2762,-2.3106,-2.3106,-2.3106,-2.3106,-2.3106,-2.3106,-2.3106,-2.3106,-2.3106,-2.3106,-2.3113,-2.3666,-2.4232,-2.4919,-2.6266,-2.7711,-2.9372,-3.0209,-3.0205,-2.956,-2.9375,-2.8896,-2.8291,-2.8291,-2.8291,-2.8291,-2.8291,-2.8291,-2.8291,-1.8987,-1.8987,-1.8987,-1.8987,-1.8987,-1.8987,-1.8987,-1.8987,-1.8987,-1.8987,-1.8987,-1.8843,-1.8458,-1.8422,-1.8422,-1.8422,-1.877,-1.9162,0.0,0.0,0.0,0.0,0.0,0.0,0.0,0.0,0.0,0.0,0.0,0.0,0.0,0.0,0.0,0.0,0.0,0.0,0.0,0.0,0.0,0.0,0.0,0.0,-1.7495,-1.7372,-1.7126,-1.6863,-1.6848,-1.6879,0.0,0.0,-1.657,-1.6754,-1.7211,-1.7292,-1.7357,-1.7662,-1.7553,-1.7372,-1.7584,0.0,0.0,-1.8916,-1.9344,-1.9626,-1.9556,-1.9203,-1.8859,-1.8773,-1.8437,-1.8441,-1.9274,-1.9664,-2.0075,-2.092,-2.1152,-2.1211,-2.1211,-2.1211,-2.1211,-2.1211,-2.1211,-2.1211,-2.1211,-2.1803,-2.2184,-2.2184,-2.2762,-2.3106,-2.3106,-2.3106,-2.3106,-2.3106,-2.3106,-2.3106,-2.3106,-2.3106,-2.3106,-2.3113,-2.3673,-2.4293,-2.5042,-2.6684,-2.8241,-2.9795,-3.0451,-3.0273,-2.9616,-2.9443,-2.8955,-2.8291,-2.8291,-2.8291,-2.8291,-2.8291,-2.8291,-2.8291,-1.8987,-1.8987,-1.8987,-1.8987,-1.8987,-1.8987,-1.8987,-1.8987,-1.8987,-1.8987,-1.8987,-1.8987,-1.8963,-1.8963,-1.8963,-1.8963,-1.8987,-1.9215,-1.9772,-1.9793,0.0,0.0,0.0,0.0,0.0,0.0,0.0,0.0,0.0,0.0,0.0,0.0,0.0,0.0,0.0,0.0,0.0,0.0,0.0,0.0,0.0,0.0,-1.7457,-1.6982,-1.659,-1.6233,-1.6373,0.0,0.0,0.0,-1.5758,-1.596,-1.6095,-1.6627,0.0,-1.7002,-1.735,0.0,0.0,0.0,-1.8889,-1.9655,-1.9835,-1.9814,-1.9966,-1.9372,-1.8675,-1.8213,-1.803,-1.8017,-1.845,-1.9216,-2.0003,-2.0628,-2.1006,-2.1211,-2.1211,-2.1211,-2.1211,-2.1211,-2.1211,-2.1211,0.0,-2.1803,-2.2184,-2.2184,-2.2762,-2.3106,-2.3106,-2.3106,-2.3106,-2.3106,-2.3106,-2.3106,-2.3106,-2.3106,-2.3106,-2.3106,-2.3425,-2.3984,-2.4726,-2.7272,-2.8838,-2.9462,-2.9997,-2.9971,-2.9531,-2.9111,-2.8682,-2.8291,-2.8291,-2.8291,-2.8291,-2.8291,-2.8291,-2.8291,-1.8987,-1.8987,-1.8987,-1.8987,-1.8987,-1.8987,-1.8987,-1.8987,-1.8987,-1.8987,-1.8987,0.0,0.0,0.0,0.0,0.0,-1.8987,-1.9071,-1.9266,-1.9615,0.0,0.0,0.0,0.0,0.0,0.0,0.0,0.0,0.0,0.0,0.0,0.0,0.0,0.0,0.0,0.0,0.0,0.0,0.0,0.0,0.0,0.0,-1.7063,-1.6924,-1.6628,-1.6229,0.0,0.0,0.0,0.0,0.0,0.0,-1.5498,0.0,0.0,-1.6887,0.0,-1.7723,0.0,0.0,-1.9198,-1.9602,-1.9934,-2.0053,-1.9419,-1.9027,-1.8598,-1.7798,-1.762,-1.7761,-1.8386,-1.8914,-1.9506,-2.054,-2.0815,-2.0962,-2.1181,-2.1211,-2.1211,-2.1211,-2.1211,0.0,0.0,0.0,0.0,-2.2184,-2.2762,-2.3106,-2.3106,-2.3106,-2.3106,-2.3106,-2.3106,-2.3106,-2.3106,-2.3106,-2.3106,-2.3113,-2.3922,-2.4726,-2.5647,-2.7633,-2.8838,-2.9462,-2.9978,-2.9961,-2.9531,-2.9092,-2.8672,-2.8291,-2.8291,-2.8291,-2.8291,-2.8291,-2.8291,-2.8291,-1.8987,-1.8987,-1.8987,-1.8987,-1.8987,0.0,0.0,0.0,0.0,0.0,0.0,0.0,0.0,0.0,0.0,0.0,0.0,-1.8987,-1.8987,0.0,0.0,0.0,0.0,0.0,0.0,0.0,0.0,0.0,0.0,0.0,0.0,0.0,0.0,0.0,0.0,0.0,0.0,0.0,0.0,0.0,0.0,0.0,-1.6908,-1.6908,-1.6661,0.0,0.0,0.0,0.0,0.0,0.0,0.0,0.0,0.0,0.0,-1.7005,-1.7475,-1.7862,-1.8531,-1.9109,-1.9551,-1.9765,-2.0045,-2.0061,-1.9301,-1.8835,-1.8287,-1.7428,-1.727,-1.7422,-1.7923,-1.849,-1.9218,-2.0233,-2.0536,-2.0837,-2.1167,-2.1313,-2.1386,-2.1386,-2.1489,-2.1642,0.0,0.0,0.0,-2.2337,-2.282,-2.3106,-2.3106,-2.3106,-2.3106,-2.3106,-2.3106,-2.3106,-2.3106,-2.3106,-2.3106,-2.3113,-2.3984,-2.4911,-2.577,-2.7513,-2.8578,-2.9013,-2.9699,-2.9726,-2.9307,-2.8877,-2.8535,-2.8291,-2.8291,-2.8291,-2.8291,-2.8291,-2.8291,-2.8291,-1.8987,-1.8987,-1.8987,0.0,0.0,0.0,0.0,0.0,0.0,0.0,0.0,0.0,0.0,0.0,0.0,0.0,0.0,0.0,0.0,0.0,0.0,0.0,0.0,0.0,-2.0237,-2.079,0.0,0.0,0.0,0.0,0.0,0.0,0.0,0.0,0.0,0.0,0.0,0.0,0.0,0.0,0.0,0.0,-1.6908,-1.6908,0.0,0.0,0.0,0.0,0.0,0.0,0.0,0.0,0.0,0.0,0.0,0.0,-1.7844,-1.821,-1.8669,-1.9317,-1.998,-2.0171,-2.0129,-1.9927,-1.9654,-1.8819,-1.79,-1.712,-1.7018,-1.7079,-1.7109,0.0,-1.9058,-1.9725,-2.032,-2.0823,-2.1181,-2.1503,-2.1708,0.0,0.0,0.0,0.0,0.0,0.0,-2.2645,0.0,-2.3106,-2.3106,-2.3106,-2.3106,-2.3106,-2.3106,-2.3106,-2.3106,-2.3106,-2.3113,-2.3113,-2.3798,-2.4479,-2.5226,-2.7142,-2.8137,-2.8342,-2.9248,-2.9316,-2.8887,-2.8467,-2.8291,-2.8291,-2.8291,-2.8291,-2.8291,-2.8291,-2.8291,-2.8291,0.0,0.0,0.0,0.0,0.0,0.0,0.0,0.0,0.0,0.0,0.0,0.0,0.0,0.0,0.0,0.0,0.0,0.0,0.0,0.0,0.0,0.0,0.0,0.0,0.0,0.0,0.0,0.0,0.0,0.0,0.0,0.0,0.0,0.0,0.0,0.0,0.0,0.0,0.0,0.0,0.0,0.0,-1.6908,0.0,0.0,0.0,0.0,0.0,0.0,0.0,0.0,0.0,0.0,0.0,-1.742,0.0,0.0,-1.8715,-1.939,-1.9948,-2.034,-2.0354,-2.0439,-2.0262,-1.9263,-1.855,-1.7854,-1.6918,-1.6564,-1.6635,-1.7315,0.0,0.0,-1.9885,-2.0249,0.0,-2.1459,-2.1642,0.0,-2.203,0.0,-2.2271,-2.2491,-2.2579,0.0,0.0,-2.3062,-2.3106,-2.3106,-2.3106,-2.3106,-2.3106,-2.3106,-2.3106,-2.3106,-2.3106,-2.3238,-2.3487,-2.417,-2.4972,-2.5892,-2.7573,-2.8501,-2.8691,-2.9305,-2.9316,-2.8887,-2.8467,-2.8291,-2.8291,-2.8291,-2.8291,-2.8291,-2.8291,-2.8291,-2.8291,0.0,0.0,0.0,0.0,0.0,0.0,0.0,0.0,0.0,0.0,0.0,0.0,0.0,0.0,0.0,0.0,0.0,0.0,0.0,0.0,0.0,0.0,0.0,0.0,0.0,0.0,0.0,0.0,0.0,0.0,0.0,0.0,0.0,0.0,0.0,0.0,0.0,0.0,0.0,0.0,0.0,0.0,0.0,0.0,0.0,0.0,0.0,0.0,0.0,0.0,0.0,-1.7021,-1.7418,-1.7767,-1.8136,-1.8797,0.0,-1.9392,-1.9872,-2.0472,-2.0875,-2.0629,-2.0633,-2.0374,-1.9234,-1.8425,-1.7627,-1.6788,-1.6249,0.0,-1.7231,-1.7519,0.0,0.0,0.0,0.0,-2.1562,-2.1818,-2.2023,0.0,-2.2498,0.0,-2.282,-2.2835,-2.2908,0.0,-2.3106,-2.3106,-2.3106,-2.3106,-2.3106,-2.3106,-2.3106,-2.3106,-2.3106,-2.323,-2.3417,-2.3611,-2.4595,-2.5456,-2.6294,-2.7747,-2.852,-2.8756,0.0,-2.9043,-2.8633,-2.8389,-2.8291,-2.8291,-2.8291,-2.8291,-2.8291,-2.8291,-2.8291,-2.8291,0.0,0.0,0.0,0.0,0.0,0.0,0.0,0.0,0.0,-1.9122,0.0,0.0,0.0,0.0,0.0,0.0,0.0,0.0,0.0,0.0,0.0,0.0,0.0,0.0,0.0,0.0,0.0,0.0,0.0,0.0,0.0,0.0,0.0,0.0,0.0,0.0,0.0,0.0,0.0,0.0,0.0,0.0,0.0,0.0,0.0,0.0,0.0,0.0,0.0,0.0,-1.7805,-1.8108,-1.8453,-1.8779,-1.9089,-1.9468,-1.9837,-2.0216,-2.0379,-2.0964,-2.1429,-2.1016,-2.0846,-2.0456,-1.9397,-1.8367,-1.7439,-1.671,0.0,-1.5987,-1.6908,-1.7392,-1.8094,-1.9517,0.0,-2.0567,-2.1503,-2.195,-2.2293,-2.2586,-2.2908,-2.3106,-2.3106,-2.3106,-2.3106,-2.3106,-2.3106,-2.3106,-2.3106,-2.3106,-2.3106,-2.3106,-2.3106,-2.3106,-2.3168,-2.3425,-2.3673,-2.3852,-2.5141,-2.6017,-2.6738,-2.7903,-2.8498,-2.8605,-2.8807,-2.8682,-2.8291,-2.8291,-2.8291,-2.8291,-2.8291,-2.8291,-2.8291,-2.8291,-2.8291,-2.8291,0.0,0.0,0.0,0.0,0.0,0.0,0.0,-1.9387,-1.9676,-1.9676,-1.9676,-1.9676,0.0,0.0,0.0,0.0,0.0,0.0,0.0,0.0,0.0,0.0,0.0,0.0,0.0,0.0,0.0,0.0,0.0,0.0,0.0,0.0,0.0,0.0,0.0,0.0,0.0,0.0,0.0,0.0,0.0,0.0,0.0,0.0,0.0,0.0,0.0,0.0,0.0,0.0,-1.86,-1.9397,-1.9472,-2.0078,-2.0765,-2.0841,-2.0917,-2.1068,-2.1452,-2.1627,-2.1738,-2.1592,-2.1221,-2.0603,-1.9317,-1.833,0.0,0.0,0.0,-1.6062,-1.6953,-1.7394,-1.8009,-1.9211,0.0,0.0,0.0,0.0,-2.2293,0.0,0.0,0.0,0.0,0.0,0.0,0.0,0.0,-2.3106,-2.3106,-2.3106,-2.3106,-2.3106,-2.3106,-2.3238,-2.3487,-2.3549,-2.4162,-2.5264,-2.5981,-2.679,-2.7623,-2.863,-2.889,-2.8557,-2.8791,0.0,-2.8291,-2.8291,-2.8291,-2.8291,-2.8291,-2.8291,-2.8291,-2.8291,-2.8291,-2.8291,0.0,0.0,0.0,0.0,0.0,0.0,0.0,-1.964,-1.9916,-2.0177,-2.0454,-2.0526,-2.0249,-2.0454,-2.0514,0.0,0.0,0.0,0.0,0.0,0.0,0.0,0.0,0.0,0.0,0.0,0.0,0.0,0.0,0.0,0.0,0.0,0.0,0.0,0.0,0.0,0.0,0.0,0.0,0.0,0.0,0.0,0.0,0.0,0.0,0.0,0.0,0.0,0.0,0.0,-1.9195,-2.0146,-1.989,-2.0448,-2.1197,-2.1197,-2.1515,-2.1909,-2.1992,-2.216,-2.2282,-2.2129,-2.1722,-2.0989,-1.9671,0.0,0.0,0.0,-1.6146,-1.625,-1.7176,0.0,0.0,0.0,0.0,0.0,0.0,0.0,0.0,0.0,0.0,0.0,0.0,0.0,0.0,0.0,0.0,-2.3106,-2.3106,-2.3106,-2.3106,-2.3106,-2.3293,-2.3425,-2.3611,-2.4286,-2.5018,-2.5876,-2.6756,-2.7576,-2.8333,-2.8681,-2.8836,-2.8707,-2.8637,0.0,-2.8291,-2.8291,-2.8291,-2.8291,-2.8291,-2.8291,-2.8291,-2.8291,-2.8291,-2.8291,0.0,0.0,0.0,0.0,0.0,0.0,0.0,-1.9805,-2.0117,-2.0521,-2.1175,-2.1416,-2.1007,-2.0959,-2.0911,0.0,0.0,0.0,0.0,0.0,0.0,0.0,0.0,0.0,0.0,0.0,0.0,0.0,0.0,0.0,0.0,0.0,0.0,0.0,0.0,0.0,0.0,0.0,0.0,0.0,0.0,0.0,0.0,0.0,0.0,0.0,0.0,0.0,0.0,0.0,-1.9466,-2.0346,-2.0006,-2.058,-2.1356,-2.1434,-2.1941,-2.2487,-2.2413,-2.264,-2.2794,-2.2574,-2.2132,-2.1444,-2.0149,-1.9326,0.0,0.0,-1.6451,-1.6563,-1.7513,0.0,0.0,0.0,0.0,0.0,0.0,0.0,0.0,0.0,0.0,0.0,0.0,0.0,0.0,0.0,0.0,0.0,-2.3106,-2.3106,-2.3113,-2.3168,-2.3479,-2.3736,-2.4038,-2.5069,-2.5882,-2.6488,-2.742,-2.8177,-2.8717,-2.8638,-2.8668,-2.876,-2.8437,0.0,0.0,-2.8291,-2.8291,-2.8291,-2.8291,-2.8291,-2.8291,-2.8291,-2.8291,-2.8291,0.0,0.0,0.0,0.0,0.0,0.0,0.0,-1.9901,-2.0521,-2.0581,-2.1488,-2.2101,-2.2053,-2.2053,-2.1861,0.0,0.0,0.0,0.0,0.0,0.0,0.0,0.0,0.0,0.0,0.0,0.0,0.0,0.0,0.0,0.0,0.0,0.0,0.0,0.0,0.0,0.0,0.0,0.0,0.0,0.0,0.0,0.0,0.0,0.0,0.0,0.0,0.0,0.0,0.0,0.0,-1.9732,-1.9843,-2.0782,-2.1904,-2.2285,0.0,0.0,-2.2935,-2.3028,-2.3013,-2.2838,-2.2407,-2.1763,-2.0676,0.0,0.0,-1.7727,-1.7184,-1.7091,-1.7753,-1.7871,-1.8188,0.0,0.0,0.0,0.0,0.0,0.0,0.0,0.0,0.0,0.0,0.0,0.0,0.0,0.0,0.0,-2.3106,-2.3106,-2.323,-2.3542,-2.3611,-2.4162,-2.5386,-2.5435,-2.6168,-2.7637,-2.7937,-2.8239,-2.8512,-2.8746,-2.8657,-2.835,-2.831,0.0,0.0,-2.8291,-2.8291,-2.8291,-2.8291,-2.8291,-2.8291,-2.8291,-2.8291,-2.8291,0.0,0.0,0.0,0.0,0.0,0.0,-1.9447,-2.0117,-2.073,-2.1055,-2.1728,-2.2197,-2.2197,-2.2197,-2.2101,-2.1897,0.0,0.0,0.0,0.0,0.0,0.0,0.0,0.0,0.0,0.0,0.0,0.0,0.0,0.0,0.0,0.0,0.0,0.0,0.0,0.0,0.0,0.0,0.0,0.0,0.0,0.0,0.0,0.0,0.0,0.0,0.0,0.0,0.0,0.0,0.0,0.0,-1.9863,-2.0456,0.0,0.0,-2.2314,-2.2607,-2.2984,-2.3091,-2.3091,-2.3013,-2.275,-2.2249,-2.1174,0.0,-1.9711,-1.8502,-1.8241,-1.8348,-1.8778,-1.8916,-1.9147,0.0,-2.05,-2.1038,0.0,0.0,0.0,0.0,0.0,0.0,0.0,0.0,0.0,0.0,0.0,0.0,-2.3673,-2.3293,-2.323,-2.3604,-2.3984,-2.4624,-2.5443,-2.6245,-2.7059,-2.7976,-2.8211,-2.8495,-2.8762,-2.8608,-2.8447,-2.8291,-2.8291,0.0,0.0,-2.8291,-2.8291,-2.8291,-2.8291,-2.8291,-2.8291,-2.8291,-2.8291,-2.8291,0.0,0.0,0.0,0.0,0.0,-1.9119,-1.9519,-2.0009,-2.0562,-2.1091,-2.1632,-2.2017,-2.2173,-2.233,-2.2426,-2.2426,-2.2282,0.0,0.0,0.0,0.0,0.0,0.0,0.0,0.0,0.0,0.0,0.0,0.0,0.0,0.0,0.0,0.0,0.0,0.0,0.0,0.0,0.0,0.0,0.0,0.0,0.0,0.0,0.0,0.0,0.0,0.0,0.0,0.0,0.0,0.0,0.0,0.0,0.0,0.0,0.0,-2.21,-2.2441,-2.2945,-2.3091,-2.3091,-2.3091,-2.2969,-2.2585,0.0,0.0,-2.0584,-1.9619,-1.9458,-1.9574,-2.0037,-2.0111,-2.0295,0.0,-2.1366,-2.1824,-2.2338,0.0,0.0,0.0,0.0,0.0,0.0,0.0,0.0,0.0,0.0,0.0,-2.4718,-2.4124,-2.3824,-2.3832,-2.4393,-2.5073,-2.578,-2.6833,-2.7628,-2.8192,-2.8351,-2.8532,-2.8721,-2.8428,-2.8291,-2.8291,-2.8291,0.0,0.0,-2.8291,-2.8291,-2.8291,-2.8291,-2.8291,-2.8291,-2.8291,-2.8291,-2.8291,0.0,0.0,0.0,0.0,0.0,0.0,-1.8999,-1.9444,-2.0001,-2.0531,-2.1097,-2.1608,-2.2137,-2.2654,-2.2999,-2.2999,-2.2498,0.0,0.0,0.0,0.0,0.0,0.0,0.0,0.0,0.0,0.0,0.0,0.0,0.0,0.0,0.0,0.0,0.0,0.0,0.0,0.0,0.0,0.0,0.0,0.0,0.0,-1.8751,0.0,0.0,0.0,0.0,0.0,0.0,0.0,0.0,0.0,0.0,0.0,0.0,0.0,-2.1894,-2.207,-2.2867,-2.3091,-2.3091,-2.3091,-2.2969,-2.2706,0.0,-2.1847,-2.1329,-2.12,-2.0831,-2.0693,-2.1425,-2.137,-2.1396,-2.1963,-2.2177,-2.2542,-2.319,0.0,0.0,0.0,0.0,0.0,0.0,0.0,0.0,0.0,0.0,0.0,-2.6075,-2.572,-2.5155,-2.4511,-2.482,-2.5594,-2.6792,-2.6968,-2.7558,-2.8516,-2.8344,-2.8301,-2.8301,-2.8291,-2.8291,-2.8291,0.0,0.0,0.0,-2.8291,-2.8291,-2.8291,-2.8291,-2.8291,-2.8291,-2.8291,-2.8291,-2.8291,0.0,0.0,0.0,0.0,0.0,0.0,0.0,-1.9471,-1.9973,-2.0526,-2.1067,-2.1608,-2.2137,-2.2666,-2.3011,-2.3011,-2.2823,0.0,0.0,0.0,0.0,0.0,0.0,0.0,0.0,0.0,0.0,0.0,0.0,0.0,0.0,0.0,0.0,0.0,0.0,0.0,0.0,0.0,0.0,0.0,0.0,-1.9118,-1.9127,0.0,0.0,0.0,0.0,0.0,0.0,0.0,0.0,0.0,0.0,0.0,0.0,-2.2019,0.0,0.0,-2.2867,-2.3091,-2.3091,-2.3091,-2.3047,-2.2969,-2.2706,-2.2615,-2.2489,-2.2245,-2.2299,-2.243,-2.2669,-2.2531,-2.2439,-2.261,-2.2903,0.0,0.0,0.0,0.0,0.0,0.0,0.0,0.0,0.0,0.0,0.0,0.0,0.0,-2.6942,-2.6812,-2.6329,-2.5506,-2.5738,-2.6247,-2.7015,-2.7493,-2.796,-2.8334,-2.8306,-2.8291,-2.8291,-2.8291,-2.8291,0.0,0.0,0.0,0.0,-2.8291,-2.8291,-2.8291,-2.8291,-2.8291,-2.8291,-2.8291,-2.8291,-2.8291,0.0,0.0,0.0,0.0,0.0,0.0,0.0,-1.9263,-1.9756,-2.0485,-2.0887,-2.1368,-2.2113,-2.2879,-2.3312,-2.3312,-2.3448,0.0,0.0,0.0,0.0,0.0,0.0,0.0,0.0,0.0,0.0,0.0,0.0,0.0,0.0,0.0,0.0,0.0,0.0,0.0,0.0,0.0,0.0,0.0,-1.9201,-1.9301,-1.9301,0.0,0.0,0.0,0.0,0.0,0.0,0.0,0.0,0.0,0.0,0.0,0.0,0.0,-2.2324,-2.2275,0.0,-2.3091,-2.3091,-2.3091,-2.3091,-2.3096,-2.3183,-2.3191,-2.3243,-2.3427,-2.3531,-2.365,-2.3797,-2.3722,-2.3723,-2.3876,-2.4152,0.0,0.0,0.0,0.0,0.0,0.0,0.0,0.0,0.0,0.0,0.0,0.0,0.0,-2.806,-2.7761,-2.7301,-2.6725,-2.6611,-2.6819,-2.7206,-2.7691,-2.8058,-2.8291,-2.8291,-2.8291,-2.8291,-2.8291,-2.8291,0.0,0.0,0.0,0.0,-2.8291,-2.8291,-2.8291,-2.8291,-2.8291,-2.8291,-2.8291,-2.8291,-2.8291,0.0,0.0,0.0,0.0,0.0,0.0,0.0,-1.8987,-1.9384,-2.0449,-2.0586,-2.1012,-2.2077,-2.3168,-2.3806,-2.3806,0.0,0.0,0.0,0.0,0.0,0.0,0.0,0.0,0.0,0.0,0.0,-2.4327,-2.4614,-2.4345,-2.3519,0.0,0.0,0.0,0.0,0.0,0.0,0.0,0.0,0.0,-1.9301,-1.9301,0.0,0.0,0.0,0.0,0.0,0.0,0.0,0.0,0.0,0.0,0.0,0.0,0.0,0.0,0.0,0.0,0.0,-2.3091,-2.3101,-2.314,-2.314,-2.3257,-2.374,-2.3677,0.0,-2.4544,-2.4546,-2.4487,-2.4865,-2.4932,-2.5074,-2.554,0.0,0.0,0.0,0.0,0.0,0.0,0.0,0.0,0.0,0.0,0.0,0.0,0.0,0.0,-2.9288,-2.852,-2.8019,-2.799,-2.7502,-2.7271,-2.7431,-2.7745,-2.8067,-2.8291,-2.8291,-2.8291,-2.8291,-2.8291,-2.8291,0.0,0.0,0.0,0.0,-2.8291,-2.8291,-2.8291,-2.8291,-2.8291,-2.8291,-2.8291,-2.8291,-2.8291,0.0,0.0,0.0,0.0,0.0,0.0,0.0,0.0,0.0,0.0,-2.061,-2.1007,-2.2077,-2.3168,-2.3806,0.0,0.0,0.0,0.0,0.0,0.0,0.0,0.0,0.0,0.0,0.0,0.0,-2.4673,-2.4623,-2.4007,-2.2889,-2.244,0.0,0.0,0.0,0.0,0.0,0.0,0.0,0.0,-1.9301,-1.9301,0.0,0.0,0.0,0.0,-1.9301,-1.939,0.0,0.0,0.0,0.0,0.0,0.0,0.0,0.0,-2.2945,-2.2974,-2.3062,0.0,-2.3179,-2.3555,-2.3633,-2.374,0.0,-2.4475,-2.4777,0.0,0.0,-2.5071,-2.5167,-2.5039,-2.5074,0.0,0.0,0.0,0.0,0.0,0.0,0.0,0.0,0.0,0.0,0.0,0.0,0.0,0.0,-2.9695,-2.9046,-2.8813,-2.8552,-2.8232,-2.8114,-2.7958,-2.7799,-2.8067,-2.8237,-2.8291,-2.8291,-2.8291,-2.8291,-2.8291,-2.8291,0.0,0.0,0.0,-2.8291,-2.8291,-2.8291,-2.8291,-2.8291,-2.8291,-2.8291,-2.8291,-2.8291,-2.8291,0.0,0.0,0.0,0.0,0.0,0.0,0.0,0.0,0.0,0.0,0.0,-2.1007,-2.2077,-2.3168,0.0,0.0,0.0,0.0,0.0,0.0,0.0,0.0,0.0,0.0,0.0,0.0,0.0,0.0,0.0,-2.3703,0.0,0.0,0.0,0.0,0.0,0.0,0.0,0.0,0.0,-1.9301,-1.9301,0.0,0.0,0.0,0.0,0.0,-1.939,-1.9518,0.0,-1.9981,-2.0579,-2.1248,0.0,0.0,0.0,0.0,-2.3091,-2.3091,-2.3091,-2.3091,-2.3198,-2.3682,-2.3789,-2.3955,-2.457,0.0,0.0,0.0,0.0,0.0,-2.5489,0.0,0.0,0.0,0.0,0.0,0.0,0.0,0.0,0.0,0.0,0.0,0.0,0.0,0.0,0.0,0.0,-2.9404,-2.8945,-2.874,-2.8525,-2.8301,-2.8291,-2.8237,-2.8067,-2.8237,-2.8291,-2.8291,-2.8291,-2.8291,-2.8291,-2.8291,-2.8291,0.0,0.0,0.0,-2.8291,-2.8291,-2.8291,-2.8291,-2.8291,-2.8291,-2.8291,-2.8291,-2.8291,-2.8291,0.0,0.0,0.0,0.0,0.0,0.0,0.0,0.0,0.0,0.0,0.0,0.0,0.0,0.0,0.0,0.0,0.0,0.0,0.0,0.0,0.0,0.0,0.0,0.0,0.0,0.0,0.0,0.0,0.0,0.0,0.0,0.0,-2.13,0.0,0.0,0.0,0.0,0.0,0.0,-1.9301,-1.9301,0.0,0.0,0.0,0.0,0.0,0.0,0.0,0.0,-2.0147,-2.0853,-2.1598,-2.1834,0.0,0.0,0.0,0.0,0.0,-2.3091,-2.314,-2.334,-2.3779,-2.3935,-2.4199,-2.499,0.0,0.0,0.0,0.0,0.0,0.0,0.0,0.0,0.0,0.0,0.0,0.0,0.0,0.0,0.0,0.0,0.0,0.0,0.0,0.0,0.0,0.0,-2.8887,-2.8828,-2.8486,-2.8291,-2.8291,-2.8291,-2.8291,-2.8291,-2.8291,-2.8291,-2.8291,-2.8291,-2.8291,-2.8291,-2.8291,-2.8291,-2.8291,0.0,0.0,-2.8291,-2.8291,-2.8291,-2.8291,-2.8291,-2.8291,-2.8291,-2.8291,-2.8291,-2.8291,0.0,0.0,0.0,0.0,0.0,0.0,0.0,0.0,0.0,0.0,0.0,0.0,0.0,0.0,0.0,0.0,0.0,0.0,0.0,0.0,0.0,0.0,0.0,0.0,0.0,0.0,0.0,0.0,0.0,0.0,-2.2176,-2.1769,-2.1002,0.0,0.0,0.0,0.0,0.0,0.0,-1.9301,-1.9301,0.0,0.0,0.0,0.0,0.0,0.0,0.0,0.0,-2.0264,-2.0992,-2.1834,-2.1885,0.0,0.0,0.0,0.0,0.0,-2.3091,-2.3408,-2.3789,-2.4219,-2.46,-2.5,0.0,0.0,0.0,0.0,0.0,0.0,0.0,0.0,0.0,0.0,0.0,0.0,0.0,0.0,0.0,0.0,0.0,0.0,0.0,0.0,0.0,0.0,0.0,-2.876,-2.8408,-2.833,-2.8291,-2.8291,-2.8291,-2.8291,-2.8291,-2.8291,-2.8291,-2.8291,-2.8291,-2.8291,-2.8291,-2.8291,-2.8291,-2.8291,0.0,-2.8291,-2.8291,-2.8291,-2.8291,-2.8291,-2.8291,-2.8291,-2.8291,-2.8291,-2.8291,-2.8291,0.0,0.0,0.0,0.0,0.0,0.0,0.0,0.0,0.0,0.0,0.0,0.0,0.0,0.0,0.0,0.0,0.0,0.0,0.0,0.0,0.0,0.0,0.0,0.0,0.0,0.0,0.0,0.0,0.0,-2.2777,-2.2063,-2.1339,-2.0605,-1.9902,0.0,0.0,0.0,0.0,-1.943,-1.9641,0.0,0.0,0.0,0.0,0.0,0.0,0.0,0.0,0.0,0.0,-2.1277,-2.1924,-2.2158,0.0,0.0,0.0,0.0,0.0,-2.3428,-2.3799,-2.4228,-2.4658,-2.4922,-2.5233,0.0,0.0,0.0,0.0,0.0,0.0,0.0,0.0,0.0,0.0,0.0,0.0,0.0,0.0,0.0,0.0,0.0,0.0,0.0,0.0,0.0,0.0,0.0,0.0,-2.8301,-2.8291,-2.8291,-2.8291,-2.8291,-2.8291,-2.8291,-2.8291,-2.8291,-2.8291,-2.8291,-2.8291,-2.8291,-2.8291,-2.8291,-2.8291,0.0,-2.8291,-2.8291,-2.8291,-2.8291,-2.8291,-2.8291,-2.8291,-2.8291,-2.8291,-2.8291,-2.8291,0.0,0.0,0.0,0.0,0.0,0.0,0.0,0.0,0.0,0.0,0.0,0.0,0.0,0.0,0.0,0.0,0.0,0.0,0.0,0.0,0.0,0.0,0.0,0.0,0.0,0.0,-2.4682,-2.4418,-2.3261,-2.2402,-2.1807,-2.0915,-2.0333,0.0,0.0,0.0,0.0,0.0,-1.9632,-2.0025,0.0,0.0,0.0,0.0,0.0,0.0,0.0,0.0,0.0,0.0,0.0,0.0,0.0,0.0,0.0,-2.3091,-2.3091,-2.3188,-2.3672,-2.4092,-2.4521,-2.4961,0.0,-2.5342,0.0,0.0,0.0,0.0,0.0,0.0,0.0,0.0,0.0,0.0,0.0,0.0,0.0,0.0,0.0,0.0,0.0,0.0,0.0,0.0,0.0,0.0,0.0,0.0,-2.8291,-2.8291,-2.8291,-2.8291,-2.8291,-2.8291,-2.8291,-2.8291,-2.8291,-2.8291,-2.8291,-2.8291,-2.8291,-2.8291,-2.8291,-2.8291,-2.8291,-2.8291,-2.8291,-2.8291,-2.8291,-2.8291,-2.8291,-2.8291,-2.8291,-2.8291,-2.8291,-2.8291,0.0,0.0,0.0,0.0,0.0,0.0,0.0,0.0,0.0,0.0,0.0,0.0,0.0,0.0,0.0,0.0,0.0,0.0,0.0,0.0,0.0,0.0,0.0,0.0,0.0,-2.4957,-2.461,-2.4236,-2.3187,-2.2101,-2.0984,-2.0547,-2.0303,-2.0264,0.0,0.0,0.0,0.0,-2.0029,-2.0298,-2.0712,0.0,0.0,0.0,0.0,0.0,0.0,0.0,0.0,0.0,0.0,0.0,0.0,0.0,-2.3091,-2.3091,-2.3091,-2.3188,-2.3672,-2.4092,-2.4521,-2.4961,0.0,0.0,0.0,0.0,0.0,0.0,0.0,0.0,0.0,0.0,0.0,0.0,0.0,0.0,0.0,0.0,0.0,0.0,0.0,0.0,0.0,0.0,0.0,0.0,0.0,0.0,-2.8291,-2.8291,-2.8291,-2.8291,-2.8291,-2.8291,-2.8291,-2.8291,-2.8291,-2.8291,-2.8291,-2.8291,-2.8291,-2.8291,-2.8291,-2.8291,-2.8291,-2.8291,-2.8291,-2.8291,-2.8291,-2.8291,-2.8291,-2.8291,-2.8291,-2.8291,-2.8291,-2.8291,0.0,0.0,0.0,0.0,0.0,0.0,0.0,0.0,0.0,0.0,0.0,0.0,0.0,0.0,0.0,0.0,0.0,0.0,0.0,0.0,0.0,0.0,0.0,-2.5087,-2.4992,-2.4634,-2.4236,-2.3824,-2.2553,-2.1645,-2.1075,-2.0907,0.0,0.0,0.0,0.0,0.0,0.0,0.0,-2.091,-2.147,-2.1469,0.0,0.0,0.0,0.0,0.0,0.0,0.0,0.0,-2.1748,-2.2002,-2.2685,-2.2974,-2.3091,-2.3091,-2.3091,-2.3247,-2.3994,-2.4297,-2.459,-2.5303,0.0,0.0,0.0,0.0,0.0,0.0,0.0,0.0,0.0,0.0,0.0,0.0,0.0,0.0,0.0,0.0,0.0,0.0,0.0,0.0,0.0,0.0,0.0,0.0,0.0,0.0,-2.8291,-2.8291,-2.8291,-2.8291,-2.8291,-2.8291,-2.8291,-2.8291,-2.8291,-2.8291,-2.8291,-2.8291,-2.8291,-2.8291,-2.8291,-2.8291,-2.8291,-2.8291,-2.8291,-2.8291,-2.8291,-2.8291,-2.8291,-2.8291,-2.8291,-2.8291,-2.8291,-2.8291,0.0,0.0,0.0,0.0,0.0,0.0,0.0,0.0,0.0,0.0,0.0,0.0,0.0,0.0,0.0,0.0,0.0,0.0,0.0,0.0,0.0,0.0,0.0,-2.4554,-2.4526,-2.4007,-2.3629,-2.3409,-2.2063,-2.131,-2.119,0.0,0.0,0.0,0.0,0.0,0.0,0.0,0.0,0.0,-2.1963,-2.197,0.0,0.0,0.0,0.0,0.0,0.0,0.0,0.0,-2.1885,-2.2031,-2.2828,-2.3091,-2.3091,-2.3091,-2.3091,-2.3276,-2.4134,-2.4414,-2.4658,0.0,0.0,0.0,0.0,0.0,0.0,0.0,0.0,0.0,0.0,0.0,0.0,0.0,0.0,0.0,0.0,0.0,0.0,0.0,0.0,0.0,0.0,0.0,0.0,0.0,0.0,0.0,0.0,-2.8291,-2.8291,-2.8291,-2.8291,-2.8291,-2.8291,-2.8291,-2.8291,-2.8291,-2.8291,-2.8291,-2.8291,-2.8291,-2.8291,-2.8281,-2.8154,-2.8096,-2.8086,-2.7949,-2.7891,-2.7891,-2.7891,-2.7891,-2.7891,-2.7891,-2.7891,-2.7891,0.0,0.0,0.0,0.0,0.0,0.0,0.0,0.0,0.0,0.0,0.0,0.0,0.0,0.0,0.0,0.0,0.0,0.0,0.0,0.0,0.0,0.0,0.0,-2.3531,-2.3886,-2.3113,-2.2777,-2.2964,-2.1769,-2.1202,-2.119,-2.119,0.0,0.0,0.0,0.0,0.0,0.0,0.0,0.0,-2.1996,-2.2097,-2.1885,0.0,0.0,0.0,0.0,0.0,0.0,0.0,-2.1885,-2.2031,-2.2828,-2.3091,-2.3091,-2.3091,-2.3091,-2.3286,-2.4134,-2.4424,0.0,0.0,0.0,0.0,0.0,0.0,0.0,0.0,0.0,0.0,0.0,0.0,0.0,0.0,0.0,0.0,0.0,0.0,0.0,0.0,0.0,0.0,0.0,0.0,0.0,0.0,0.0,0.0,0.0,-2.8291,-2.8291,-2.8291,-2.8291,-2.8291,-2.8291,-2.8291,-2.8291,-2.8291,-2.8291,-2.8291,-2.8291,-2.8291,-2.8281,-2.8262,-2.7894,-2.7708,-2.7679,-2.7197,-2.7012,-2.7012,-2.7012,-2.7012,-2.7012,-2.7012,-2.7012,-2.7012,0.0,0.0,0.0,0.0,0.0,0.0,0.0,0.0,0.0,0.0,0.0,0.0,0.0,0.0,0.0,0.0,0.0,0.0,0.0,0.0,0.0,0.0,0.0,0.0,0.0,0.0,-2.1655,-2.1731,-2.1244,-2.1046,0.0,0.0,0.0,-2.1865,0.0,0.0,0.0,0.0,0.0,0.0,-2.2091,-2.2223,-2.1885,0.0,0.0,0.0,0.0,0.0,0.0,0.0,0.0,0.0,-2.2828,-2.3091,-2.3091,-2.3091,-2.3315,-2.3711,-2.4268,-2.4639,0.0,0.0,0.0,0.0,0.0,0.0,0.0,0.0,0.0,0.0,0.0,0.0,0.0,0.0,0.0,0.0,0.0,0.0,0.0,0.0,0.0,0.0,0.0,0.0,0.0,0.0,0.0,0.0,0.0,-2.8291,-2.8291,-2.8291,-2.8291,-2.8291,-2.8291,-2.8291,-2.8291,-2.8291,-2.7988,-2.8008,-2.8281,-2.7988,-2.7851,-2.7832,-2.7393,-2.7207,-2.7197,-2.707,-2.7012,-2.7012,-2.7012,-2.7012,-2.7012,-2.7012,-2.7012,-2.7012,0.0,0.0,0.0,0.0,0.0,0.0,0.0,0.0,0.0,0.0,0.0,0.0,0.0,0.0,0.0,0.0,0.0,0.0,0.0,0.0,0.0,0.0,0.0,0.0,0.0,-2.1369,-2.1051,0.0,0.0,0.0,0.0,0.0,0.0,-2.1865,0.0,-2.119,0.0,0.0,0.0,0.0,-2.1756,-2.1855,-2.1621,0.0,0.0,0.0,0.0,0.0,0.0,0.0,0.0,0.0,-2.2828,-2.3091,-2.3091,-2.3091,-2.3447,-2.3887,-2.4307,0.0,0.0,0.0,0.0,0.0,0.0,0.0,0.0,0.0,0.0,0.0,0.0,0.0,0.0,0.0,0.0,0.0,0.0,0.0,0.0,0.0,0.0,0.0,0.0,0.0,0.0,0.0,0.0,0.0,0.0,-2.8291,-2.8291,-2.8291,-2.8135,-2.8047,-2.8047,-2.7871,-2.7783,-2.7783,-2.7529,-2.7539,-2.7773,-2.7519,-2.7402,-2.7383,-2.6953,-2.667,-2.6454,-2.6454,-2.6454,-2.6454,-2.6454,-2.6454,-2.6454,-2.6454,-2.6454,-2.6454,0.0,0.0,-2.2258,-2.2258,0.0,0.0,0.0,0.0,0.0,0.0,0.0,-2.2197,0.0,0.0,0.0,-2.2154,0.0,0.0,0.0,0.0,0.0,0.0,0.0,0.0,0.0,0.0,0.0,0.0,0.0,0.0,0.0,0.0,-2.1387,-2.1748,0.0,-2.1132,0.0,0.0,0.0,0.0,-2.1181,-2.119,-2.119,-2.119,0.0,0.0,0.0,0.0,0.0,0.0,0.0,0.0,-2.2847,-2.3091,-2.3091,-2.3091,-2.3477,-2.3935,0.0,0.0,0.0,0.0,0.0,0.0,0.0,0.0,0.0,0.0,0.0,0.0,0.0,0.0,0.0,0.0,0.0,0.0,0.0,0.0,0.0,0.0,0.0,0.0,0.0,0.0,0.0,0.0,0.0,0.0,0.0,-2.8262,-2.8232,-2.8232,-2.7822,-2.766,-2.766,-2.7207,-2.7012,-2.7012,-2.6973,-2.6963,-2.6963,-2.6963,-2.6934,-2.6875,-2.6494,-2.6103,-2.5693,-2.5693,-2.5693,-2.5693,-2.5693,-2.5693,-2.5693,-2.5693,-2.5693,-2.5693,0.0,0.0,-2.2843,-2.2843,0.0,0.0,0.0,0.0,-2.2197,-2.2197,-2.2197,-2.2197,-2.2197,-2.2061,0.0,-2.1968,-2.1694,0.0,0.0,0.0,0.0,0.0,0.0,0.0,0.0,0.0,0.0,0.0,0.0,0.0,0.0,0.0,0.0,-2.0889,0.0,-2.0752,0.0,0.0,0.0,-2.0781,-2.1054,-2.119,-2.119,-2.119,-2.1132,0.0,0.0,0.0,0.0,0.0,0.0,0.0,-2.2935,-2.3091,-2.3091,-2.3091,-2.3682,-2.4307,0.0,0.0,0.0,0.0,0.0,0.0,0.0,0.0,0.0,0.0,0.0,0.0,0.0,0.0,0.0,0.0,0.0,0.0,0.0,0.0,0.0,0.0,0.0,0.0,0.0,0.0,0.0,0.0,0.0,0.0,-2.8291,-2.7978,-2.7855,-2.7855,-2.7383,-2.7158,-2.7158,-2.706,-2.7012,0.0,-2.668,-2.6523,-2.6523,-2.6523,-2.6338,-2.5957,-2.5869,-2.5771,-2.5693,-2.5693,-2.5693,-2.5693,-2.5693,-2.5693,-2.5693,-2.5693,-2.5693,-2.5693,0.0,0.0,0.0,0.0,0.0,0.0,0.0,0.0,-2.2474,-2.2221,-2.2135,-2.2061,-2.2061,-2.1819,0.0,0.0,-2.1273,-2.0924,0.0,0.0,0.0,0.0,0.0,0.0,0.0,0.0,0.0,0.0,0.0,0.0,0.0,0.0,0.0,-2.0615,0.0,-2.0762,0.0,0.0,-2.0371,-2.0586,-2.0371,-2.0547,-2.0889,-2.0644,-2.0732,-2.0918,-2.0918,0.0,0.0,0.0,0.0,0.0,0.0,0.0,-2.3091,-2.3091,-2.3603,-2.416,0.0,0.0,0.0,0.0,0.0,0.0,0.0,0.0,0.0,0.0,0.0,0.0,0.0,0.0,0.0,0.0,0.0,0.0,0.0,0.0,0.0,0.0,0.0,0.0,0.0,0.0,0.0,0.0,0.0,-2.7685,-2.7685,-2.7471,-2.7353,-2.7353,-2.6943,-2.6709,-2.6709,-2.6504,-2.6356,-2.6396,-2.6182,-2.6074,-2.6074,-2.6074,-2.5947,-2.5693,-2.5693,-2.5693,-2.5693,-2.5693,-2.5693,-2.5693,-2.5693,-2.5693,-2.5693,-2.5693,-2.5693,-2.5693,0.0,0.0,0.0,0.0,0.0,0.0,0.0,0.0,0.0,-2.2359,-2.2099,-2.1938,-2.1812,-2.1494,-2.1227,0.0,0.0,0.0,-2.0084,0.0,0.0,0.0,0.0,0.0,0.0,0.0,0.0,0.0,0.0,0.0,0.0,0.0,0.0,-2.085,0.0,0.0,0.0,0.0,-2.0195,-2.0429,-1.9766,-1.992,-2.0458,-2.0137,-2.0254,-2.0615,-2.0693,-2.0684,-2.084,-2.1611,0.0,0.0,0.0,0.0,-2.2877,-2.2877,-2.3281,-2.375,0.0,0.0,0.0,0.0,0.0,0.0,0.0,0.0,0.0,0.0,0.0,0.0,0.0,0.0,0.0,0.0,0.0,0.0,0.0,0.0,0.0,0.0,0.0,0.0,0.0,0.0,0.0,0.0,0.0,-2.7012,-2.7012,-2.6943,-2.6904,-2.6904,-2.6494,-2.6279,-2.6279,-2.5869,-2.5693,-2.5693,-2.5693,-2.5693,-2.5693,-2.5693,-2.5693,-2.5693,-2.5693,-2.5693,-2.5693,-2.5693,-2.5693,-2.5693,-2.5693,-2.5693,-2.5693,-2.5693,-2.5693,-2.5693,0.0,0.0,0.0,0.0,0.0,0.0,0.0,0.0,0.0,0.0,-2.2356,-2.1975,-2.1509,-2.1019,-2.0488,-1.9977,-1.9813,-1.9424,0.0,0.0,0.0,0.0,0.0,0.0,0.0,0.0,0.0,0.0,0.0,0.0,0.0,0.0,0.0,-2.1699,0.0,0.0,0.0,0.0,-2.0293,-2.0029,-2.0331,-2.0234,-2.0039,-2.04,-2.0556,-2.0654,-2.1006,-2.1103,-2.1181,-2.1719,-2.1885,0.0,0.0,0.0,0.0,-2.2051,-2.2607,0.0,0.0,0.0,0.0,0.0,0.0,0.0,0.0,0.0,0.0,0.0,0.0,0.0,0.0,0.0,0.0,0.0,0.0,0.0,0.0,0.0,0.0,0.0,0.0,0.0,0.0,0.0,0.0,0.0,-2.7012,-2.7012,-2.7012,-2.667,-2.6475,-2.6475,-2.6045,-2.5771,-2.5771,-2.5713,-2.5693,-2.5693,-2.5693,-2.5693,-2.5693,-2.5693,-2.5693,-2.5693,-2.5693,-2.5693,-2.5693,-2.5693,-2.5693,-2.5693,-2.5693,-2.5693,-2.5693,-2.5693,-2.5693,-2.5693,0.0,0.0,0.0,0.0,0.0,0.0,0.0,0.0,0.0,0.0,0.0,-2.1644,-2.0937,-2.0377,-1.9901,-1.9501,-1.9071,0.0,0.0,0.0,0.0,0.0,0.0,0.0,0.0,0.0,0.0,0.0,0.0,0.0,0.0,-2.1631,-2.1934,0.0,0.0,0.0,0.0,0.0,-2.0488,-2.0254,-2.0008,-2.0176,-2.0644,-2.0625,-2.0918,-2.1339,-2.121,-2.119,-2.122,-2.1455,-2.1523,-2.1562,-2.1807,0.0,0.0,0.0,0.0,0.0,0.0,0.0,0.0,0.0,0.0,0.0,0.0,0.0,0.0,0.0,0.0,0.0,0.0,0.0,0.0,0.0,0.0,0.0,0.0,0.0,0.0,0.0,0.0,0.0,0.0,0.0,0.0,0.0,-2.6249,-2.6249,-2.6249,-2.6123,-2.6025,-2.6025,-2.5791,-2.5693,-2.5693,-2.5693,-2.5693,-2.5693,-2.5693,-2.5693,-2.5693,-2.5693,-2.5693,-2.5693,-2.5693,-2.5693,-2.5693,-2.5693,-2.5693,-2.5693,-2.5693,-2.5693,-2.5693,-2.5693,-2.5693,-2.5693,0.0,0.0,0.0,0.0,0.0,0.0,0.0,0.0,0.0,0.0,0.0,-2.1107,-2.0292,0.0,0.0,0.0,-1.8496,0.0,0.0,0.0,0.0,0.0,0.0,0.0,0.0,0.0,0.0,0.0,0.0,0.0,-2.1084,-2.1943,-2.2305,0.0,-2.2539,0.0,0.0,0.0,0.0,-2.0693,-2.0156,-2.0469,-2.1171,-2.0986,-2.1309,-2.1846,-2.1514,-2.1288,-2.119,-2.119,-2.1112,-2.1123,-2.1445,0.0,0.0,0.0,0.0,0.0,0.0,0.0,0.0,0.0,0.0,0.0,0.0,0.0,0.0,0.0,0.0,0.0,0.0,0.0,0.0,0.0,0.0,0.0,0.0,0.0,0.0,0.0,0.0,0.0,0.0,0.0,0.0,0.0,-2.5693,-2.5693,-2.5693,-2.5693,-2.5693,-2.5693,-2.5693,-2.5693,-2.5693,-2.5693,-2.5693,-2.5693,-2.5693,-2.5693,-2.5693,-2.5693,-2.5693,-2.5693,-2.5693,-2.5693,-2.5693,-2.5693,-2.5693,-2.5693,-2.5693,-2.5693,-2.5693,-2.5693,-2.5693,-2.5693,0.0,0.0,0.0,0.0,0.0,0.0,0.0,0.0,0.0,0.0,0.0,-2.0408,-1.9724,-1.9175,-1.8601,-1.8033,-1.8168,0.0,0.0,0.0,0.0,0.0,0.0,0.0,0.0,0.0,0.0,0.0,0.0,0.0,-2.0664,-2.1504,-2.2334,-2.3033,-2.3115,-2.2871,-2.2422,0.0,0.0,-2.119,-2.1602,-2.1543,-2.1239,-2.167,-2.1846,-2.1885,-2.1865,-2.1582,-2.119,-2.119,-2.0947,-2.0644,-2.0664,-2.0674,-2.0674,0.0,0.0,0.0,0.0,0.0,0.0,0.0,0.0,0.0,0.0,0.0,0.0,0.0,0.0,0.0,0.0,0.0,0.0,0.0,0.0,0.0,0.0,0.0,0.0,0.0,0.0,0.0,0.0,0.0,0.0,0.0,-2.5693,-2.5693,-2.5693,-2.5693,-2.5693,-2.5693,-2.5693,-2.5693,-2.5693,-2.5693,-2.5693,-2.5693,-2.5693,-2.5693,-2.5693,-2.5693,-2.5693,-2.5693,-2.5693,-2.5693,-2.5693,-2.5693,-2.5693,-2.5693,-2.5693,-2.5693,-2.5693,-2.5693,-2.5693,-2.5693,0.0,0.0,0.0,0.0,0.0,0.0,0.0,0.0,0.0,0.0,0.0,0.0,0.0,-1.8893,-1.861,-1.8004,-1.8045,0.0,0.0,0.0,0.0,0.0,0.0,0.0,0.0,0.0,0.0,0.0,0.0,-1.958,-2.0176,-2.1621,-2.2451,-2.2744,-2.3027,-2.291,-2.25,-2.2353,0.0,-2.167,-2.1816,-2.2119,-2.2438,-2.2627,-2.3027,-2.3437,-2.29,-2.265,-2.2393,-2.1846,-2.1357,-2.0996,-2.0996,-2.0801,-2.0605,-2.0605,0.0,0.0,0.0,0.0,0.0,0.0,0.0,0.0,0.0,0.0,0.0,0.0,0.0,0.0,0.0,0.0,0.0,0.0,0.0,0.0,0.0,0.0,0.0,0.0,0.0,0.0,0.0,0.0,0.0,0.0,0.0,-2.5693,-2.5693,-2.5693,-2.5693,-2.5693,-2.5693,-2.5693,-2.5693,-2.5693,-2.5693,-2.5693,-2.5693,-2.5693,-2.5693,-2.5693,-2.5693,-2.5693,-2.5693,-2.5693,-2.5693,-2.5693,-2.5693,-2.5693,-2.5693,-2.5693,-2.5693,-2.5693,-2.5693,-2.5693,0.0,0.0,0.0,-2.7002,0.0,-2.5696,-2.3686,-2.3097,-2.2334,-2.0707,0.0,0.0,0.0,0.0,-1.8872,-1.8457,-1.8301,-1.7993,-1.7576,0.0,0.0,0.0,0.0,0.0,0.0,0.0,0.0,0.0,0.0,0.0,0.0,-2.125,-2.2012,-2.2314,-2.2598,-2.2715,0.0,0.0,0.0,-2.2305,0.0,-2.2725,-2.3315,-2.3315,-2.3799,-2.4346,-2.3779,-2.354,-2.3306,-2.2549,-2.2021,-2.157,-2.1288,-2.0928,-2.0605,-2.0605,-2.0781,0.0,0.0,0.0,0.0,0.0,0.0,0.0,0.0,0.0,0.0,0.0,0.0,0.0,0.0,0.0,0.0,0.0,0.0,0.0,0.0,0.0,0.0,0.0,0.0,0.0,0.0,0.0,0.0,0.0,0.0,0.0,-2.5693,-2.5693,-2.5693,-2.5693,-2.5693,-2.5693,-2.5693,-2.5693,-2.5615,-2.5518,-2.5518,-2.5439,-2.5245,-2.5245,-2.5245,-2.5245,-2.5245,-2.5411,-2.5693,-2.5693,-2.5693,-2.5693,-2.5693,-2.5693,-2.5693,-2.5693,-2.5693,-2.5693,-2.835,-2.8287,-2.7846,-2.6762,-2.6256,-2.5304,-2.3377,-2.2617,-2.1891,-2.0835,0.0,0.0,0.0,0.0,0.0,-1.9287,-1.8861,-1.8556,-1.8424,-1.7975,0.0,0.0,0.0,0.0,0.0,0.0,0.0,0.0,0.0,0.0,0.0,0.0,-2.1045,-2.1826,-2.1855,-2.2314,-2.3042,0.0,-2.3081,-2.3081,0.0,-2.3418,-2.3809,0.0,-2.4092,-2.4453,-2.4443,-2.417,-2.376,-2.3276,-2.2847,-2.2383,-2.1463,-2.0928,-2.0605,-2.0605,-2.0605,-2.0703,0.0,0.0,0.0,0.0,0.0,0.0,0.0,0.0,0.0,0.0,0.0,0.0,0.0,0.0,0.0,0.0,0.0,0.0,0.0,0.0,0.0,0.0,0.0,0.0,0.0,0.0,0.0,0.0,-2.5693,-2.5693,-2.5693,-2.5693,-2.5684,-2.5674,-2.5664,-2.5664,-2.5645,-2.5645,-2.5478,-2.5096,-2.5096,-2.4824,-2.4414,-2.4414,-2.4414,-2.4414,-2.4414,-2.4855,-2.5645,-2.5664,-2.5674,-2.5693,-2.5693,-2.5693,-2.5693,-2.5693,-2.5693,-2.5693,-2.7506,-2.7587,-2.7357,-2.6355,-2.572,-2.4747,-2.2936,-2.2078,-2.1313,0.0,0.0,0.0,-1.9436,-1.9323,-1.9287,-1.9287,-1.918,-1.8913,-1.8444,-1.8273,-1.8052,-1.7666,-1.7672,-1.7784,0.0,0.0,0.0,0.0,0.0,0.0,0.0,0.0,0.0,0.0,-2.1093,-2.1502,-2.1756,-2.2379,0.0,0.0,-2.3359,-2.3867,0.0,0.0,0.0,0.0,0.0,-2.4814,-2.4648,0.0,-2.3584,-2.2773,-2.1561,-2.0928,-2.0605,-2.0605,-2.0605,-2.0635,-2.0752,0.0,0.0,0.0,0.0,0.0,0.0,0.0,0.0,0.0,0.0,0.0,0.0,0.0,0.0,0.0,0.0,0.0,0.0,0.0,0.0,0.0,0.0,0.0,0.0,0.0,0.0,0.0,-2.5693,-2.5693,-2.5693,-2.5693,-2.5586,-2.5264,-2.5254,-2.5098,-2.4738,-2.4738,-2.4717,-2.459,-2.459,-2.4531,-2.4414,-2.4414,-2.4414,-2.4414,-2.4414,-2.4551,-2.4805,-2.5127,-2.5439,-2.5693,-2.5693,-2.5693,-2.5693,-2.5693,-2.5693,-2.5693,-2.6827,-2.6961,-2.677,-2.5814,-2.5204,-2.4377,-2.2977,-2.2258,-2.165,0.0,0.0,0.0,-2.0439,-2.0371,-2.0303,-2.0117,-1.9932,-1.9602,-1.9073,-1.8679,-1.836,-1.8099,-1.7915,-1.7896,-1.8008,0.0,0.0,0.0,0.0,0.0,0.0,0.0,0.0,0.0,-2.0195,-2.0518,-2.0693,-2.1416,0.0,0.0,-2.3252,0.0,0.0,-2.4902,-2.5352,0.0,0.0,0.0,-2.5273,-2.4834,-2.4004,-2.2988,-2.206,-2.1465,-2.1153,-2.1153,-2.1153,-2.1153,-2.1153,-2.1621,0.0,0.0,0.0,0.0,0.0,0.0,0.0,0.0,0.0,0.0,0.0,0.0,0.0,0.0,0.0,0.0,0.0,0.0,0.0,0.0,0.0,0.0,0.0,-2.5693,-2.5693,-2.5693,-2.5693,-2.5693,-2.5693,-2.5693,-2.5527,-2.5135,-2.5116,-2.4863,-2.4424,-2.4414,-2.4336,-2.415,-2.415,-2.4062,-2.3842,-2.3842,-2.3842,-2.3842,-2.3842,-2.3984,-2.417,-2.4424,-2.4902,-2.5478,-2.5615,-2.5693,-2.5693,-2.5693,-2.5693,-2.5693,0.0,-2.631,-2.6083,-2.5137,-2.4652,-2.4082,-2.3185,-2.2727,-2.24,0.0,-2.2009,-2.1885,-2.1885,-2.1885,-2.1709,-2.1229,-2.0869,-2.043,-1.9941,-1.9163,-1.8695,-1.8607,-1.8247,-1.8057,-1.8008,-1.8008,0.0,0.0,0.0,0.0,0.0,0.0,0.0,0.0,-1.9248,-1.9492,-1.9873,-2.04,-2.1289,-2.249,-2.2969,-2.3662,0.0,0.0,-2.5352,-2.5693,-2.5693,-2.5693,-2.5615,-2.5166,-2.4199,-2.3091,-2.2656,-2.2217,-2.1885,-2.1885,-2.1885,0.0,-2.1885,-2.2197,-2.251,-2.251,-2.2779,0.0,-2.3091,-2.3477,0.0,0.0,0.0,0.0,0.0,0.0,0.0,0.0,0.0,0.0,0.0,0.0,0.0,0.0,0.0,0.0,-2.5693,-2.5693,-2.5693,-2.5693,-2.5693,-2.5693,-2.5693,-2.5693,-2.5508,-2.5057,-2.5047,-2.4766,-2.4277,-2.4277,-2.4092,-2.3721,-2.3721,-2.3516,-2.3091,-2.3091,-2.3091,-2.3091,-2.3091,-2.3359,-2.3721,-2.3769,-2.4268,-2.5039,-2.5488,-2.5615,-2.5625,-2.5674,-2.5693,-2.5693,-2.5094,-2.5262,-2.5209,-2.4427,-2.395,-2.3442,-2.2716,-2.24,-2.2205,-2.1967,-2.1926,0.0,-2.1885,-2.1885,-2.1709,-2.1229,-2.1112,-2.0771,-1.9961,-1.9756,-1.9319,-1.8627,-1.852,-1.8325,-1.8018,-1.8008,0.0,0.0,0.0,0.0,0.0,0.0,0.0,0.0,-1.8984,-1.9336,-1.9463,-2.0273,0.0,-2.207,-2.2832,0.0,-2.4463,-2.4902,-2.5352,-2.5693,-2.5693,-2.5693,-2.5567,-2.4814,-2.415,-2.3525,0.0,-2.2217,-2.1885,-2.1885,-2.1885,-2.1885,-2.1885,-2.2197,-2.251,-2.251,-2.2779,0.0,-2.3091,-2.3477,0.0,0.0,0.0,0.0,0.0,0.0,0.0,0.0,0.0,0.0,0.0,0.0,0.0,0.0,0.0,0.0,-2.5693,-2.5693,-2.5693,-2.5693,-2.5693,-2.5693,-2.5693,-2.5693,-2.5323,-2.457,-2.4541,-2.417,-2.3354,-2.3344,-2.3305,-2.3218,-2.3218,-2.3179,-2.3091,-2.3091,-2.3091,-2.3091,-2.3091,-2.314,-2.3247,-2.3643,-2.4092,-2.459,-2.5029,-2.5195,-2.5244,-2.5605,-2.5693,-2.5693,-2.4302,-2.4551,-2.4628,-2.3912,-2.3626,-2.3353,-2.2869,-2.2712,-2.2595,0.0,0.0,0.0,0.0,0.0,-2.2578,-2.1924,-2.1834,-2.1463,-2.0596,-2.0361,-1.9951,-1.927,-1.9072,-1.8867,-1.8652,-1.8652,-1.8652,0.0,0.0,0.0,0.0,0.0,0.0,0.0,0.0,-1.9404,-1.9629,0.0,-2.0879,-2.1943,-2.2578,0.0,-2.415,-2.458,-2.4883,-2.5031,-2.5031,-2.5031,-2.4933,-2.4326,-2.3965,0.0,-2.3027,-2.2676,-2.251,0.0,-2.251,-2.251,-2.251,-2.2666,-2.2779,-2.2779,0.0,0.0,0.0,-2.3266,-2.3467,0.0,0.0,0.0,0.0,0.0,0.0,0.0,0.0,0.0,0.0,0.0,0.0,0.0,0.0,0.0,-2.5693,-2.5693,-2.5693,-2.5693,-2.5693,-2.5693,-2.5693,-2.5693,-2.5284,-2.4443,-2.4414,-2.3958,-2.3101,-2.3091,-2.3091,-2.3091,-2.3091,-2.3057,-2.2969,-2.2969,-2.2882,-2.275,-2.2882,-2.2969,-2.2989,-2.329,-2.3594,-2.3793,-2.4492,-2.4873,-2.5145,-2.5322,-2.5547,-2.5693,-2.3516,-2.3898,-2.411,-2.3503,-2.3416,-2.3373,-2.3135,-2.3091,-2.312,0.0,0.0,0.0,0.0,0.0,0.0,0.0,0.0,-2.2233,-2.1335,-2.0976,-2.0625,-2.0059,-1.9717,-1.9453,-1.9287,-1.9287,-1.9287,-1.9287,0.0,0.0,0.0,0.0,0.0,0.0,0.0,0.0,0.0,0.0,0.0,-2.2031,0.0,-2.3027,-2.3828,-2.417,-2.4346,-2.4414,-2.4414,-2.4414,-2.4355,-2.3935,-2.3789,-2.3711,-2.3227,-2.3091,0.0,0.0,0.0,-2.3091,0.0,0.0,-2.3091,0.0,0.0,-2.3091,0.0,0.0,0.0,-2.3091,0.0,0.0,0.0,0.0,0.0,0.0,0.0,0.0,0.0,0.0,0.0,0.0,0.0,0.0,0.0,-2.5693,-2.5693,-2.5693,-2.5693,-2.5693,-2.5693,-2.5693,-2.5284,-2.4443,-2.4414,-2.3958,-2.3101,-2.3091,-2.3091,-2.3091,-2.3091,-2.3013,-2.2803,-2.2803,-2.2662,-2.2388,-2.2618,-2.275,-2.2794,-2.2969,-2.3057,-2.3169,-2.3949,-2.4512,-2.4891,-2.5057,-2.5293,-2.5625,-2.2544,-2.31,-2.346,-2.2979,-2.3013,-2.3144,-2.3091,-2.3091,-2.3227,0.0,0.0,0.0,0.0,0.0,0.0,0.0,0.0,0.0,-2.1524,-2.1644,-2.1357,-2.0566,-2.0478,-2.0106,-1.9307,-1.9287,-1.9287,-1.9287,0.0,0.0,0.0,0.0,-1.9219,-1.9248,-2.0096,0.0,0.0,0.0,-2.1963,0.0,-2.249,-2.3027,0.0,-2.3838,-2.4092,-2.4414,-2.4414,-2.4414,-2.4355,0.0,-2.3789,-2.3711,0.0,-2.3091,-2.3091,-2.3091,0.0,0.0,0.0,0.0,0.0,0.0,-2.3091,0.0,0.0,0.0,-2.3091,-2.3091,0.0,0.0,0.0,0.0,0.0,0.0,0.0,0.0,0.0,0.0,0.0,0.0,0.0,0.0,0.0,-2.5693,-2.5693,-2.5693,-2.5693,-2.5693,-2.5693,-2.5693,-2.5284,-2.4443,-2.4414,-2.3958,-2.3101,-2.3091,-2.3091,-2.3091,-2.3091,-2.3013,-2.2803,-2.2803,-2.2662,-2.2397,-2.2432,-2.2574,-2.2803,-2.2838,-2.2925,-2.314,-2.3672,-2.3896,-2.4023,-2.4832,-2.5145,-2.5205,-2.1979,-2.2428,-2.2755,-2.2799,-2.2689,-2.2688,-2.3062,-2.3305,-2.3672,0.0,0.0,0.0,0.0,0.0,0.0,0.0,0.0,-2.3089,0.0,0.0,0.0,-2.1407,-2.1084,-2.0791,-2.043,-2.0166,-2.0067,-2.0067,-1.9775,0.0,0.0,0.0,-1.9648,-1.9687,-2.0566,0.0,-2.0996,0.0,-2.2129,0.0,0.0,0.0,0.0,-2.3408,-2.3516,-2.3627,-2.3627,-2.3627,-2.3608,0.0,-2.3408,0.0,0.0,0.0,0.0,-2.3091,0.0,0.0,0.0,0.0,0.0,0.0,0.0,0.0,-2.3042,0.0,-2.2799,0.0,0.0,0.0,0.0,0.0,0.0,0.0,0.0,0.0,0.0,0.0,0.0,0.0,0.0,0.0,0.0,0.0,0.0,0.0,-2.5596,-2.5693,-2.5693,-2.5693,-2.5284,-2.4443,-2.4414,-2.3958,-2.3101,-2.3091,-2.3091,-2.3091,-2.3091,-2.2916,-2.2574,-2.2574,-2.2353,-2.1998,-2.2176,-2.2264,-2.2407,-2.2715,-2.2847,-2.2945,-2.3252,-2.3564,-2.3838,-2.4199,-2.4482,-2.4756,-2.14,-2.1777,-2.2169,-2.2485,-2.2337,-2.2447,-2.3188,-2.3682,-2.4121,0.0,0.0,0.0,-2.5254,-2.5025,0.0,0.0,-2.3965,-2.3614,0.0,0.0,-2.2775,-2.2181,-2.1799,-2.1568,-2.1416,-2.0977,-2.0752,-2.0752,-2.0303,0.0,0.0,0.0,-2.0088,-2.0127,0.0,-2.1375,-2.1445,0.0,0.0,-2.2643,-2.2643,-2.2818,-2.3091,-2.3091,-2.3091,-2.3091,-2.3091,-2.3091,-2.3091,-2.3091,-2.3091,0.0,-2.3091,0.0,-2.3091,0.0,0.0,0.0,-2.3091,0.0,0.0,0.0,0.0,0.0,0.0,0.0,0.0,0.0,0.0,0.0,0.0,0.0,0.0,0.0,0.0,0.0,0.0,0.0,0.0,0.0,0.0,0.0,0.0,0.0,0.0,0.0,0.0,-2.5557,-2.5684,-2.5693,-2.5284,-2.4443,-2.4414,-2.3958,-2.3101,-2.3057,-2.3013,-2.3013,-2.2916,-2.2706,-2.2309,-2.2309,-2.2087,-2.1687,-2.1919,-2.2052,-2.2141,-2.2451,-2.2671,-2.2794,-2.2969,-2.3242,-2.3623,-2.375,-2.3984,-2.4326,-2.0521,-2.1235,0.0,0.0,-2.2059,-2.2544,-2.3643,-2.4121,-2.4551,0.0,0.0,0.0,0.0,0.0,0.0,0.0,0.0,-2.3984,-2.3327,0.0,-2.3385,-2.2803,-2.2746,-2.249,-2.1885,-2.1435,-2.1171,-2.1171,-2.0762,-2.0586,0.0,0.0,0.0,0.0,0.0,-2.1865,-2.1924,-2.2701,-2.3062,-2.3071,-2.3071,-2.3081,-2.3091,0.0,-2.3091,-2.3091,-2.3091,0.0,0.0,-2.3091,-2.3091,0.0,0.0,0.0,0.0,0.0,0.0,0.0,0.0,0.0,0.0,-2.3091,0.0,0.0,0.0,0.0,-2.2519,0.0,0.0,0.0,0.0,0.0,-2.3091,-2.3091,0.0,0.0,0.0,0.0,0.0,0.0,0.0,0.0,0.0,0.0,0.0,0.0,0.0,0.0,-2.5664,-2.5693,-2.5284,-2.4443,-2.4414,-2.3958,-2.3101,-2.2925,-2.2794,-2.2803,-2.253,-2.2309,-2.2097,-2.2097,-2.1963,-2.1696,-2.1696,-2.1874,-2.2097,-2.2097,-2.2407,-2.2803,-2.2803,-2.2935,-2.3169,-2.3633,-2.3799,-2.3926,0.0,0.0,0.0,0.0,0.0,-2.2091,-2.3104,-2.3637,-2.4114,0.0,0.0,0.0,0.0,-2.4932,-2.4679,0.0,0.0,-2.4068,-2.3708,-2.3784,0.0,-2.3404,-2.2834,-2.2538,-2.251,-2.1771,-2.1496,-2.167,-2.123,-2.1006,0.0,0.0,0.0,0.0,0.0,-2.1885,0.0,0.0,0.0,0.0,0.0,-2.3398,-2.3091,0.0,-2.3091,-2.3091,-2.3091,-2.3091,0.0,-2.3091,-2.3091,-2.3091,-2.3091,-2.3013,-2.2882,-2.2882,-2.2882,0.0,0.0,0.0,-2.3033,-2.275,0.0,0.0,0.0,0.0,0.0,0.0,0.0,0.0,0.0,0.0,0.0,-2.3091,-2.274,0.0,0.0,0.0,0.0,0.0,0.0,0.0,0.0,0.0,0.0,0.0,-2.4746,0.0,0.0,-2.5576,-2.5284,-2.4443,-2.4414,-2.3913,-2.2891,-2.2847,-2.2706,-2.253,-2.2441,-2.2309,-2.2097,-2.2097,-2.1963,-2.1696,-2.1696,-2.1731,-2.183,-2.2008,-2.2264,-2.2574,-2.2706,-2.2925,-2.311,-2.3257,-2.3359,-2.3477,-2.1108,0.0,0.0,0.0,0.0,-2.2133,-2.3096,-2.3634,0.0,0.0,-2.4722,0.0,-2.4883,0.0,-2.448,0.0,-2.4341,-2.4141,-2.4029,-2.401,0.0,-2.3758,-2.3213,-2.2917,0.0,-2.2256,-2.1961,-2.2026,-2.1483,-2.119,0.0,0.0,0.0,0.0,0.0,0.0,-2.1953,0.0,-2.3418,0.0,0.0,-2.3389,0.0,0.0,-2.3091,-2.3091,0.0,-2.3091,-2.3091,-2.3091,-2.3091,-2.3101,-2.3013,-2.2882,-2.2803,-2.2715,-2.2715,-2.2803,-2.2803,-2.2969,0.0,-2.2617,-2.2146,0.0,-2.1598,0.0,-2.1736,0.0,0.0,0.0,0.0,0.0,0.0,-2.3101,-2.274,0.0,0.0,-2.2275,0.0,0.0,0.0,0.0,0.0,0.0,-2.3916,-2.3799,0.0,0.0,0.0,0.0,-2.5284,-2.4443,-2.4414,-2.3877,-2.2803,-2.2715,-2.253,-2.2309,-2.2061,-2.1938,-2.1954,-2.1806,-2.1727,-2.1696,-2.1696,-2.1696,-2.1741,-2.2008,-2.223,-2.2441,-2.2706,-2.2925,-2.3091,-2.3091,-2.3286,-2.3627,0.0,0.0,0.0,0.0,-2.2005,0.0,0.0,0.0,-2.442,0.0,-2.4883,-2.4883,-2.4883,-2.4637,-2.4489,-2.4489,-2.4301,-2.4202,-2.4202,-2.4202,0.0,0.0,-2.3894,-2.3607,-2.3078,-2.2875,-2.264,-2.2246,-2.1576,-2.1229,0.0,0.0,0.0,0.0,-2.1035,0.0,-2.1914,-2.2353,-2.274,-2.312,-2.312,-2.311,-2.3091,-2.3091,-2.3091,-2.3091,-2.3091,-2.3091,-2.3091,-2.3091,-2.3091,-2.3047,-2.2838,-2.2784,-2.2677,-2.2457,-2.2536,-2.2736,-2.2736,-2.2867,-2.2925,-2.2506,-2.191,0.0,0.0,0.0,-2.1182,0.0,0.0,0.0,0.0,0.0,0.0,0.0,-2.275,0.0,0.0,0.0,0.0,0.0,0.0,0.0,0.0,0.0,-2.3237,-2.3691,-2.4141,0.0,0.0,0.0,-2.5235,-2.4397,-2.4348,-2.3848,-2.2769,-2.253,-2.2264,-2.2087,-2.1397,-2.1328,-2.1678,-2.13,-2.1337,-2.1696,-2.1696,-2.1696,-2.1741,-2.2008,-2.223,-2.2441,-2.2706,-2.2925,-2.3091,-2.3091,-2.3637,-2.4414,-2.1531,-2.1851,-2.2245,0.0,-2.2401,-2.2585,0.0,0.0,0.0,0.0,-2.4399,-2.4399,-2.4399,-2.4301,-2.4301,-2.4301,-2.4251,0.0,0.0,0.0,0.0,-2.4153,-2.38,-2.3638,-2.3663,-2.3045,-2.2848,-2.3102,0.0,0.0,-2.1699,0.0,0.0,0.0,0.0,0.0,-2.1934,-2.2666,-2.3223,-2.3623,-2.3623,-2.3428,0.0,0.0,-2.3091,-2.3091,-2.3091,-2.3091,-2.3091,-2.3091,-2.3013,-2.2882,-2.2803,-2.2364,-2.1838,-2.1944,-2.1802,-2.164,-2.1777,-2.1884,-2.181,-2.1395,-2.1089,-2.0695,0.0,0.0,0.0,0.0,0.0,0.0,0.0,0.0,0.0,0.0,0.0,0.0,0.0,0.0,0.0,-2.2158,0.0,0.0,0.0,-2.2676,-2.2715,-2.2832,-2.3535,0.0,0.0,0.0,0.0,-2.4202,-2.37,-2.3062,-2.2283,-2.223,-2.2052,-2.1776,-2.131,-2.1328,-2.1678,-2.13,-2.1337,-2.1696,-2.1696,-2.183,-2.2008,-2.2052,-2.2362,-2.2706,-2.275,-2.2925,-2.3091,-2.3091,-2.3637,-2.4414,-2.1952,0.0,0.0,-2.3096,0.0,0.0,-2.3425,-2.3694,0.0,-2.4174,-2.4202,0.0,-2.4202,-2.4202,-2.4202,-2.4202,-2.4202,0.0,-2.4202,0.0,0.0,-2.4202,-2.3932,-2.377,-2.3749,-2.3205,0.0,-2.3238,0.0,0.0,-2.1865,0.0,0.0,0.0,0.0,-2.1299,0.0,-2.2783,-2.3237,-2.3506,-2.3506,-2.3359,0.0,-2.3091,-2.3091,-2.3091,-2.3091,-2.3091,-2.3101,-2.3013,-2.2882,-2.2721,-2.2355,-2.191,-2.1469,-2.1386,-2.1203,-2.1108,-2.1316,-2.1358,-2.1285,-2.0874,-2.0616,-2.0351,-1.9888,-2.0211,-2.0628,0.0,-2.1282,-2.1851,0.0,0.0,0.0,0.0,0.0,0.0,0.0,0.0,0.0,0.0,-2.1792,0.0,-2.2,-2.2308,-2.251,-2.251,-2.331,0.0,0.0,0.0,0.0,-2.3647,-2.3281,-2.2777,-2.2106,-2.2097,-2.1871,-2.1412,-2.1044,-2.0979,-2.1156,-2.0961,-2.1071,-2.1431,-2.1614,-2.1874,-2.2097,-2.2185,-2.2451,-2.2794,-2.2891,-2.3013,-2.3091,-2.3091,-2.3637,-2.4414,-2.2428,0.0,0.0,0.0,0.0,0.0,0.0,-2.3923,0.0,-2.4202,0.0,-2.4202,-2.4202,-2.4202,-2.4202,-2.4202,0.0,-2.4202,-2.4202,-2.4202,-2.4202,-2.4202,-2.4202,-2.3987,-2.3581,-2.3379,-2.3196,0.0,-2.1974,0.0,0.0,0.0,0.0,0.0,0.0,0.0,0.0,-2.2783,-2.3091,-2.3057,-2.3057,-2.3057,-2.3003,-2.3003,-2.3003,-2.3003,-2.3003,-2.3047,-2.3047,-2.2838,-2.2759,-2.2595,-2.1767,-2.1425,-2.1295,-2.0843,-2.0736,-2.0782,-2.098,-2.1021,-2.0895,-2.0535,-2.0339,-2.0043,-1.9641,-1.9762,-1.9893,-1.9893,-2.0521,-2.1078,0.0,0.0,0.0,0.0,0.0,0.0,0.0,0.0,0.0,0.0,0.0,0.0,0.0,-2.19,-2.2279,-2.2337,-2.3076,0.0,0.0,0.0,0.0,-2.3076,-2.2974,-2.264,-2.2052,0.0,-2.175,-2.1099,-2.0704,-2.0521,-2.0521,-2.0521,-2.0732,-2.1126,-2.1513,-2.1874,-2.2097,-2.2309,-2.2574,-2.2838,-2.3013,-2.3091,-2.3091,-2.3091,-2.3637,-2.4414,0.0,0.0,0.0,0.0,0.0,-2.4101,-2.4101,-2.4156,-2.4202,-2.4202,-2.4202,-2.4202,-2.4202,-2.4202,-2.4202,-2.4202,-2.4202,0.0,0.0,0.0,0.0,-2.4202,-2.4202,-2.4165,-2.4101,-2.3327,-2.3064,-2.3271,-2.191,-2.1345,0.0,0.0,0.0,0.0,0.0,0.0,-2.1943,-2.2783,0.0,-2.2838,-2.2838,-2.2706,-2.252,-2.252,-2.252,-2.252,-2.252,-2.2662,-2.2847,-2.2794,-2.2539,-2.2155,-2.1637,-2.1102,-2.0624,-2.0383,-2.0071,-1.9851,-2.008,-2.001,-1.9872,-1.9806,-1.962,-1.9433,-1.9359,-1.9632,-1.9893,-1.9893,-2.0301,-2.0622,-2.0664,0.0,0.0,0.0,0.0,0.0,0.0,0.0,0.0,0.0,0.0,-2.0761,0.0,-2.0869,-2.1059,-2.1393,0.0,0.0,0.0,0.0,0.0,0.0,-2.2241,0.0,0.0,0.0,-2.152,-2.1099,-2.0704,-2.0521,-2.0521,-2.0521,-2.0732,-2.1126,-2.1513,-2.1874,-2.2097,-2.2309,-2.2662,-2.3047,-2.3101,-2.3091,-2.3091,-2.3091,-2.3637,-2.4414,0.0,0.0,0.0,0.0,0.0,0.0,0.0,-2.4202,0.0,-2.4202,-2.4202,-2.4202,-2.4202,-2.4202,-2.4202,-2.4202,-2.4202,-2.4202,-2.4202,-2.4202,-2.4202,-2.4202,-2.4202,-2.4202,-2.4202,-2.3363,-2.3045,-2.3289,-2.1945,-2.1334,-2.1349,0.0,0.0,0.0,0.0,-2.1302,0.0,0.0,0.0,-2.2574,-2.2574,-2.253,-2.2397,-2.2397,-2.2397,-2.2397,-2.2397,-2.2397,-2.2451,-2.2451,-2.2168,-2.1696,-2.1148,-2.0614,-2.0136,-1.9935,-1.9666,-1.9469,-1.9676,-1.9597,-1.9429,-1.9429,-1.939,-1.9301,-1.9301,-1.9457,-1.9604,-1.9604,-1.9925,-2.0232,-2.0484,-2.0889,0.0,0.0,0.0,0.0,0.0,0.0,-2.1783,0.0,0.0,0.0,0.0,0.0,0.0,0.0,0.0,0.0,0.0,0.0,0.0,0.0,0.0,0.0,0.0,0.0,0.0,-2.0796,-2.036,-2.0099,-1.9897,-2.0328,-2.0622,-2.0842,-2.1421,-2.1874,-2.2141,-2.2485,-2.2794,-2.3091,-2.3091,-2.3091,-2.3091,-2.3091,-2.35,-2.4121,0.0,-2.4202,0.0,0.0,-2.4202,0.0,-2.4202,-2.4202,-2.4202,-2.4202,-2.4202,-2.4202,-2.4202,-2.4202,-2.4202,-2.4202,-2.4202,-2.4202,-2.4202,-2.4202,-2.4202,-2.4202,-2.4202,-2.4202,-2.4202,-2.3446,-2.309,0.0,-2.2091,-2.1441,0.0,-2.0898,-2.0538,-2.0205,0.0,0.0,0.0,0.0,-2.2574,-2.2353,-2.2353,-2.2309,-2.2264,-2.2264,-2.2264,-2.2264,-2.2264,-2.2132,-2.2008,-2.2008,-2.1773,-2.1302,-2.0683,-2.0204,-1.9852,-1.9598,-1.9429,-1.9341,-1.9478,-1.9429,-1.9301,-1.9301,-1.9301,-1.9301,-1.9301,-1.9301,-1.9301,-1.9301,-1.9567,-1.9916,-2.0278,-2.056,0.0,0.0,0.0,0.0,0.0,0.0,0.0,0.0,0.0,0.0,-2.0257,0.0,0.0,0.0,0.0,0.0,-2.185,0.0,0.0,0.0,0.0,-2.1696,-2.1696,0.0,-2.0906,-2.0512,-2.0076,-1.9714,-1.9329,-2.0145,-2.0521,-2.0525,-2.1339,-2.1874,-2.2185,-2.2574,-2.2882,-2.3091,-2.3091,-2.3091,-2.3091,-2.3091,-2.3418,-2.3857,0.0,0.0,0.0,0.0,0.0,0.0,-2.4202,-2.4202,-2.4202,-2.4202,-2.4202,-2.4202,-2.4202,-2.4202,-2.4202,-2.4202,-2.4202,-2.4202,-2.4202,-2.4202,-2.4202,-2.4202,-2.4202,-2.4202,-2.4202,-2.3712,-2.3261,0.0,0.0,-2.1826,0.0,-2.1226,-2.1144,-2.1084,0.0,0.0,0.0,-2.2252,-2.2309,-2.2141,-2.2141,-2.1963,-2.1776,-2.1776,-2.1776,-2.1776,-2.1776,-2.1731,-2.1741,-2.1741,-2.1456,-2.1078,-2.064,-2.0204,-1.9802,-1.943,-1.9301,-1.9301,-1.9301,-1.9301,-1.9301,-1.9301,-1.9301,-1.9301,-1.9301,-1.9301,-1.9301,-1.9301,-1.9329,-1.9494,-1.9866,-1.9989,-1.998,0.0,0.0,0.0,0.0,0.0,-2.1022,-2.0664,0.0,0.0,0.0,0.0,0.0,0.0,0.0,0.0,0.0,0.0,0.0,-2.1696,0.0,-2.1696,-2.1696,-2.1319,-2.0906,-2.0512,-2.0076,-1.9714,-1.9329,-2.0145,-2.0521,-2.0525,-2.1339,-2.1954,-2.2397,-2.2441,-2.2706,-2.3091,-2.3091,-2.3091,-2.3091,-2.3091,-2.3418,-2.3857,0.0,0.0,0.0,0.0,0.0,0.0,0.0,-2.4202,-2.4202,-2.4202,-2.4202,-2.4202,-2.4202,-2.4202,-2.4202,-2.4202,-2.4202,-2.4202,-2.4202,-2.4202,-2.4202,-2.4202,-2.4202,-2.4202,-2.4202,-2.3749,-2.3416,0.0,0.0,0.0,0.0,-2.1296,-2.1099,-2.1001,0.0,-2.1601,-2.1596,-2.2051,-2.2097,-2.1874,-2.1874,-2.1785,-2.1696,-2.1696,-2.1696,-2.1696,-2.1696,-2.1696,-2.1696,-2.1696,-2.1257,-2.0723,-2.0567,-2.0072,-1.9522,-1.9347,-1.9301,-1.9301,-1.9301,-1.9301,-1.9301,-1.9301,-1.9301,-1.9301,-1.9301,-1.9301,-1.9301,-1.9301,-1.9301,-1.9356,-1.9522,-1.9549,-1.9549,-1.9549,0.0,0.0,0.0,0.0,0.0,-2.0177,0.0,-2.0264,0.0,0.0,0.0,0.0,0.0,-2.0695,-2.1089,0.0,0.0,-2.1696,0.0,-2.1696,-2.1696,-2.108,-2.0677,-2.047,-1.9861,-1.9595,-1.9696,-2.0223,-2.0744,-2.1273,-2.1727,-2.2132,-2.2388,-2.2574,-2.2838,-2.3091,-2.3091,-2.3091,-2.3091,-2.3091,-2.3208,-2.3467,-2.4202,0.0,-2.4202,0.0,-2.4202,-2.4202,-2.4202,-2.4202,-2.4202,-2.4202,-2.4202,-2.4202,-2.4202,-2.4202,-2.4202,-2.4202,-2.4202,-2.4202,-2.4202,-2.4202,-2.4202,-2.4202,-2.4202,0.0,-2.4202,-2.3868,-2.3618,-2.3499,-2.2922,0.0,-2.2044,-2.1658,-2.1397,0.0,-2.1479,-2.1519,-2.1503,-2.1843,-2.1874,-2.1696,-2.1696,-2.1696,-2.1696,-2.1696,-2.1696,-2.1696,-2.1696,-2.1696,-2.1696,-2.1696,-2.1229,-2.0695,-2.0695,-2.0136,-1.9485,-1.9485,-1.9402,-1.9301,-1.9301,-1.9301,-1.9301,-1.9301,-1.9301,-1.9301,-1.9301,-1.9301,-1.9301,-1.9301,-1.9301,-1.9301,-1.9301,-1.9301,-1.9301,-1.9301,0.0,0.0,0.0,-2.0149,0.0,-1.9939,-2.0383,-2.042,-1.9723,0.0,0.0,0.0,0.0,-2.0769,-2.0924,0.0,0.0,0.0,0.0,0.0,-2.1696,-2.1,-2.0631,-2.047,-1.9934,-1.9751,-1.9902,-2.0457,-2.1028,-2.1687,-2.1919,-2.2097,-2.2309,-2.2574,-2.2794,-2.3013,-2.3101,-2.3091,-2.3091,-2.3091,-2.3091,-2.3159,-2.4202,-2.4202,-2.4202,-2.4202,-2.4202,-2.4202,-2.4202,-2.4202,-2.4202,-2.4202,-2.4202,-2.4202,-2.4202,-2.4202,-2.4202,-2.4202,-2.4202,-2.4202,-2.4202,-2.4202,-2.4202,0.0,0.0,-2.4202,-2.4202,-2.4192,-2.395,-2.3499,0.0,0.0,-2.2885,-2.2465,-2.2263,-2.2282,-2.1851,-2.1687,-2.1687,-2.1687,-2.1696,-2.1696,-2.1696,-2.1696,-2.1696,-2.1696,-2.1696,-2.1696,-2.1696,-2.1696,-2.1696,-2.1696,-2.1412,-2.1099,-2.1099,-2.0558,-1.9884,-1.9884,-1.9622,-1.9301,-1.9301,-1.9301,-1.9301,-1.9301,-1.9301,-1.9301,-1.9301,-1.9301,-1.9301,-1.9301,-1.9301,-1.9301,-1.9301,-1.9301,-1.9301,-1.9301,0.0,0.0,0.0,-2.0008,0.0,-1.9939,-2.0622,-2.0943,-2.0539,0.0,0.0,0.0,0.0,-2.0934,-2.0549,0.0,0.0,-2.1696,-2.1696,0.0,-2.1696,-2.131,-2.0906,-2.0521,-2.0512,-2.0259,-1.9921,-2.0741,-2.1328,-2.1696,-2.1696,-2.1874,-2.2097,-2.2309,-2.2574,-2.2838,-2.3013,-2.3091,-2.3091,-2.3091,-2.3091,-2.3159,-2.4202,-2.4202,-2.4202,-2.4202,-2.4202,-2.4202,-2.4202,-2.4202,-2.4202,-2.4202,-2.4202,-2.4202,-2.4202,-2.4202,-2.4202,0.0,-2.4202,-2.4202,0.0,-2.4202,-2.4202,-2.4202,-2.4202,-2.4202,-2.4202,-2.4202,-2.4137,-2.396,0.0,0.0,0.0,-2.2776,-2.2712,-2.2684,-2.2272,-2.2089,-2.2071,-2.1806,-2.1696,-2.1696,-2.1696,-2.1696,-2.1696,-2.1696,-2.1696,-2.1696,-2.1696,-2.1696,-2.1696,-2.1696,-2.1604,-2.1495,-2.1495,-2.0979,-2.0283,-1.9966,-1.9793,-1.9668,-1.9375,-1.9301,-1.9301,-1.9301,-1.9301,-1.9301,-1.9301,-1.9301,-1.9301,-1.9301,-1.9301,-1.9301,-1.9301,-1.9301,-1.9301,-1.9301,-1.9301,0.0,-1.9687,0.0,-2.0466,-2.0305,-2.0796,-2.0952,0.0,-2.0521,0.0,0.0,0.0,0.0,0.0,0.0,0.0,0.0,-2.1696,0.0,-2.1696,-2.1319,-2.1044,-2.0915,-2.0649,-2.0594,-2.075,-2.1291,-2.1568,-2.1687,-2.1874,-2.2008,-2.2141,-2.2495,-2.2706,-2.2803,-2.3013,-2.3091,-2.3091,-2.3091,-2.3091,-2.311,-2.4202,-2.4202,-2.4202,-2.4202,-2.4202,-2.4202,-2.4202,-2.4202,-2.4202,-2.4202,-2.4202,-2.4202,-2.4202,-2.4202,0.0,-2.4202,-2.4202,-2.4202,-2.4202,-2.4202,-2.4202,-2.4202,-2.4202,-2.4202,-2.4202,-2.4202,0.0,-2.4202,-2.3895,-2.3648,-2.34,-2.3197,-2.3123,-2.3114,-2.2693,-2.2428,-2.2263,-2.2016,-2.1824,-2.1696,-2.1696,-2.1696,-2.1696,-2.1696,-2.1696,-2.1696,-2.1696,-2.1696,-2.1696,-2.1696,-2.1696,-2.1696,-2.1696,-2.1348,-2.0854,-2.0451,-2.0122,-1.9829,-1.9613,-1.9421,-1.9301,-1.9301,-1.9301,-1.9301,-1.9301,-1.9301,-1.9301,-1.9301,-1.9301,-1.9301,-1.9301,-1.9301,-1.9301,-1.9301,-1.943,-1.9591,-1.9847,0.0,-2.0741,0.0,0.0,0.0,0.0,-2.0927,-2.0927,0.0,0.0,0.0,0.0,0.0,0.0,-2.1696,-2.1696,-2.1696,-2.1696,-2.1431,-2.1264,-2.1099,-2.086,-2.0952,-2.1312,-2.1577,-2.1696,-2.1696,-2.1874,-2.1963,-2.2008,-2.2451,-2.2662,-2.2662,-2.296,-2.3091,-2.3091,-2.3091,-2.3091,-2.3091,-2.4202,-2.4202,-2.4202,0.0,-2.4202,0.0,-2.4202,-2.4202,-2.4202,-2.4202,-2.4202,-2.4202,-2.4202,-2.4202,-2.4202,-2.4202,0.0,0.0,0.0,-2.4202,-2.4202,-2.4202,-2.4202,-2.4202,-2.4202,-2.4202,-2.4202,-2.4202,-2.4202,-2.4202,-2.4192,-2.3767,-2.3535,-2.3517,-2.3123,-2.273,-2.2364,-2.2336,-2.2089,-2.1733,-2.1733,-2.1714,-2.1696,-2.1696,-2.1696,-2.1696,-2.1696,-2.1696,-2.1696,-2.1696,-2.1696,-2.1696,-2.1696,-2.1696,-2.1604,-2.1236,-2.0585,-1.9957,-1.9902,-1.9641,-1.9338,-1.9311,-1.9301,-1.9301,-1.9301,-1.9301,-1.9301,-1.9301,-1.9301,-1.9301,-1.9301,-1.9301,-1.9311,-1.9338,-1.9677,-1.9912,-1.9966,-2.064,-2.1117,0.0,0.0,0.0,-2.1696,-2.1696,-2.1696,0.0,0.0,0.0,0.0,0.0,-2.1696,-2.1696,-2.1696,-2.1696,-2.1696,-2.1696,-2.1495,-2.1145,-2.1145,-2.1355,-2.1696,-2.1696,-2.1696,-2.1696,-2.1696,-2.1696,-2.1741,-2.222,-2.2397,-2.2441,-2.2916,-2.3101,-2.3091,-2.3091,-2.3057,-2.3047,0.0,0.0,-2.4202,-2.4202,-2.4202,-2.4202,-2.4202,-2.4202,-2.4202,-2.4202,-2.4202,-2.4202,-2.4202,-2.4202,-2.4202,-2.4202,-2.4202,-2.4202,-2.4202,-2.4202,-2.4202,-2.4202,-2.4202,-2.4202,-2.4202,-2.4202,-2.4202,-2.4202,-2.4202,-2.4202,-2.4202,-2.4101,-2.4005,-2.3987,-2.3535,-2.3297,-2.3187,-2.2885,-2.2519,-2.2144,-2.2144,-2.1961,-2.1696,-2.1696,-2.1696,-2.1696,-2.1696,-2.1696,-2.1696,-2.1696,-2.1696,-2.1696,-2.1696,-2.1696,-2.1604,-2.1236,-2.097,-2.0695,-2.0058,-1.982,-1.9664,-1.9384,-1.9301,-1.9301,-1.9301,-1.9301,-1.9301,-1.9301,-1.9301,-1.9301,-1.9301,-1.9301,-1.9402,-1.9692,-1.9829,-2.0095,-2.0741,-2.0989,-2.1227,0.0,-2.1632,-2.1696,-2.1696,-2.1696,-2.1696,0.0,0.0,0.0,0.0,-2.1696,-2.1696,-2.1696,-2.1696,-2.1696,-2.1696,-2.1696,-2.1641,-2.1549,-2.1549,-2.1595,-2.1696,-2.1696,-2.1696,-2.1696,-2.1696,-2.1696,-2.1741,-2.222,-2.2397,-2.2441,-2.2916,-2.3013,-2.2882,-2.2882,-2.275,-2.2564,-2.4202,-2.4202,-2.4202,-2.4202,-2.4202,-2.4202,-2.4202,-2.4202,-2.4202,-2.4202,-2.4202,-2.4202,-2.4202,-2.4202,-2.4202,-2.4202,-2.4202,-2.4202,-2.4202,-2.4202,-2.4202,-2.4202,-2.4202,-2.4202,-2.4202,-2.4202,-2.4202,-2.4202,-2.4202,-2.4202,-2.4202,-2.4202,-2.4202,-2.4192,-2.3923,-2.3721,-2.348,-2.327,-2.294,-2.2565,-2.2565,-2.2327,-2.1961,-2.1961,-2.1851,-2.1696,-2.1696,-2.1696,-2.1696,-2.1696,-2.1696,-2.1696,-2.1696,-2.1696,-2.165,-2.1421,-2.1255,-2.097,-2.0323,-2.0031,-1.9793,-1.9402,-1.9301,-1.9301,-1.9301,-1.9301,-1.9301,-1.9301,-1.9301,-1.9301,-1.9301,-1.9457,-1.9668,-1.9847,-2.0195,-2.0622,-2.1044,-2.1273,-2.1484,-2.1668,-2.1696,-2.1696,-2.1696,-2.1696,-2.1696,-2.1696,-2.1696,0.0,-2.1456,-2.1447,-2.1495,-2.1687,-2.1696,-2.1696,-2.1696,-2.1696,-2.1696,-2.1696,-2.1696,-2.1696,-2.1696,-2.1696,-2.1696,-2.1696,-2.1696,-2.1696,-2.1731,-2.2097,-2.2264,-2.2309,-2.2652,-2.2706,-2.2618,-2.2618,-2.253,-2.2441,-2.4202,-2.4202,-2.4202,-2.4202,-2.4202,-2.4202,-2.4202,-2.4202,-2.4202,-2.4202,-2.4202,-2.4202,-2.4202,-2.4202,-2.4202,-2.4202,-2.4202,-2.4202,-2.4202,-2.4202,-2.4202,-2.4202,-2.4202,-2.4202,-2.4202,-2.4202,-2.4202,-2.4202,-2.4202,-2.4202,-2.4202,-2.4202,-2.4202,-2.4202,-2.4202,-2.396,-2.359,-2.359,-2.3361,-2.2995,-2.2995,-2.2748,-2.2364,-2.23,-2.2071,-2.1769,-2.1714,-2.1696,-2.1696,-2.1696,-2.1696,-2.1696,-2.1696,-2.1696,-2.1696,-2.1696,-2.144,-2.1117,-2.0714,-2.0232,-1.9793,-1.9402,-1.9301,-1.9301,-1.9301,-1.9301,-1.9301,-1.9301,-1.9301,-1.932,-1.9384,-1.9687,-1.993,-2.0049,-2.0668,-2.1126,-2.119,0.0,-2.1696,-2.1696,-2.1696,-2.1696,-2.1696,-2.1696,-2.1696,-2.1696,-2.1632,-2.144,-2.1126,-2.1044,-2.1181,-2.1495,-2.1504,-2.154,-2.1595,-2.1595,-2.1632,-2.1696,-2.1696,-2.1696,-2.1696,-2.1696,-2.1696,-2.1696,-2.1696,-2.1696,-2.1741,-2.2008,-2.2097,-2.2097,-2.2309,-2.2397,-2.2353,-2.2353,-2.2353,-2.2309,-2.4202,-2.4202,-2.4202,-2.4202,-2.4202,-2.4202,-2.4202,-2.4202,-2.4202,-2.4202,-2.4202,-2.4202,-2.4202,-2.4202,-2.4202,-2.4202,-2.4202,-2.4202,-2.4202,-2.4202,-2.4202,-2.4202,-2.4202,-2.4202,-2.4202,-2.4202,-2.4202,-2.4202,-2.4202,-2.4202,-2.4202,-2.4202,-2.4202,-2.4202,-2.4202,-2.4165,-2.411,-2.411,-2.3822,-2.3407,-2.3407,-2.3169,-2.2776,-2.2419,-2.2245,-2.2144,-2.1806,-2.1696,-2.1696,-2.1696,-2.1696,-2.1696,-2.1696,-2.1696,-2.1696,-2.1696,-2.165,-2.1504,-2.1135,-2.0484,-1.9793,-1.9402,-1.9301,-1.9301,-1.9301,-1.9301,-1.9301,-1.9301,-1.9301,-1.9412,-1.9729,-1.9847,-2.0104,-2.0814,-2.1025,-2.1236,-2.1549,0.0,-2.1696,-2.1696,-2.1696,-2.1696,-2.1696,-2.1696,-2.1696,-2.1696,-2.141,-2.1172,-2.1108,-2.0796,-2.064,-2.0662,-2.0714,-2.0869,-2.12,-2.1209,-2.1339,-2.1696,-2.1696,-2.1696,-2.1696,-2.1696,-2.1696,-2.1696,-2.1696,-2.1696,-2.1741,-2.2008,-2.2097,-2.2097,-2.2309,-2.2309,-2.2141,-2.2141,-2.2008,-2.182,-2.4202,-2.4202,-2.4202,-2.4202,-2.4202,-2.4202,-2.4202,-2.4202,-2.4202,-2.4202,-2.4202,-2.4202,-2.4202,-2.4202,-2.4202,-2.4202,-2.4202,-2.4202,-2.4202,-2.4202,-2.4202,-2.4202,-2.4202,-2.4202,-2.4202,-2.4202,-2.4202,-2.4202,-2.4202,-2.4202,-2.4202,-2.4202,-2.4202,-2.4202,-2.4202,-2.4202,-2.4202,-2.4202,-2.4091,-2.3868,-2.3868,-2.3629,-2.3197,-2.3004,-2.2657,-2.2254,-2.2071,-2.187,-2.1696,-2.1696,-2.1696,-2.1696,-2.1696,-2.1696,-2.1696,-2.1696,-2.1531,-2.1355,-2.1163,-2.053,-1.9847,-1.9687,-1.9467,-1.9301,-1.9301,-1.9301,-1.9301,-1.9301,-1.9301,-1.943,-1.9811,-2.0058,-2.0438,-2.1007,-2.1291,0.0,-2.1668,-2.1696,-2.1604,-2.1385,-2.1392,-2.1275,-2.1055,-2.1037,-2.1037,-2.1037,-2.0897,-2.0695,-2.0484,-2.0301,-2.0099,-1.987,-2.0292,-2.0604,-2.0787,-2.0998,-2.1209,-2.1401,-2.1586,-2.1696,-2.1696,-2.1696,-2.1696,-2.1696,-2.1696,-2.1696,-2.1696,-2.183,-2.1874,-2.1874,-2.1998,-2.1954,-2.1874,-2.1874,-2.183,-2.1741,-2.4202,-2.4202,-2.4202,-2.4202,-2.4202,-2.4202,-2.4202,-2.4202,-2.4202,-2.4202,-2.4202,-2.4202,-2.4202,-2.4202,-2.4202,-2.4202,-2.4202,-2.4202,-2.4202,-2.4202,-2.4202,-2.4202,-2.4202,-2.4202,-2.4202,-2.4202,-2.4202,-2.4202,-2.4202,-2.4202,-2.4202,-2.4202,-2.4202,-2.4202,-2.4202,-2.4202,-2.4202,-2.4202,-2.4202,-2.4202,-2.4202,-2.396,-2.3627,-2.3535,-2.3105,-2.2538,-2.2346,-2.2089,-2.1815,-2.1723,-2.1696,-2.1696,-2.1696,-2.1696,-2.1696,-2.1696,-2.1458,-2.1236,-2.1135,-2.0594,-2.0003,-1.9912,-1.9613,-1.9301,-1.9301,-1.9301,-1.9301,-1.9301,-1.9301,-1.9457,-1.993,-2.0278,-2.0677,-2.1172,0.0,-2.1696,0.0,-2.1696,-2.1531,-2.1163,-2.1108,-2.0952,-2.0558,-2.0521,-2.0521,-2.0521,-2.0387,-2.0214,-1.9902,-1.9793,-1.9641,-1.9311,-1.9907,-2.0283,-2.0383,-2.0778,-2.1016,-2.1108,-2.1495,-2.1696,-2.1696,-2.1696,-2.1696,-2.1696,-2.1696,-2.1696,-2.1696,-2.1696,-2.1696,-2.1696,-2.1696,-2.1696,-2.1696,-2.1696,-2.1696,-2.1696,-2.4202,-2.4202,-2.4202,-2.4202,-2.4202,-2.4202,-2.4202,-2.4202,-2.4202,-2.4202,-2.4202,-2.4202,-2.4202,-2.4202,-2.4202,-2.4202,-2.4202,-2.4202,-2.4202,-2.4202,-2.4202,-2.4202,-2.4202,-2.4202,-2.4202,-2.4202,-2.4202,-2.4202,-2.4202,-2.4202,-2.4202,-2.4202,-2.4202,-2.4202,-2.4202,-2.4202,-2.4202,-2.4202,-2.4202,-2.4202,-2.4202,-2.4183,-2.411,-2.3684,-2.3453,-2.3306,-2.2547,-2.2263,-2.2181,-2.1815,-2.1696,-2.1696,-2.1696,-2.1696,-2.1696,-2.1696,-2.1668,-2.1559,-2.1209,-2.0796,-2.0383,-1.9976,-1.9613,-1.9301,-1.9301,-1.9301,-1.9301,-1.9301,-1.9301,-1.954,-2.0328,-2.0493,-2.0735,-2.1522,0.0,0.0,-2.1696,-2.1696,-2.1531,-2.1163,-2.1108,-2.0952,-2.0558,-2.0521,-2.0521,-2.0521,-2.014,-1.9921,-1.9893,-1.9558,-1.9329,-1.9301,-1.9356,-1.9577,-1.993,-2.0323,-2.0741,-2.1108,-2.1495,-2.1696,-2.1696,-2.1696,-2.1696,-2.1696,-2.1696,-2.1696,-2.1696,-2.1696,-2.1696,-2.1696,-2.1696,-2.1696,-2.1696,-2.1696,-2.1696,-2.1696,-2.4202,-2.4202,-2.4202,-2.4202,-2.4202,-2.4202,-2.4202,-2.4202,-2.4202,-2.4202,-2.4202,-2.4202,-2.4202,-2.4202,-2.4202,-2.4202,-2.4202,-2.4202,-2.4202,-2.4202,-2.4202,-2.4202,-2.4202,-2.4202,-2.4202,-2.4202,-2.4202,-2.4202,-2.4202,-2.4202,-2.4202,-2.4202,-2.4202,-2.4202,-2.4202,-2.4202,-2.4202,-2.4202,-2.4202,-2.4202,-2.4202,-2.4202,-2.4183,-2.3978,-2.3767,-2.3425,-2.2867,-2.2501,-2.2217,-2.1824,-2.1696,-2.1696,-2.1696,-2.1696,-2.1696,-2.1696,-2.1696,-2.1659,-2.1495,-2.12,-2.0796,-2.0351,-1.9948,-1.9622,-1.9356,-1.9301,-1.9301,-1.9301,-1.9301,-1.9476,-2.0053,-2.0314,-2.0695,-2.1255,0.0,-2.1696,-2.1696,-2.1511,-2.12,-2.0796,-2.0521,-2.0218,-1.9806,-1.976,-1.976,-1.976,-1.9622,-1.954,-1.954,-1.9393,-1.9301,-1.9301,-1.9301,-1.9375,-1.954,-2.0191,-2.0594,-2.075,-2.1376,-2.1696,-2.1696,-2.1696,-2.1696,-2.1696,-2.1696,-2.1696,-2.1696,-2.1696,-2.1696,-2.1696,-2.1696,-2.1696,-2.1696,-2.1696,-2.1696,-2.1696,-2.4053,-2.4152,-2.4202,-2.4202,-2.4202,-2.4202,-2.4202,-2.4202,-2.4202,-2.4202,-2.4202,-2.4202,-2.4202,-2.4202,-2.4202,-2.4202,-2.4202,-2.4202,-2.4202,-2.4202,-2.4202,-2.4202,-2.4202,-2.4202,-2.4202,-2.4202,-2.4202,-2.4202,-2.4202,-2.4202,-2.4202,-2.4202,-2.4202,-2.4202,-2.4202,-2.4202,-2.4202,-2.4202,-2.4202,-2.4202,-2.4202,-2.4202,-2.4202,-2.4202,-2.3978,-2.3684,-2.3233,-2.2821,-2.2419,-2.2007,-2.1797,-2.1696,-2.1696,-2.1696,-2.1696,-2.1696,-2.1696,-2.1696,-2.1696,-2.1485,-2.1181,-2.0649,-2.0186,-1.9774,-1.9393,-1.9301,-1.9301,-1.9301,-1.9301,-1.943,-1.9811,-2.0113,-2.0424,-2.086,-2.1119,-2.1312,-2.1312,-2.1108,-2.0778,-2.0383,-2.0058,-1.9719,-1.9347,-1.9301,-1.9301,-1.9301,-1.9301,-1.9301,-1.9301,-1.9301,-1.9301,-1.9301,-1.9301,-1.9301,-1.9301,-2.0108,-2.0521,-2.053,-2.1302,-2.1696,-2.1696,-2.1696,-2.1696,-2.1696,-2.1696,-2.1696,-2.1696,-2.1696,-2.1696,-2.1696,-2.1696,-2.1696,-2.1696,-2.1696,-2.1696,-2.1696,-2.3805,-2.4003,-2.4202,-2.4202,-2.4202,-2.4202,-2.4202,-2.4202,-2.4202,-2.4202,-2.4202,-2.4202,-2.4202,-2.4202,-2.4202,-2.4202,-2.4202,-2.4202,-2.4202,-2.4202,-2.4202,-2.4202,-2.4202,-2.4202,-2.4202,-2.4202,-2.4202,-2.4202,-2.4202,-2.4202,-2.4202,-2.4202,-2.4202,-2.4202,-2.4202,-2.4202,-2.4202,-2.4202,-2.4202,-2.4202,-2.4202,-2.4202,-2.4202,-2.4202,-2.4202,-2.4146,-2.3684,-2.3242,-2.2849,-2.2419,-2.2016,-2.1696,-2.1696,-2.1696,-2.1696,-2.1696,-2.1696,-2.1696,-2.1696,-2.1696,-2.1495,-2.068,-2.0186,-1.9793,-1.9402,-1.9311,-1.9311,-1.9311,-1.9301,-1.943,-1.9802,-1.9893,-2.0021,-2.0448,-2.0521,-2.0521,-2.0521,-2.0521,-2.0365,-1.9939,-1.9884,-1.9719,-1.9347,-1.9301,-1.9301,-1.9301,-1.9301,-1.9301,-1.9301,-1.9301,-1.9301,-1.9301,-1.9301,-1.9301,-1.9301,-2.0108,-2.0512,-2.0479,-2.1293,-2.1687,-2.1687,-2.1696,-2.1696,-2.1696,-2.1696,-2.1696,-2.1696,-2.1696,-2.1696,-2.1696,-2.1696,-2.1696,-2.1696,-2.1696,-2.1696,-2.1696,-2.3497,-2.3596,-2.3646,-2.3646,-2.3646,-2.3646,-2.3646,-2.3646,-2.3705,-2.3895,-2.3904,-2.4003,-2.4202,-2.4202,-2.4202,-2.4202,-2.4202,-2.4202,-2.4202,-2.4202,-2.4202,-2.4202,-2.4202,-2.4202,-2.4202,-2.4202,-2.4202,-2.4202,-2.4202,-2.4202,-2.4202,-2.4202,-2.4202,-2.4202,-2.4202,-2.4202,-2.4202,-2.4202,-2.4202,-2.4202,-2.4202,-2.4202,-2.4202,-2.4202,-2.4202,-2.4146,-2.3684,-2.3242,-2.2849,-2.2419,-2.2016,-2.1696,-2.1696,-2.1696,-2.1696,-2.1696,-2.1696,-2.1696,-2.1696,-2.1696,-2.1559,-2.1071,-2.0842,-2.0649,-2.0246,-2.0154,-2.0081,-1.9756,-1.9701,-1.9687,-1.9522,-1.9692,-1.993,-2.0049,-2.0338,-2.0521,-2.0521,-2.0283,-2.0021,-1.9902,-1.9668,-1.9439,-1.9311,-1.9301,-1.9301,-1.9301,-1.9301,-1.9301,-1.9301,-1.9301,-1.9301,-1.9301,-1.9301,-1.9301,-1.9301,-1.9842,-2.0067,-2.0076,-2.0915,-2.1291,-2.131,-2.1559,-2.1696,-2.1696,-2.1696,-2.1696,-2.1696,-2.1696,-2.1696,-2.1696,-2.1696,-2.1696,-2.1696,-2.1696,-2.1696,-2.1696,-2.3247,-2.3347,-2.3397,-2.3397,-2.3397,-2.3397,-2.3397,-2.3397,-2.3447,-2.3596,-2.3646,-2.3696,-2.3854,-2.3904,-2.3954,-2.4053,-2.4152,-2.4202,-2.4202,-2.4202,-2.4202,-2.4202,-2.4202,-2.4202,-2.4202,-2.4202,-2.4202,-2.4202,-2.4202,-2.4202,-2.4202,-2.4202,-2.4202,-2.4202,-2.4202,-2.4202,-2.4202,-2.4202,-2.4202,-2.4202,-2.4202,-2.4202,-2.4202,-2.4202,-2.4202,-2.4165,-2.3877,-2.338,-2.2867,-2.2611,-2.2153,-2.1696,-2.1696,-2.1696,-2.1696,-2.1696,-2.1696,-2.1696,-2.1696,-2.1696,-2.1632,-2.142,-2.1236,-2.1007,-2.0613,-2.0521,-2.0448,-2.0177,-1.9994,-1.9811,-1.9595,-1.9622,-1.9646,-1.9646,-1.9879,-2.0035,-2.0035,-1.9833,-1.9646,-1.9646,-1.9457,-1.9301,-1.9301,-1.9301,-1.9301,-1.9301,-1.9301,-1.9301,-1.9301,-1.9301,-1.9301,-1.9301,-1.9301,-1.9301,-1.9301,-1.9549,-1.9729,-1.9893,-2.0525,-2.0961,-2.1117,-2.1374,-2.1531,-2.1696,-2.1696,-2.1696,-2.1696,-2.1696,-2.1696,-2.1696,-2.1696,-2.1696,-2.1696,-2.1696,-2.1696,-2.1696,-2.2896,-2.3097,-2.3297,-2.3297,-2.3347,-2.3347,-2.3347,-2.3347,-2.3347,-2.3347,-2.3347,-2.3347,-2.3397,-2.3397,-2.3497,-2.3755,-2.4003,-2.4152,-2.4152,-2.4152,-2.4152,-2.4152,-2.4202,-2.4202,-2.4202,-2.4202,-2.4202,-2.4202,-2.4202,-2.4202,-2.4202,-2.4202,-2.4202,-2.4202,-2.4202,-2.4202,-2.4202,-2.4202,-2.4202,-2.4202,-2.4202,-2.4202,-2.4202,-2.4202,-2.4202,-2.4202,-2.4202,-2.3657,-2.295,-2.2876,-2.2336,-2.1696,-2.1696,-2.1696,-2.1696,-2.1696,-2.1696,-2.1696,-2.1696,-2.1696,-2.1696,-2.1696,-2.1403,-2.1071,-2.0714,-2.0631,-2.0622,-2.0576,-2.0241,-1.9976,-1.9902,-1.9613,-1.9347,-1.9311,-1.9301,-1.9301,-1.9301,-1.9301,-1.9301,-1.9301,-1.9301,-1.9301,-1.9301,-1.9301,-1.9301,-1.9301,-1.9301,-1.9301,-1.9301,-1.9301,-1.9301,-1.9301,-1.9301,-1.9301,-1.9301,-1.9301,-1.9494,-1.9838,-2.0232,-2.0649,-2.1007,-2.1071,-2.1319,-2.1641,-2.1678,-2.1696,-2.1696,-2.1696,-2.1696,-2.1696,-2.1696,-2.1696,-2.1696,-2.1696,-2.1696,-2.1696,-2.2232,-2.2333,-2.2485,-2.2745,-2.2745,-2.2745,-2.2745,-2.2745,-2.2846,-2.3046,-2.3097,-2.3147,-2.3397,-2.3397,-2.3397,-2.3497,-2.3546,-2.3546,-2.3546,-2.3746,-2.3904,-2.3904,-2.4102,-2.4202,-2.4202,-2.4202,-2.4202,-2.4202,-2.4202,-2.4202,-2.4202,-2.4202,-2.4202,-2.4202,-2.4202,-2.4202,-2.4202,-2.4202,-2.4202,-2.4202,-2.4202,-2.4202,-2.4202,-2.4202,-2.4202,-2.4202,-2.4202,-2.3831,-2.327,-2.2629,-2.2089,-2.1696,-2.1696,-2.1696,-2.1696,-2.1696,-2.1696,-2.1696,-2.1696,-2.1696,-2.1696,-2.1696,-2.1623,-2.1531,-2.1449,-2.1431,-2.133,-2.1044,-2.0906,-2.0668,-2.0003,-1.982,-1.9687,-1.9356,-1.9301,-1.9301,-1.9301,-1.9301,-1.9301,-1.9301,-1.9301,-1.9301,-1.9301,-1.9301,-1.9301,-1.9301,-1.9301,-1.9301,-1.9301,-1.9301,-1.9301,-1.9301,-1.9301,-1.9301,-1.9301,-1.9301,-1.9347,-1.9439,-1.9861,-2.0058,-2.0168,-2.0824,-2.1163,-2.1264,-2.1549,-2.1696,-2.1696,-2.1696,-2.1696,-2.1696,-2.1696,-2.1696,-2.1696,-2.1696,-2.1696,-2.1696,-2.1302,-2.1514,-2.1776,-2.1937,-2.2182,-2.2342,-2.2342,-2.2493,-2.2644,-2.2795,-2.2795,-2.2846,-2.2996,-2.2996,-2.3046,-2.3197,-2.3347,-2.3397,-2.3397,-2.3546,-2.3605,-2.3605,-2.3755,-2.3805,-2.3805,-2.3954,-2.4053,-2.4202,-2.4202,-2.4202,-2.4202,-2.4202,-2.4202,-2.4202,-2.4202,-2.4202,-2.4202,-2.4202,-2.4202,-2.4202,-2.4202,-2.4202,-2.4202,-2.4202,-2.4202,-2.4202,-2.4202,-2.3767,-2.3114,-2.2492,-2.2016,-2.1696,-2.1696,-2.1696,-2.1696,-2.1696,-2.1696,-2.1696,-2.1696,-2.1696,-2.1696,-2.1696,-2.1696,-2.1696,-2.1696,-2.1696,-2.1632,-2.1412,-2.1245,-2.0979,-2.0567,-2.0338,-2.0031,-1.9668,-1.9604,-1.9531,-1.9329,-1.9301,-1.9301,-1.9301,-1.9301,-1.9301,-1.9301,-1.9301,-1.9301,-1.9301,-1.9301,-1.9301,-1.9301,-1.9301,-1.9301,-1.9301,-1.9301,-1.9301,-1.9301,-1.9301,-1.9301,-1.9301,-1.9522,-1.9692,-1.9912,-2.0549,-2.0934,-2.1126,-2.1513,-2.1696,-2.1696,-2.1696,-2.1696,-2.1696,-2.1696,-2.1696,-2.1696,-2.1696,-2.1696,-2.1696,-2.0269,-2.0696,-2.107,-2.1165,-2.1522,-2.1818,-2.1869,-2.2139,-2.2342,-2.2392,-2.2392,-2.2392,-2.2493,-2.2594,-2.2695,-2.2896,-2.3147,-2.3247,-2.3247,-2.3297,-2.3347,-2.3347,-2.3397,-2.3397,-2.3397,-2.3596,-2.3854,-2.4152,-2.4202,-2.4202,-2.4202,-2.4202,-2.4202,-2.4202,-2.4202,-2.4202,-2.4202,-2.4202,-2.4152,-2.4152,-2.4202,-2.4152,-2.4152,-2.4202,-2.4202,-2.4202,-2.4152,-2.3578,-2.2808,-2.2462,-2.2135,-2.1843,-2.177,-2.1752,-2.1778,-2.1714,-2.1696,-2.1696,-2.1696,-2.1696,-2.1696,-2.1696,-2.1696,-2.1696,-2.1696,-2.1696,-2.1696,-2.1696,-2.1412,-2.119,-2.1117,-2.0842,-2.0466,-1.9966,-1.9893,-1.9747,-1.9356,-1.9301,-1.9301,-1.9301,-1.9301,-1.9301,-1.9301,-1.9301,-1.9301,-1.9301,-1.9301,-1.9301,-1.9301,-1.9301,-1.9301,-1.9301,-1.9301,-1.9301,-1.9301,-1.9301,-1.9301,-1.9301,-1.9301,-1.9485,-1.9793,-2.031,-2.0695,-2.1034,-2.1485,-2.1696,-2.1696,-2.1696,-2.1696,-2.1696,-2.1696,-2.1696,-2.1696,-2.1696,-2.1696,-2.1696,-1.928,-1.9657,-2.0086,-2.0542,-2.0688,-2.0798,-2.1019,-2.1121,-2.1224,-2.1428,-2.1479,-2.1623,-2.2131,-2.2443,-2.2594,-2.2644,-2.2695,-2.2695,-2.2695,-2.2946,-2.3046,-2.3046,-2.3297,-2.3397,-2.3397,-2.3447,-2.3605,-2.3845,-2.4102,-2.4202,-2.4202,-2.4202,-2.4202,-2.4202,-2.4202,-2.4202,-2.4202,-2.4202,-2.4053,-2.3845,-2.4102,-2.4053,-2.3904,-2.4102,-2.4202,-2.4152,-2.3954,-2.3359,-2.2721,-2.2668,-2.2536,-2.2348,-2.1987,-2.2016,-2.2135,-2.1797,-2.1696,-2.1696,-2.1696,-2.1696,-2.1696,-2.1696,-2.1696,-2.1696,-2.1696,-2.1696,-2.1696,-2.1696,-2.165,-2.1495,-2.1172,-2.1062,-2.0787,-2.0003,-1.9893,-1.9747,-1.9356,-1.9301,-1.9301,-1.9301,-1.9301,-1.9301,-1.9301,-1.9301,-1.9301,-1.9301,-1.9301,-1.9301,-1.9301,-1.9301,-1.9301,-1.9301,-1.9301,-1.9301,-1.9301,-1.9301,-1.9301,-1.9301,-1.9301,-1.9329,-1.9412,-2.0173,-2.0549,-2.064,-2.1357,-2.1696,-2.1696,-2.1696,-2.1696,-2.1696,-2.1696,-2.1696,-2.1696,-2.1696,-2.1696,-2.1696,-1.8055,-1.8415,-1.8885,-1.9242,-1.9546,-1.9864,-2.0189,-2.0351,-2.055,-2.0798,-2.096,-2.1275,-2.1827,-2.2291,-2.2594,-2.2594,-2.2594,-2.2594,-2.2594,-2.2695,-2.2795,-2.2795,-2.2896,-2.2946,-2.2946,-2.3097,-2.3247,-2.3347,-2.3596,-2.3746,-2.3746,-2.3746,-2.3746,-2.3746,-2.3746,-2.3746,-2.3746,-2.3746,-2.3696,-2.3605,-2.3705,-2.3696,-2.3605,-2.3705,-2.3746,-2.3755,-2.3596,-2.3197,-2.2713,-2.2713,-2.2601,-2.2452,-2.231,-2.2279,-2.2245,-2.2071,-2.1861,-2.1696,-2.1696,-2.1696,-2.1696,-2.1696,-2.1696,-2.1696,-2.1696,-2.1607,-2.1562,-2.1696,-2.1696,-2.1632,-2.1449,-2.1456,-2.1273,-2.0644,-2.036,-2.0076,-1.9714,-1.9448,-1.9301,-1.9301,-1.9301,-1.9301,-1.9301,-1.9301,-1.9301,-1.9301,-1.9301,-1.9301,-1.9301,-1.9301,-1.9301,-1.9301,-1.9301,-1.9301,-1.9301,-1.9301,-1.9301,-1.9301,-1.9301,-1.9301,-1.9329,-2.0145,-2.0521,-2.0525,-2.1339,-2.1696,-2.1696,-2.1696,-2.1696,-2.1696,-2.1696,-2.1696,-2.1696,-2.1696,-2.1696,-2.1696]}]]